<?xml version="1.0" encoding="UTF-8" standalone="no" ?>
<gpx xmlns="http://www.topografix.com/GPX/1/1" xmlns:xsi="http://www.w3.org/2001/XMLSchema-instance" xsi:schemaLocation="http://www.topografix.com/GPX/1/1 http://www.topografix.com/GPX/1/1/gpx.xsd" version="1.1" creator="VisuGPX - https://www.visugpx.com">
  <metadata>
    <name>Sortie VTT du 24/11/2012</name>
    <desc><![CDATA[Sortie VTT avec Bastien, Cédric, Jean Louis, Marine, Virginie, Gilbert et Christian]]></desc>
  </metadata>
  <trk>
    <name><![CDATA[2012-11-24T12:03:00Z]]></name>
    <trkseg>
      <trkpt lat="43.4813" lon="6.56545">
        <ele>31.768</ele>
        <time>2012-11-24T12:03:01Z</time>
      </trkpt>
      <trkpt lat="43.48187" lon="6.5657">
        <ele>31.851</ele>
        <time>2012-11-24T12:03:12Z</time>
      </trkpt>
      <trkpt lat="43.4824" lon="6.56593">
        <ele>31.785</ele>
        <time>2012-11-24T12:03:22Z</time>
      </trkpt>
      <trkpt lat="43.48295" lon="6.56616">
        <ele>31.521</ele>
        <time>2012-11-24T12:03:32Z</time>
      </trkpt>
      <trkpt lat="43.48339" lon="6.56634">
        <ele>32.191</ele>
        <time>2012-11-24T12:03:40Z</time>
      </trkpt>
      <trkpt lat="43.48395" lon="6.56659">
        <ele>34.199</ele>
        <time>2012-11-24T12:03:51Z</time>
      </trkpt>
      <trkpt lat="43.48428" lon="6.56675">
        <ele>35.473</ele>
        <time>2012-11-24T12:03:58Z</time>
      </trkpt>
      <trkpt lat="43.48464" lon="6.56693">
        <ele>36.461</ele>
        <time>2012-11-24T12:04:06Z</time>
      </trkpt>
      <trkpt lat="43.48506" lon="6.56712">
        <ele>37.308</ele>
        <time>2012-11-24T12:04:15Z</time>
      </trkpt>
      <trkpt lat="43.48563" lon="6.56735">
        <ele>37.135</ele>
        <time>2012-11-24T12:04:27Z</time>
      </trkpt>
      <trkpt lat="43.48596" lon="6.56739">
        <ele>36.93</ele>
        <time>2012-11-24T12:04:34Z</time>
      </trkpt>
      <trkpt lat="43.48616" lon="6.56737">
        <ele>36.949</ele>
        <time>2012-11-24T12:04:38Z</time>
      </trkpt>
      <trkpt lat="43.48658" lon="6.56717">
        <ele>37.25</ele>
        <time>2012-11-24T12:04:47Z</time>
      </trkpt>
      <trkpt lat="43.4869" lon="6.56688">
        <ele>37.931</ele>
        <time>2012-11-24T12:04:55Z</time>
      </trkpt>
      <trkpt lat="43.48726" lon="6.56653">
        <ele>38.614</ele>
        <time>2012-11-24T12:05:04Z</time>
      </trkpt>
      <trkpt lat="43.48763" lon="6.56618">
        <ele>38.162</ele>
        <time>2012-11-24T12:05:12Z</time>
      </trkpt>
      <trkpt lat="43.48807" lon="6.56575">
        <ele>36.135</ele>
        <time>2012-11-24T12:05:20Z</time>
      </trkpt>
      <trkpt lat="43.4885" lon="6.56535">
        <ele>34.494</ele>
        <time>2012-11-24T12:05:27Z</time>
      </trkpt>
      <trkpt lat="43.4887" lon="6.56523">
        <ele>34.164</ele>
        <time>2012-11-24T12:05:30Z</time>
      </trkpt>
      <trkpt lat="43.48898" lon="6.56517">
        <ele>33.95</ele>
        <time>2012-11-24T12:05:34Z</time>
      </trkpt>
      <trkpt lat="43.48957" lon="6.56517">
        <ele>34.394</ele>
        <time>2012-11-24T12:05:43Z</time>
      </trkpt>
      <trkpt lat="43.49033" lon="6.56517">
        <ele>35.814</ele>
        <time>2012-11-24T12:05:55Z</time>
      </trkpt>
      <trkpt lat="43.49096" lon="6.56519">
        <ele>37.419</ele>
        <time>2012-11-24T12:06:06Z</time>
      </trkpt>
      <trkpt lat="43.49128" lon="6.5652">
        <ele>38.65</ele>
        <time>2012-11-24T12:06:13Z</time>
      </trkpt>
      <trkpt lat="43.49166" lon="6.56522">
        <ele>40.983</ele>
        <time>2012-11-24T12:06:23Z</time>
      </trkpt>
      <trkpt lat="43.49197" lon="6.56524">
        <ele>42.915</ele>
        <time>2012-11-24T12:06:32Z</time>
      </trkpt>
      <trkpt lat="43.49218" lon="6.56525">
        <ele>43.962</ele>
        <time>2012-11-24T12:06:39Z</time>
      </trkpt>
      <trkpt lat="43.49222" lon="6.56525">
        <ele>44.103</ele>
        <time>2012-11-24T12:06:42Z</time>
      </trkpt>
      <trkpt lat="43.49227" lon="6.56525">
        <ele>44.5</ele>
        <time>2012-11-24T12:06:48Z</time>
      </trkpt>
      <trkpt lat="43.49227" lon="6.56525">
        <ele>44.571</ele>
        <time>2012-11-24T12:06:49Z</time>
      </trkpt>
      <trkpt lat="43.49233" lon="6.56526">
        <ele>45.827</ele>
        <time>2012-11-24T12:15:57Z</time>
      </trkpt>
      <trkpt lat="43.49237" lon="6.56527">
        <ele>45.938</ele>
        <time>2012-11-24T12:15:59Z</time>
      </trkpt>
      <trkpt lat="43.49241" lon="6.56528">
        <ele>45.964</ele>
        <time>2012-11-24T12:16:03Z</time>
      </trkpt>
      <trkpt lat="43.49264" lon="6.56547">
        <ele>46.741</ele>
        <time>2012-11-24T12:16:12Z</time>
      </trkpt>
      <trkpt lat="43.4927" lon="6.56558">
        <ele>47.097</ele>
        <time>2012-11-24T12:16:18Z</time>
      </trkpt>
      <trkpt lat="43.4927" lon="6.56558">
        <ele>47.088</ele>
        <time>2012-11-24T12:16:19Z</time>
      </trkpt>
      <trkpt lat="43.49273" lon="6.56564">
        <ele>47.409</ele>
        <time>2012-11-24T12:16:36Z</time>
      </trkpt>
      <trkpt lat="43.49273" lon="6.56564">
        <ele>47.87</ele>
        <time>2012-11-24T12:16:42Z</time>
      </trkpt>
      <trkpt lat="43.49292" lon="6.56592">
        <ele>48.007</ele>
        <time>2012-11-24T12:16:47Z</time>
      </trkpt>
      <trkpt lat="43.49305" lon="6.56575">
        <ele>48.359</ele>
        <time>2012-11-24T12:16:52Z</time>
      </trkpt>
      <trkpt lat="43.49305" lon="6.56575">
        <ele>49.025</ele>
        <time>2012-11-24T12:16:57Z</time>
      </trkpt>
      <trkpt lat="43.49335" lon="6.56564">
        <ele>49.783</ele>
        <time>2012-11-24T12:17:05Z</time>
      </trkpt>
      <trkpt lat="43.49404" lon="6.56585">
        <ele>50.658</ele>
        <time>2012-11-24T12:17:17Z</time>
      </trkpt>
      <trkpt lat="43.49436" lon="6.56594">
        <ele>51.042</ele>
        <time>2012-11-24T12:17:25Z</time>
      </trkpt>
      <trkpt lat="43.49479" lon="6.56601">
        <ele>51.712</ele>
        <time>2012-11-24T12:17:36Z</time>
      </trkpt>
      <trkpt lat="43.49527" lon="6.56594">
        <ele>52.885</ele>
        <time>2012-11-24T12:17:48Z</time>
      </trkpt>
      <trkpt lat="43.49554" lon="6.56589">
        <ele>53.672</ele>
        <time>2012-11-24T12:17:55Z</time>
      </trkpt>
      <trkpt lat="43.49597" lon="6.56588">
        <ele>54.32</ele>
        <time>2012-11-24T12:18:05Z</time>
      </trkpt>
      <trkpt lat="43.49643" lon="6.56588">
        <ele>54.523</ele>
        <time>2012-11-24T12:18:16Z</time>
      </trkpt>
      <trkpt lat="43.49688" lon="6.56585">
        <ele>55.221</ele>
        <time>2012-11-24T12:18:26Z</time>
      </trkpt>
      <trkpt lat="43.49739" lon="6.5657">
        <ele>55.493</ele>
        <time>2012-11-24T12:18:38Z</time>
      </trkpt>
      <trkpt lat="43.49783" lon="6.56556">
        <ele>56.037</ele>
        <time>2012-11-24T12:18:48Z</time>
      </trkpt>
      <trkpt lat="43.49813" lon="6.56546">
        <ele>56.801</ele>
        <time>2012-11-24T12:18:55Z</time>
      </trkpt>
      <trkpt lat="43.49867" lon="6.5653">
        <ele>57.629</ele>
        <time>2012-11-24T12:19:07Z</time>
      </trkpt>
      <trkpt lat="43.49929" lon="6.56523">
        <ele>58.47</ele>
        <time>2012-11-24T12:19:19Z</time>
      </trkpt>
      <trkpt lat="43.49967" lon="6.56525">
        <ele>59.203</ele>
        <time>2012-11-24T12:19:27Z</time>
      </trkpt>
      <trkpt lat="43.50003" lon="6.56536">
        <ele>59.808</ele>
        <time>2012-11-24T12:19:35Z</time>
      </trkpt>
      <trkpt lat="43.50035" lon="6.56546">
        <ele>60.613</ele>
        <time>2012-11-24T12:19:43Z</time>
      </trkpt>
      <trkpt lat="43.50072" lon="6.5658">
        <ele>61.638</ele>
        <time>2012-11-24T12:19:53Z</time>
      </trkpt>
      <trkpt lat="43.50111" lon="6.56617">
        <ele>62.88</ele>
        <time>2012-11-24T12:20:05Z</time>
      </trkpt>
      <trkpt lat="43.50134" lon="6.56634">
        <ele>63.701</ele>
        <time>2012-11-24T12:20:12Z</time>
      </trkpt>
      <trkpt lat="43.50163" lon="6.56646">
        <ele>64.467</ele>
        <time>2012-11-24T12:20:20Z</time>
      </trkpt>
      <trkpt lat="43.50194" lon="6.56641">
        <ele>65.635</ele>
        <time>2012-11-24T12:20:29Z</time>
      </trkpt>
      <trkpt lat="43.50228" lon="6.5663">
        <ele>66.489</ele>
        <time>2012-11-24T12:20:39Z</time>
      </trkpt>
      <trkpt lat="43.50254" lon="6.5662">
        <ele>67.874</ele>
        <time>2012-11-24T12:20:48Z</time>
      </trkpt>
      <trkpt lat="43.50284" lon="6.56605">
        <ele>69.28</ele>
        <time>2012-11-24T12:20:59Z</time>
      </trkpt>
      <trkpt lat="43.50319" lon="6.56592">
        <ele>70.261</ele>
        <time>2012-11-24T12:21:09Z</time>
      </trkpt>
      <trkpt lat="43.50352" lon="6.56595">
        <ele>70.933</ele>
        <time>2012-11-24T12:21:19Z</time>
      </trkpt>
      <trkpt lat="43.50381" lon="6.56599">
        <ele>71.41</ele>
        <time>2012-11-24T12:21:28Z</time>
      </trkpt>
      <trkpt lat="43.50413" lon="6.56602">
        <ele>72.406</ele>
        <time>2012-11-24T12:21:37Z</time>
      </trkpt>
      <trkpt lat="43.50434" lon="6.56603">
        <ele>72.777</ele>
        <time>2012-11-24T12:21:44Z</time>
      </trkpt>
      <trkpt lat="43.50461" lon="6.56605">
        <ele>73.135</ele>
        <time>2012-11-24T12:21:52Z</time>
      </trkpt>
      <trkpt lat="43.50496" lon="6.5661">
        <ele>73.723</ele>
        <time>2012-11-24T12:22:01Z</time>
      </trkpt>
      <trkpt lat="43.5054" lon="6.56615">
        <ele>74.747</ele>
        <time>2012-11-24T12:22:12Z</time>
      </trkpt>
      <trkpt lat="43.50576" lon="6.56624">
        <ele>75.51</ele>
        <time>2012-11-24T12:22:21Z</time>
      </trkpt>
      <trkpt lat="43.50611" lon="6.56634">
        <ele>76.644</ele>
        <time>2012-11-24T12:22:30Z</time>
      </trkpt>
      <trkpt lat="43.50645" lon="6.56642">
        <ele>77.084</ele>
        <time>2012-11-24T12:22:39Z</time>
      </trkpt>
      <trkpt lat="43.50677" lon="6.56645">
        <ele>78.022</ele>
        <time>2012-11-24T12:22:48Z</time>
      </trkpt>
      <trkpt lat="43.50712" lon="6.56641">
        <ele>78.604</ele>
        <time>2012-11-24T12:22:58Z</time>
      </trkpt>
      <trkpt lat="43.50746" lon="6.56631">
        <ele>79.088</ele>
        <time>2012-11-24T12:23:07Z</time>
      </trkpt>
      <trkpt lat="43.50788" lon="6.56612">
        <ele>80.087</ele>
        <time>2012-11-24T12:23:19Z</time>
      </trkpt>
      <trkpt lat="43.50818" lon="6.56593">
        <ele>80.732</ele>
        <time>2012-11-24T12:23:28Z</time>
      </trkpt>
      <trkpt lat="43.50849" lon="6.56571">
        <ele>81.303</ele>
        <time>2012-11-24T12:23:37Z</time>
      </trkpt>
      <trkpt lat="43.50884" lon="6.56548">
        <ele>81.992</ele>
        <time>2012-11-24T12:23:47Z</time>
      </trkpt>
      <trkpt lat="43.50912" lon="6.56543">
        <ele>83.182</ele>
        <time>2012-11-24T12:23:54Z</time>
      </trkpt>
      <trkpt lat="43.50946" lon="6.56552">
        <ele>84.48</ele>
        <time>2012-11-24T12:24:03Z</time>
      </trkpt>
      <trkpt lat="43.50976" lon="6.56565">
        <ele>85.517</ele>
        <time>2012-11-24T12:24:11Z</time>
      </trkpt>
      <trkpt lat="43.51007" lon="6.56584">
        <ele>86.522</ele>
        <time>2012-11-24T12:24:19Z</time>
      </trkpt>
      <trkpt lat="43.51038" lon="6.5661">
        <ele>86.85</ele>
        <time>2012-11-24T12:24:27Z</time>
      </trkpt>
      <trkpt lat="43.51056" lon="6.5662">
        <ele>87.317</ele>
        <time>2012-11-24T12:24:32Z</time>
      </trkpt>
      <trkpt lat="43.51065" lon="6.56622">
        <ele>87.485</ele>
        <time>2012-11-24T12:24:34Z</time>
      </trkpt>
      <trkpt lat="43.51081" lon="6.56626">
        <ele>87.892</ele>
        <time>2012-11-24T12:24:38Z</time>
      </trkpt>
      <trkpt lat="43.5112" lon="6.56623">
        <ele>89.198</ele>
        <time>2012-11-24T12:24:48Z</time>
      </trkpt>
      <trkpt lat="43.5115" lon="6.56615">
        <ele>90.812</ele>
        <time>2012-11-24T12:24:56Z</time>
      </trkpt>
      <trkpt lat="43.51176" lon="6.56612">
        <ele>93.027</ele>
        <time>2012-11-24T12:25:03Z</time>
      </trkpt>
      <trkpt lat="43.51208" lon="6.56619">
        <ele>96.087</ele>
        <time>2012-11-24T12:25:12Z</time>
      </trkpt>
      <trkpt lat="43.5125" lon="6.56633">
        <ele>98.404</ele>
        <time>2012-11-24T12:25:24Z</time>
      </trkpt>
      <trkpt lat="43.51286" lon="6.56646">
        <ele>99.815</ele>
        <time>2012-11-24T12:25:35Z</time>
      </trkpt>
      <trkpt lat="43.51319" lon="6.56652">
        <ele>100.942</ele>
        <time>2012-11-24T12:25:45Z</time>
      </trkpt>
      <trkpt lat="43.51341" lon="6.56648">
        <ele>101.21</ele>
        <time>2012-11-24T12:25:52Z</time>
      </trkpt>
      <trkpt lat="43.51366" lon="6.56634">
        <ele>100.738</ele>
        <time>2012-11-24T12:25:59Z</time>
      </trkpt>
      <trkpt lat="43.51398" lon="6.56613">
        <ele>99.034</ele>
        <time>2012-11-24T12:26:05Z</time>
      </trkpt>
      <trkpt lat="43.51458" lon="6.56583">
        <ele>97.437</ele>
        <time>2012-11-24T12:26:14Z</time>
      </trkpt>
      <trkpt lat="43.51522" lon="6.56567">
        <ele>96.677</ele>
        <time>2012-11-24T12:26:24Z</time>
      </trkpt>
      <trkpt lat="43.51557" lon="6.56559">
        <ele>96.859</ele>
        <time>2012-11-24T12:26:30Z</time>
      </trkpt>
      <trkpt lat="43.51591" lon="6.56553">
        <ele>96.995</ele>
        <time>2012-11-24T12:26:36Z</time>
      </trkpt>
      <trkpt lat="43.51647" lon="6.5654">
        <ele>97.036</ele>
        <time>2012-11-24T12:26:45Z</time>
      </trkpt>
      <trkpt lat="43.51689" lon="6.56527">
        <ele>97.2</ele>
        <time>2012-11-24T12:26:53Z</time>
      </trkpt>
      <trkpt lat="43.51751" lon="6.56504">
        <ele>97.695</ele>
        <time>2012-11-24T12:27:05Z</time>
      </trkpt>
      <trkpt lat="43.51801" lon="6.56475">
        <ele>99.011</ele>
        <time>2012-11-24T12:27:15Z</time>
      </trkpt>
      <trkpt lat="43.51834" lon="6.56455">
        <ele>100.365</ele>
        <time>2012-11-24T12:27:23Z</time>
      </trkpt>
      <trkpt lat="43.51874" lon="6.5643">
        <ele>102.172</ele>
        <time>2012-11-24T12:27:33Z</time>
      </trkpt>
      <trkpt lat="43.5191" lon="6.56407">
        <ele>103.705</ele>
        <time>2012-11-24T12:27:42Z</time>
      </trkpt>
      <trkpt lat="43.51941" lon="6.56393">
        <ele>104.759</ele>
        <time>2012-11-24T12:27:50Z</time>
      </trkpt>
      <trkpt lat="43.5198" lon="6.56373">
        <ele>105.633</ele>
        <time>2012-11-24T12:28:00Z</time>
      </trkpt>
      <trkpt lat="43.52027" lon="6.56361">
        <ele>107.7</ele>
        <time>2012-11-24T12:28:11Z</time>
      </trkpt>
      <trkpt lat="43.52061" lon="6.56357">
        <ele>108.935</ele>
        <time>2012-11-24T12:28:20Z</time>
      </trkpt>
      <trkpt lat="43.52094" lon="6.56356">
        <ele>108.714</ele>
        <time>2012-11-24T12:28:29Z</time>
      </trkpt>
      <trkpt lat="43.52126" lon="6.56368">
        <ele>107.803</ele>
        <time>2012-11-24T12:28:36Z</time>
      </trkpt>
      <trkpt lat="43.52175" lon="6.56387">
        <ele>106.198</ele>
        <time>2012-11-24T12:28:45Z</time>
      </trkpt>
      <trkpt lat="43.52208" lon="6.56399">
        <ele>105.65</ele>
        <time>2012-11-24T12:28:52Z</time>
      </trkpt>
      <trkpt lat="43.52237" lon="6.5641">
        <ele>105.909</ele>
        <time>2012-11-24T12:28:59Z</time>
      </trkpt>
      <trkpt lat="43.52265" lon="6.56421">
        <ele>106.772</ele>
        <time>2012-11-24T12:29:06Z</time>
      </trkpt>
      <trkpt lat="43.52301" lon="6.56436">
        <ele>107.857</ele>
        <time>2012-11-24T12:29:14Z</time>
      </trkpt>
      <trkpt lat="43.52334" lon="6.56449">
        <ele>108.523</ele>
        <time>2012-11-24T12:29:22Z</time>
      </trkpt>
      <trkpt lat="43.5237" lon="6.56463">
        <ele>109.065</ele>
        <time>2012-11-24T12:29:31Z</time>
      </trkpt>
      <trkpt lat="43.52374" lon="6.56464">
        <ele>109.179</ele>
        <time>2012-11-24T12:29:34Z</time>
      </trkpt>
      <trkpt lat="43.52419" lon="6.56482">
        <ele>110.506</ele>
        <time>2012-11-24T12:29:44Z</time>
      </trkpt>
      <trkpt lat="43.52454" lon="6.56495">
        <ele>111.251</ele>
        <time>2012-11-24T12:29:53Z</time>
      </trkpt>
      <trkpt lat="43.52497" lon="6.56512">
        <ele>112.45</ele>
        <time>2012-11-24T12:30:04Z</time>
      </trkpt>
      <trkpt lat="43.5253" lon="6.56525">
        <ele>113.384</ele>
        <time>2012-11-24T12:30:13Z</time>
      </trkpt>
      <trkpt lat="43.52561" lon="6.56537">
        <ele>114.267</ele>
        <time>2012-11-24T12:30:21Z</time>
      </trkpt>
      <trkpt lat="43.52606" lon="6.56554">
        <ele>115.555</ele>
        <time>2012-11-24T12:30:33Z</time>
      </trkpt>
      <trkpt lat="43.52645" lon="6.56568">
        <ele>116.252</ele>
        <time>2012-11-24T12:30:43Z</time>
      </trkpt>
      <trkpt lat="43.52683" lon="6.56582">
        <ele>116.057</ele>
        <time>2012-11-24T12:30:51Z</time>
      </trkpt>
      <trkpt lat="43.52712" lon="6.56595">
        <ele>116.555</ele>
        <time>2012-11-24T12:30:57Z</time>
      </trkpt>
      <trkpt lat="43.52754" lon="6.56608">
        <ele>118.181</ele>
        <time>2012-11-24T12:31:07Z</time>
      </trkpt>
      <trkpt lat="43.52793" lon="6.56621">
        <ele>119.349</ele>
        <time>2012-11-24T12:31:17Z</time>
      </trkpt>
      <trkpt lat="43.52831" lon="6.56633">
        <ele>120.45</ele>
        <time>2012-11-24T12:31:27Z</time>
      </trkpt>
      <trkpt lat="43.52855" lon="6.56639">
        <ele>121.152</ele>
        <time>2012-11-24T12:31:34Z</time>
      </trkpt>
      <trkpt lat="43.5289" lon="6.56649">
        <ele>121.747</ele>
        <time>2012-11-24T12:31:43Z</time>
      </trkpt>
      <trkpt lat="43.52925" lon="6.56659">
        <ele>122.023</ele>
        <time>2012-11-24T12:31:52Z</time>
      </trkpt>
      <trkpt lat="43.52953" lon="6.56667">
        <ele>122.405</ele>
        <time>2012-11-24T12:31:59Z</time>
      </trkpt>
      <trkpt lat="43.52986" lon="6.56676">
        <ele>122.911</ele>
        <time>2012-11-24T12:32:07Z</time>
      </trkpt>
      <trkpt lat="43.53017" lon="6.56685">
        <ele>123.759</ele>
        <time>2012-11-24T12:32:15Z</time>
      </trkpt>
      <trkpt lat="43.53049" lon="6.56696">
        <ele>125.124</ele>
        <time>2012-11-24T12:32:24Z</time>
      </trkpt>
      <trkpt lat="43.53078" lon="6.56703">
        <ele>126.842</ele>
        <time>2012-11-24T12:32:32Z</time>
      </trkpt>
      <trkpt lat="43.531" lon="6.56708">
        <ele>127.99</ele>
        <time>2012-11-24T12:32:39Z</time>
      </trkpt>
      <trkpt lat="43.53135" lon="6.56717">
        <ele>130.171</ele>
        <time>2012-11-24T12:32:50Z</time>
      </trkpt>
      <trkpt lat="43.53178" lon="6.56729">
        <ele>132.351</ele>
        <time>2012-11-24T12:33:03Z</time>
      </trkpt>
      <trkpt lat="43.53207" lon="6.56738">
        <ele>133.844</ele>
        <time>2012-11-24T12:33:12Z</time>
      </trkpt>
      <trkpt lat="43.53232" lon="6.56751">
        <ele>135.246</ele>
        <time>2012-11-24T12:33:20Z</time>
      </trkpt>
      <trkpt lat="43.53247" lon="6.56764">
        <ele>136.425</ele>
        <time>2012-11-24T12:33:26Z</time>
      </trkpt>
      <trkpt lat="43.53267" lon="6.56788">
        <ele>137.714</ele>
        <time>2012-11-24T12:33:35Z</time>
      </trkpt>
      <trkpt lat="43.53285" lon="6.56822">
        <ele>138.864</ele>
        <time>2012-11-24T12:33:45Z</time>
      </trkpt>
      <trkpt lat="43.533" lon="6.5686">
        <ele>139.915</ele>
        <time>2012-11-24T12:33:55Z</time>
      </trkpt>
      <trkpt lat="43.53309" lon="6.56893">
        <ele>140.519</ele>
        <time>2012-11-24T12:34:04Z</time>
      </trkpt>
      <trkpt lat="43.53315" lon="6.56929">
        <ele>140.426</ele>
        <time>2012-11-24T12:34:12Z</time>
      </trkpt>
      <trkpt lat="43.5332" lon="6.56962">
        <ele>140.656</ele>
        <time>2012-11-24T12:34:19Z</time>
      </trkpt>
      <trkpt lat="43.53327" lon="6.57019">
        <ele>141.691</ele>
        <time>2012-11-24T12:34:30Z</time>
      </trkpt>
      <trkpt lat="43.53339" lon="6.57073">
        <ele>143.261</ele>
        <time>2012-11-24T12:34:41Z</time>
      </trkpt>
      <trkpt lat="43.53357" lon="6.57114">
        <ele>145.466</ele>
        <time>2012-11-24T12:34:51Z</time>
      </trkpt>
      <trkpt lat="43.53378" lon="6.57143">
        <ele>147.03</ele>
        <time>2012-11-24T12:35:00Z</time>
      </trkpt>
      <trkpt lat="43.53396" lon="6.57162">
        <ele>148.463</ele>
        <time>2012-11-24T12:35:07Z</time>
      </trkpt>
      <trkpt lat="43.53422" lon="6.57185">
        <ele>150.021</ele>
        <time>2012-11-24T12:35:17Z</time>
      </trkpt>
      <trkpt lat="43.5345" lon="6.57209">
        <ele>151.851</ele>
        <time>2012-11-24T12:35:28Z</time>
      </trkpt>
      <trkpt lat="43.53473" lon="6.57228">
        <ele>153.636</ele>
        <time>2012-11-24T12:35:37Z</time>
      </trkpt>
      <trkpt lat="43.53504" lon="6.57254">
        <ele>155.568</ele>
        <time>2012-11-24T12:35:49Z</time>
      </trkpt>
      <trkpt lat="43.53532" lon="6.57277">
        <ele>157.504</ele>
        <time>2012-11-24T12:36:00Z</time>
      </trkpt>
      <trkpt lat="43.53557" lon="6.57295">
        <ele>159.149</ele>
        <time>2012-11-24T12:36:10Z</time>
      </trkpt>
      <trkpt lat="43.53581" lon="6.57309">
        <ele>160.794</ele>
        <time>2012-11-24T12:36:19Z</time>
      </trkpt>
      <trkpt lat="43.53609" lon="6.57324">
        <ele>162.983</ele>
        <time>2012-11-24T12:36:30Z</time>
      </trkpt>
      <trkpt lat="43.53633" lon="6.57333">
        <ele>164.725</ele>
        <time>2012-11-24T12:36:39Z</time>
      </trkpt>
      <trkpt lat="43.53658" lon="6.57339">
        <ele>166.373</ele>
        <time>2012-11-24T12:36:48Z</time>
      </trkpt>
      <trkpt lat="43.53689" lon="6.57346">
        <ele>167.587</ele>
        <time>2012-11-24T12:36:59Z</time>
      </trkpt>
      <trkpt lat="43.5371" lon="6.5735">
        <ele>168.466</ele>
        <time>2012-11-24T12:37:07Z</time>
      </trkpt>
      <trkpt lat="43.53738" lon="6.57356">
        <ele>169.71</ele>
        <time>2012-11-24T12:37:17Z</time>
      </trkpt>
      <trkpt lat="43.53774" lon="6.57363">
        <ele>171.535</ele>
        <time>2012-11-24T12:37:30Z</time>
      </trkpt>
      <trkpt lat="43.53803" lon="6.57369">
        <ele>172.79</ele>
        <time>2012-11-24T12:37:40Z</time>
      </trkpt>
      <trkpt lat="43.53827" lon="6.57374">
        <ele>174.414</ele>
        <time>2012-11-24T12:37:49Z</time>
      </trkpt>
      <trkpt lat="43.53851" lon="6.57379">
        <ele>175.992</ele>
        <time>2012-11-24T12:37:58Z</time>
      </trkpt>
      <trkpt lat="43.53873" lon="6.57384">
        <ele>177.72</ele>
        <time>2012-11-24T12:38:06Z</time>
      </trkpt>
      <trkpt lat="43.53895" lon="6.57389">
        <ele>179.356</ele>
        <time>2012-11-24T12:38:14Z</time>
      </trkpt>
      <trkpt lat="43.53926" lon="6.57397">
        <ele>182.04</ele>
        <time>2012-11-24T12:38:26Z</time>
      </trkpt>
      <trkpt lat="43.53949" lon="6.57403">
        <ele>184.47</ele>
        <time>2012-11-24T12:38:35Z</time>
      </trkpt>
      <trkpt lat="43.53971" lon="6.5741">
        <ele>186.342</ele>
        <time>2012-11-24T12:38:44Z</time>
      </trkpt>
      <trkpt lat="43.53975" lon="6.57411">
        <ele>186.796</ele>
        <time>2012-11-24T12:38:46Z</time>
      </trkpt>
      <trkpt lat="43.53988" lon="6.57416">
        <ele>188.041</ele>
        <time>2012-11-24T12:38:53Z</time>
      </trkpt>
      <trkpt lat="43.54012" lon="6.57436">
        <ele>190.226</ele>
        <time>2012-11-24T12:39:04Z</time>
      </trkpt>
      <trkpt lat="43.54034" lon="6.57459">
        <ele>192.016</ele>
        <time>2012-11-24T12:39:16Z</time>
      </trkpt>
      <trkpt lat="43.54056" lon="6.57476">
        <ele>193.107</ele>
        <time>2012-11-24T12:39:27Z</time>
      </trkpt>
      <trkpt lat="43.54065" lon="6.57482">
        <ele>193.574</ele>
        <time>2012-11-24T12:39:33Z</time>
      </trkpt>
      <trkpt lat="43.54076" lon="6.5749">
        <ele>193.924</ele>
        <time>2012-11-24T12:39:41Z</time>
      </trkpt>
      <trkpt lat="43.54083" lon="6.57495">
        <ele>194.178</ele>
        <time>2012-11-24T12:39:47Z</time>
      </trkpt>
      <trkpt lat="43.54083" lon="6.57495">
        <ele>194.299</ele>
        <time>2012-11-24T12:42:44Z</time>
      </trkpt>
      <trkpt lat="43.54092" lon="6.57497">
        <ele>194.425</ele>
        <time>2012-11-24T12:42:50Z</time>
      </trkpt>
      <trkpt lat="43.54103" lon="6.575">
        <ele>194.838</ele>
        <time>2012-11-24T12:42:57Z</time>
      </trkpt>
      <trkpt lat="43.54118" lon="6.57502">
        <ele>195.239</ele>
        <time>2012-11-24T12:43:04Z</time>
      </trkpt>
      <trkpt lat="43.54132" lon="6.57503">
        <ele>195.699</ele>
        <time>2012-11-24T12:43:11Z</time>
      </trkpt>
      <trkpt lat="43.54144" lon="6.57505">
        <ele>196.163</ele>
        <time>2012-11-24T12:43:17Z</time>
      </trkpt>
      <trkpt lat="43.5416" lon="6.57508">
        <ele>196.685</ele>
        <time>2012-11-24T12:43:24Z</time>
      </trkpt>
      <trkpt lat="43.54175" lon="6.57511">
        <ele>196.936</ele>
        <time>2012-11-24T12:43:31Z</time>
      </trkpt>
      <trkpt lat="43.54193" lon="6.57512">
        <ele>197.251</ele>
        <time>2012-11-24T12:43:37Z</time>
      </trkpt>
      <trkpt lat="43.54227" lon="6.57518">
        <ele>197.494</ele>
        <time>2012-11-24T12:43:46Z</time>
      </trkpt>
      <trkpt lat="43.54259" lon="6.57523">
        <ele>196.485</ele>
        <time>2012-11-24T12:43:53Z</time>
      </trkpt>
      <trkpt lat="43.54283" lon="6.57525">
        <ele>194.916</ele>
        <time>2012-11-24T12:43:57Z</time>
      </trkpt>
      <trkpt lat="43.54319" lon="6.57514">
        <ele>191.168</ele>
        <time>2012-11-24T12:44:02Z</time>
      </trkpt>
      <trkpt lat="43.54335" lon="6.57502">
        <ele>189.399</ele>
        <time>2012-11-24T12:44:04Z</time>
      </trkpt>
      <trkpt lat="43.54393" lon="6.57418">
        <ele>183.336</ele>
        <time>2012-11-24T12:44:12Z</time>
      </trkpt>
      <trkpt lat="43.54407" lon="6.57394">
        <ele>181.227</ele>
        <time>2012-11-24T12:44:14Z</time>
      </trkpt>
      <trkpt lat="43.54434" lon="6.57358">
        <ele>178.433</ele>
        <time>2012-11-24T12:44:17Z</time>
      </trkpt>
      <trkpt lat="43.54452" lon="6.57341">
        <ele>177.39</ele>
        <time>2012-11-24T12:44:19Z</time>
      </trkpt>
      <trkpt lat="43.54469" lon="6.57318">
        <ele>176.476</ele>
        <time>2012-11-24T12:44:21Z</time>
      </trkpt>
      <trkpt lat="43.54524" lon="6.57266">
        <ele>172.682</ele>
        <time>2012-11-24T12:44:27Z</time>
      </trkpt>
      <trkpt lat="43.54534" lon="6.57259">
        <ele>172.224</ele>
        <time>2012-11-24T12:44:28Z</time>
      </trkpt>
      <trkpt lat="43.54578" lon="6.57238">
        <ele>167.714</ele>
        <time>2012-11-24T12:44:32Z</time>
      </trkpt>
      <trkpt lat="43.54612" lon="6.57248">
        <ele>165.097</ele>
        <time>2012-11-24T12:44:35Z</time>
      </trkpt>
      <trkpt lat="43.54622" lon="6.57257">
        <ele>164.503</ele>
        <time>2012-11-24T12:44:36Z</time>
      </trkpt>
      <trkpt lat="43.54685" lon="6.57314">
        <ele>162.842</ele>
        <time>2012-11-24T12:44:43Z</time>
      </trkpt>
      <trkpt lat="43.54729" lon="6.57359">
        <ele>162.323</ele>
        <time>2012-11-24T12:44:49Z</time>
      </trkpt>
      <trkpt lat="43.54759" lon="6.5739">
        <ele>162.624</ele>
        <time>2012-11-24T12:44:54Z</time>
      </trkpt>
      <trkpt lat="43.5477" lon="6.574">
        <ele>163.112</ele>
        <time>2012-11-24T12:44:56Z</time>
      </trkpt>
      <trkpt lat="43.54794" lon="6.57403">
        <ele>165.714</ele>
        <time>2012-11-24T12:45:01Z</time>
      </trkpt>
      <trkpt lat="43.54803" lon="6.574">
        <ele>166.38</ele>
        <time>2012-11-24T12:45:03Z</time>
      </trkpt>
      <trkpt lat="43.54853" lon="6.57385">
        <ele>169.839</ele>
        <time>2012-11-24T12:45:13Z</time>
      </trkpt>
      <trkpt lat="43.54879" lon="6.57375">
        <ele>172.061</ele>
        <time>2012-11-24T12:45:19Z</time>
      </trkpt>
      <trkpt lat="43.54895" lon="6.57367">
        <ele>173.421</ele>
        <time>2012-11-24T12:45:23Z</time>
      </trkpt>
      <trkpt lat="43.54916" lon="6.57349">
        <ele>175.866</ele>
        <time>2012-11-24T12:45:30Z</time>
      </trkpt>
      <trkpt lat="43.54934" lon="6.57336">
        <ele>177.339</ele>
        <time>2012-11-24T12:45:38Z</time>
      </trkpt>
      <trkpt lat="43.54952" lon="6.57324">
        <ele>179.143</ele>
        <time>2012-11-24T12:45:46Z</time>
      </trkpt>
      <trkpt lat="43.54964" lon="6.57313">
        <ele>180.22</ele>
        <time>2012-11-24T12:45:53Z</time>
      </trkpt>
      <trkpt lat="43.54979" lon="6.57294">
        <ele>181.832</ele>
        <time>2012-11-24T12:46:03Z</time>
      </trkpt>
      <trkpt lat="43.54993" lon="6.57279">
        <ele>183.111</ele>
        <time>2012-11-24T12:46:11Z</time>
      </trkpt>
      <trkpt lat="43.55004" lon="6.57271">
        <ele>183.701</ele>
        <time>2012-11-24T12:46:17Z</time>
      </trkpt>
      <trkpt lat="43.55005" lon="6.5727">
        <ele>184.029</ele>
        <time>2012-11-24T12:46:18Z</time>
      </trkpt>
      <trkpt lat="43.55014" lon="6.57267">
        <ele>184.799</ele>
        <time>2012-11-24T12:46:22Z</time>
      </trkpt>
      <trkpt lat="43.55028" lon="6.57264">
        <ele>185.703</ele>
        <time>2012-11-24T12:46:29Z</time>
      </trkpt>
      <trkpt lat="43.55045" lon="6.57272">
        <ele>186.906</ele>
        <time>2012-11-24T12:46:36Z</time>
      </trkpt>
      <trkpt lat="43.55058" lon="6.57287">
        <ele>188.355</ele>
        <time>2012-11-24T12:46:45Z</time>
      </trkpt>
      <trkpt lat="43.55059" lon="6.57289">
        <ele>188.392</ele>
        <time>2012-11-24T12:46:46Z</time>
      </trkpt>
      <trkpt lat="43.55071" lon="6.57311">
        <ele>189.26</ele>
        <time>2012-11-24T12:46:55Z</time>
      </trkpt>
      <trkpt lat="43.5508" lon="6.57327">
        <ele>190.035</ele>
        <time>2012-11-24T12:47:02Z</time>
      </trkpt>
      <trkpt lat="43.5509" lon="6.5734">
        <ele>190.689</ele>
        <time>2012-11-24T12:47:09Z</time>
      </trkpt>
      <trkpt lat="43.55099" lon="6.57347">
        <ele>191.272</ele>
        <time>2012-11-24T12:47:15Z</time>
      </trkpt>
      <trkpt lat="43.55103" lon="6.57349">
        <ele>191.307</ele>
        <time>2012-11-24T12:47:19Z</time>
      </trkpt>
      <trkpt lat="43.55106" lon="6.57351">
        <ele>190.585</ele>
        <time>2012-11-24T12:58:53Z</time>
      </trkpt>
      <trkpt lat="43.55107" lon="6.57351">
        <ele>190.553</ele>
        <time>2012-11-24T12:58:54Z</time>
      </trkpt>
      <trkpt lat="43.55112" lon="6.57349">
        <ele>190.798</ele>
        <time>2012-11-24T12:58:59Z</time>
      </trkpt>
      <trkpt lat="43.55124" lon="6.57331">
        <ele>191.635</ele>
        <time>2012-11-24T12:59:06Z</time>
      </trkpt>
      <trkpt lat="43.55143" lon="6.57308">
        <ele>192.639</ele>
        <time>2012-11-24T12:59:13Z</time>
      </trkpt>
      <trkpt lat="43.55169" lon="6.57293">
        <ele>194.169</ele>
        <time>2012-11-24T12:59:22Z</time>
      </trkpt>
      <trkpt lat="43.5518" lon="6.57277">
        <ele>194.971</ele>
        <time>2012-11-24T12:59:27Z</time>
      </trkpt>
      <trkpt lat="43.55191" lon="6.57247">
        <ele>196.496</ele>
        <time>2012-11-24T12:59:35Z</time>
      </trkpt>
      <trkpt lat="43.55206" lon="6.57214">
        <ele>198.319</ele>
        <time>2012-11-24T12:59:43Z</time>
      </trkpt>
      <trkpt lat="43.55235" lon="6.57189">
        <ele>200.266</ele>
        <time>2012-11-24T12:59:53Z</time>
      </trkpt>
      <trkpt lat="43.55257" lon="6.57177">
        <ele>202.116</ele>
        <time>2012-11-24T13:00:01Z</time>
      </trkpt>
      <trkpt lat="43.55282" lon="6.57165">
        <ele>203.812</ele>
        <time>2012-11-24T13:00:10Z</time>
      </trkpt>
      <trkpt lat="43.55285" lon="6.57164">
        <ele>204.059</ele>
        <time>2012-11-24T13:00:11Z</time>
      </trkpt>
      <trkpt lat="43.55285" lon="6.57171">
        <ele>204.922</ele>
        <time>2012-11-24T13:00:15Z</time>
      </trkpt>
      <trkpt lat="43.55285" lon="6.57172">
        <ele>205.152</ele>
        <time>2012-11-24T13:00:16Z</time>
      </trkpt>
      <trkpt lat="43.55273" lon="6.57184">
        <ele>205.908</ele>
        <time>2012-11-24T13:00:23Z</time>
      </trkpt>
      <trkpt lat="43.55261" lon="6.57196">
        <ele>206.068</ele>
        <time>2012-11-24T13:00:30Z</time>
      </trkpt>
      <trkpt lat="43.55251" lon="6.57207">
        <ele>206.343</ele>
        <time>2012-11-24T13:00:36Z</time>
      </trkpt>
      <trkpt lat="43.55237" lon="6.57227">
        <ele>207.254</ele>
        <time>2012-11-24T13:00:44Z</time>
      </trkpt>
      <trkpt lat="43.55224" lon="6.57242">
        <ele>208.278</ele>
        <time>2012-11-24T13:00:52Z</time>
      </trkpt>
      <trkpt lat="43.55211" lon="6.57256">
        <ele>209.584</ele>
        <time>2012-11-24T13:00:59Z</time>
      </trkpt>
      <trkpt lat="43.55204" lon="6.57275">
        <ele>210.644</ele>
        <time>2012-11-24T13:01:06Z</time>
      </trkpt>
      <trkpt lat="43.552" lon="6.57298">
        <ele>211.852</ele>
        <time>2012-11-24T13:01:14Z</time>
      </trkpt>
      <trkpt lat="43.55195" lon="6.5732">
        <ele>212.991</ele>
        <time>2012-11-24T13:01:22Z</time>
      </trkpt>
      <trkpt lat="43.55186" lon="6.57339">
        <ele>213.927</ele>
        <time>2012-11-24T13:01:29Z</time>
      </trkpt>
      <trkpt lat="43.55185" lon="6.57359">
        <ele>214.651</ele>
        <time>2012-11-24T13:01:36Z</time>
      </trkpt>
      <trkpt lat="43.55189" lon="6.57375">
        <ele>215.425</ele>
        <time>2012-11-24T13:01:42Z</time>
      </trkpt>
      <trkpt lat="43.55196" lon="6.57393">
        <ele>216.08</ele>
        <time>2012-11-24T13:01:50Z</time>
      </trkpt>
      <trkpt lat="43.55204" lon="6.5742">
        <ele>217.693</ele>
        <time>2012-11-24T13:02:00Z</time>
      </trkpt>
      <trkpt lat="43.55208" lon="6.57438">
        <ele>218.929</ele>
        <time>2012-11-24T13:02:07Z</time>
      </trkpt>
      <trkpt lat="43.55208" lon="6.57441">
        <ele>219.119</ele>
        <time>2012-11-24T13:02:08Z</time>
      </trkpt>
      <trkpt lat="43.552" lon="6.57454">
        <ele>220.412</ele>
        <time>2012-11-24T13:02:15Z</time>
      </trkpt>
      <trkpt lat="43.55189" lon="6.57467">
        <ele>221.583</ele>
        <time>2012-11-24T13:02:22Z</time>
      </trkpt>
      <trkpt lat="43.55179" lon="6.5748">
        <ele>222.375</ele>
        <time>2012-11-24T13:02:28Z</time>
      </trkpt>
      <trkpt lat="43.55166" lon="6.57494">
        <ele>223.504</ele>
        <time>2012-11-24T13:02:35Z</time>
      </trkpt>
      <trkpt lat="43.55153" lon="6.57514">
        <ele>224.41</ele>
        <time>2012-11-24T13:02:44Z</time>
      </trkpt>
      <trkpt lat="43.55141" lon="6.57532">
        <ele>225.025</ele>
        <time>2012-11-24T13:02:52Z</time>
      </trkpt>
      <trkpt lat="43.55135" lon="6.57541">
        <ele>225.587</ele>
        <time>2012-11-24T13:02:58Z</time>
      </trkpt>
      <trkpt lat="43.55126" lon="6.57544">
        <ele>225.877</ele>
        <time>2012-11-24T13:03:04Z</time>
      </trkpt>
      <trkpt lat="43.55111" lon="6.57548">
        <ele>226.167</ele>
        <time>2012-11-24T13:03:11Z</time>
      </trkpt>
      <trkpt lat="43.55089" lon="6.57553">
        <ele>226.203</ele>
        <time>2012-11-24T13:03:20Z</time>
      </trkpt>
      <trkpt lat="43.55066" lon="6.57557">
        <ele>226.663</ele>
        <time>2012-11-24T13:03:29Z</time>
      </trkpt>
      <trkpt lat="43.55042" lon="6.57559">
        <ele>227.11</ele>
        <time>2012-11-24T13:03:38Z</time>
      </trkpt>
      <trkpt lat="43.55017" lon="6.57561">
        <ele>228.055</ele>
        <time>2012-11-24T13:03:47Z</time>
      </trkpt>
      <trkpt lat="43.54992" lon="6.57557">
        <ele>228.959</ele>
        <time>2012-11-24T13:03:56Z</time>
      </trkpt>
      <trkpt lat="43.54975" lon="6.57544">
        <ele>228.974</ele>
        <time>2012-11-24T13:04:03Z</time>
      </trkpt>
      <trkpt lat="43.54956" lon="6.57537">
        <ele>228.559</ele>
        <time>2012-11-24T13:04:09Z</time>
      </trkpt>
      <trkpt lat="43.54934" lon="6.5755">
        <ele>227.124</ele>
        <time>2012-11-24T13:04:15Z</time>
      </trkpt>
      <trkpt lat="43.54922" lon="6.57555">
        <ele>226.577</ele>
        <time>2012-11-24T13:04:18Z</time>
      </trkpt>
      <trkpt lat="43.54913" lon="6.5756">
        <ele>226.174</ele>
        <time>2012-11-24T13:04:20Z</time>
      </trkpt>
      <trkpt lat="43.5489" lon="6.57586">
        <ele>224.595</ele>
        <time>2012-11-24T13:04:26Z</time>
      </trkpt>
      <trkpt lat="43.54882" lon="6.57597">
        <ele>224.057</ele>
        <time>2012-11-24T13:04:28Z</time>
      </trkpt>
      <trkpt lat="43.54849" lon="6.57629">
        <ele>222.741</ele>
        <time>2012-11-24T13:04:35Z</time>
      </trkpt>
      <trkpt lat="43.54828" lon="6.57662">
        <ele>221.508</ele>
        <time>2012-11-24T13:04:40Z</time>
      </trkpt>
      <trkpt lat="43.54823" lon="6.57692">
        <ele>221.177</ele>
        <time>2012-11-24T13:04:44Z</time>
      </trkpt>
      <trkpt lat="43.54818" lon="6.5773">
        <ele>220.446</ele>
        <time>2012-11-24T13:04:49Z</time>
      </trkpt>
      <trkpt lat="43.54809" lon="6.57782">
        <ele>219.119</ele>
        <time>2012-11-24T13:04:57Z</time>
      </trkpt>
      <trkpt lat="43.54806" lon="6.57796">
        <ele>218.668</ele>
        <time>2012-11-24T13:04:59Z</time>
      </trkpt>
      <trkpt lat="43.54804" lon="6.57815">
        <ele>218.268</ele>
        <time>2012-11-24T13:05:02Z</time>
      </trkpt>
      <trkpt lat="43.54805" lon="6.57859">
        <ele>216.974</ele>
        <time>2012-11-24T13:05:10Z</time>
      </trkpt>
      <trkpt lat="43.54805" lon="6.57864">
        <ele>216.761</ele>
        <time>2012-11-24T13:05:11Z</time>
      </trkpt>
      <trkpt lat="43.54809" lon="6.57924">
        <ele>215.095</ele>
        <time>2012-11-24T13:05:20Z</time>
      </trkpt>
      <trkpt lat="43.54812" lon="6.57941">
        <ele>214.466</ele>
        <time>2012-11-24T13:05:23Z</time>
      </trkpt>
      <trkpt lat="43.54828" lon="6.57972">
        <ele>212.849</ele>
        <time>2012-11-24T13:05:29Z</time>
      </trkpt>
      <trkpt lat="43.54852" lon="6.5801">
        <ele>210.91</ele>
        <time>2012-11-24T13:05:36Z</time>
      </trkpt>
      <trkpt lat="43.54856" lon="6.58016">
        <ele>210.594</ele>
        <time>2012-11-24T13:05:37Z</time>
      </trkpt>
      <trkpt lat="43.54867" lon="6.58037">
        <ele>209.764</ele>
        <time>2012-11-24T13:05:40Z</time>
      </trkpt>
      <trkpt lat="43.54872" lon="6.5806">
        <ele>209.058</ele>
        <time>2012-11-24T13:05:43Z</time>
      </trkpt>
      <trkpt lat="43.54878" lon="6.581">
        <ele>208.602</ele>
        <time>2012-11-24T13:05:49Z</time>
      </trkpt>
      <trkpt lat="43.54878" lon="6.58104">
        <ele>208.649</ele>
        <time>2012-11-24T13:05:50Z</time>
      </trkpt>
      <trkpt lat="43.54879" lon="6.58115">
        <ele>208.404</ele>
        <time>2012-11-24T13:05:54Z</time>
      </trkpt>
      <trkpt lat="43.54882" lon="6.58161">
        <ele>208.374</ele>
        <time>2012-11-24T13:06:02Z</time>
      </trkpt>
      <trkpt lat="43.54882" lon="6.58178">
        <ele>208.653</ele>
        <time>2012-11-24T13:06:05Z</time>
      </trkpt>
      <trkpt lat="43.54876" lon="6.58211">
        <ele>208.588</ele>
        <time>2012-11-24T13:06:11Z</time>
      </trkpt>
      <trkpt lat="43.54857" lon="6.58262">
        <ele>206.917</ele>
        <time>2012-11-24T13:06:19Z</time>
      </trkpt>
      <trkpt lat="43.54834" lon="6.58308">
        <ele>204.843</ele>
        <time>2012-11-24T13:06:26Z</time>
      </trkpt>
      <trkpt lat="43.54801" lon="6.58347">
        <ele>203.134</ele>
        <time>2012-11-24T13:06:33Z</time>
      </trkpt>
      <trkpt lat="43.54775" lon="6.5838">
        <ele>202.698</ele>
        <time>2012-11-24T13:06:39Z</time>
      </trkpt>
      <trkpt lat="43.54748" lon="6.58408">
        <ele>201.691</ele>
        <time>2012-11-24T13:06:45Z</time>
      </trkpt>
      <trkpt lat="43.54728" lon="6.58428">
        <ele>200.105</ele>
        <time>2012-11-24T13:06:49Z</time>
      </trkpt>
      <trkpt lat="43.54715" lon="6.58435">
        <ele>199.286</ele>
        <time>2012-11-24T13:06:51Z</time>
      </trkpt>
      <trkpt lat="43.54685" lon="6.58444">
        <ele>197.726</ele>
        <time>2012-11-24T13:06:56Z</time>
      </trkpt>
      <trkpt lat="43.54658" lon="6.58445">
        <ele>196.736</ele>
        <time>2012-11-24T13:07:01Z</time>
      </trkpt>
      <trkpt lat="43.5464" lon="6.58449">
        <ele>195.835</ele>
        <time>2012-11-24T13:07:06Z</time>
      </trkpt>
      <trkpt lat="43.54638" lon="6.5845">
        <ele>195.535</ele>
        <time>2012-11-24T13:07:09Z</time>
      </trkpt>
      <trkpt lat="43.54636" lon="6.58452">
        <ele>195.415</ele>
        <time>2012-11-24T13:07:12Z</time>
      </trkpt>
      <trkpt lat="43.54633" lon="6.58455">
        <ele>195.094</ele>
        <time>2012-11-24T13:07:16Z</time>
      </trkpt>
      <trkpt lat="43.54636" lon="6.58456">
        <ele>194.818</ele>
        <time>2012-11-24T13:07:20Z</time>
      </trkpt>
      <trkpt lat="43.54636" lon="6.58456">
        <ele>195.044</ele>
        <time>2012-11-24T13:07:33Z</time>
      </trkpt>
      <trkpt lat="43.54636" lon="6.58456">
        <ele>195.12</ele>
        <time>2012-11-24T13:07:35Z</time>
      </trkpt>
      <trkpt lat="43.54636" lon="6.58456">
        <ele>195.243</ele>
        <time>2012-11-24T13:08:00Z</time>
      </trkpt>
      <trkpt lat="43.54639" lon="6.58465">
        <ele>194.258</ele>
        <time>2012-11-24T13:08:27Z</time>
      </trkpt>
      <trkpt lat="43.54645" lon="6.58471">
        <ele>193.481</ele>
        <time>2012-11-24T13:08:31Z</time>
      </trkpt>
      <trkpt lat="43.54663" lon="6.58481">
        <ele>192.796</ele>
        <time>2012-11-24T13:08:37Z</time>
      </trkpt>
      <trkpt lat="43.54676" lon="6.58492">
        <ele>192.287</ele>
        <time>2012-11-24T13:08:42Z</time>
      </trkpt>
      <trkpt lat="43.54678" lon="6.58496">
        <ele>192.109</ele>
        <time>2012-11-24T13:08:43Z</time>
      </trkpt>
      <trkpt lat="43.54676" lon="6.58511">
        <ele>190.76</ele>
        <time>2012-11-24T13:08:47Z</time>
      </trkpt>
      <trkpt lat="43.54667" lon="6.58524">
        <ele>190.154</ele>
        <time>2012-11-24T13:08:51Z</time>
      </trkpt>
      <trkpt lat="43.54663" lon="6.58545">
        <ele>188.947</ele>
        <time>2012-11-24T13:08:56Z</time>
      </trkpt>
      <trkpt lat="43.54673" lon="6.58551">
        <ele>187.557</ele>
        <time>2012-11-24T13:09:00Z</time>
      </trkpt>
      <trkpt lat="43.54678" lon="6.58553">
        <ele>186.598</ele>
        <time>2012-11-24T13:09:02Z</time>
      </trkpt>
      <trkpt lat="43.54678" lon="6.58553">
        <ele>185.86</ele>
        <time>2012-11-24T13:09:04Z</time>
      </trkpt>
      <trkpt lat="43.54704" lon="6.58536">
        <ele>185.211</ele>
        <time>2012-11-24T13:09:09Z</time>
      </trkpt>
      <trkpt lat="43.54722" lon="6.58516">
        <ele>183.76</ele>
        <time>2012-11-24T13:09:15Z</time>
      </trkpt>
      <trkpt lat="43.54737" lon="6.58517">
        <ele>183.204</ele>
        <time>2012-11-24T13:09:19Z</time>
      </trkpt>
      <trkpt lat="43.5476" lon="6.58521">
        <ele>181.46</ele>
        <time>2012-11-24T13:09:25Z</time>
      </trkpt>
      <trkpt lat="43.54768" lon="6.58522">
        <ele>181.14</ele>
        <time>2012-11-24T13:09:27Z</time>
      </trkpt>
      <trkpt lat="43.54788" lon="6.58518">
        <ele>179.751</ele>
        <time>2012-11-24T13:09:32Z</time>
      </trkpt>
      <trkpt lat="43.54791" lon="6.58515">
        <ele>179.47</ele>
        <time>2012-11-24T13:09:33Z</time>
      </trkpt>
      <trkpt lat="43.548" lon="6.58504">
        <ele>178.955</ele>
        <time>2012-11-24T13:09:36Z</time>
      </trkpt>
      <trkpt lat="43.54815" lon="6.58476">
        <ele>177.29</ele>
        <time>2012-11-24T13:09:42Z</time>
      </trkpt>
      <trkpt lat="43.54825" lon="6.58482">
        <ele>176.643</ele>
        <time>2012-11-24T13:09:45Z</time>
      </trkpt>
      <trkpt lat="43.54827" lon="6.58485">
        <ele>176.387</ele>
        <time>2012-11-24T13:09:46Z</time>
      </trkpt>
      <trkpt lat="43.54832" lon="6.58491">
        <ele>175.715</ele>
        <time>2012-11-24T13:09:48Z</time>
      </trkpt>
      <trkpt lat="43.54843" lon="6.58491">
        <ele>174.732</ele>
        <time>2012-11-24T13:09:52Z</time>
      </trkpt>
      <trkpt lat="43.5486" lon="6.58475">
        <ele>174.014</ele>
        <time>2012-11-24T13:09:57Z</time>
      </trkpt>
      <trkpt lat="43.54903" lon="6.58466">
        <ele>171.98</ele>
        <time>2012-11-24T13:10:06Z</time>
      </trkpt>
      <trkpt lat="43.5492" lon="6.58464">
        <ele>170.893</ele>
        <time>2012-11-24T13:10:09Z</time>
      </trkpt>
      <trkpt lat="43.54939" lon="6.58472">
        <ele>169.716</ele>
        <time>2012-11-24T13:10:13Z</time>
      </trkpt>
      <trkpt lat="43.54944" lon="6.58493">
        <ele>169.305</ele>
        <time>2012-11-24T13:10:17Z</time>
      </trkpt>
      <trkpt lat="43.54939" lon="6.58511">
        <ele>169.564</ele>
        <time>2012-11-24T13:10:21Z</time>
      </trkpt>
      <trkpt lat="43.5492" lon="6.58539">
        <ele>170.81</ele>
        <time>2012-11-24T13:10:28Z</time>
      </trkpt>
      <trkpt lat="43.54905" lon="6.58556">
        <ele>172.041</ele>
        <time>2012-11-24T13:10:35Z</time>
      </trkpt>
      <trkpt lat="43.54887" lon="6.58564">
        <ele>173.14</ele>
        <time>2012-11-24T13:10:41Z</time>
      </trkpt>
      <trkpt lat="43.54865" lon="6.58574">
        <ele>174.337</ele>
        <time>2012-11-24T13:10:48Z</time>
      </trkpt>
      <trkpt lat="43.54849" lon="6.5859">
        <ele>175.272</ele>
        <time>2012-11-24T13:10:54Z</time>
      </trkpt>
      <trkpt lat="43.54838" lon="6.58613">
        <ele>176.113</ele>
        <time>2012-11-24T13:11:01Z</time>
      </trkpt>
      <trkpt lat="43.54825" lon="6.58628">
        <ele>176.908</ele>
        <time>2012-11-24T13:11:07Z</time>
      </trkpt>
      <trkpt lat="43.54803" lon="6.58645">
        <ele>178.246</ele>
        <time>2012-11-24T13:11:16Z</time>
      </trkpt>
      <trkpt lat="43.54784" lon="6.58657">
        <ele>179.136</ele>
        <time>2012-11-24T13:11:24Z</time>
      </trkpt>
      <trkpt lat="43.5477" lon="6.58672">
        <ele>179.996</ele>
        <time>2012-11-24T13:11:31Z</time>
      </trkpt>
      <trkpt lat="43.54757" lon="6.58691">
        <ele>181.379</ele>
        <time>2012-11-24T13:11:39Z</time>
      </trkpt>
      <trkpt lat="43.54746" lon="6.58708">
        <ele>182.374</ele>
        <time>2012-11-24T13:11:46Z</time>
      </trkpt>
      <trkpt lat="43.54739" lon="6.58722">
        <ele>183.312</ele>
        <time>2012-11-24T13:11:52Z</time>
      </trkpt>
      <trkpt lat="43.54734" lon="6.58738">
        <ele>183.968</ele>
        <time>2012-11-24T13:11:58Z</time>
      </trkpt>
      <trkpt lat="43.54725" lon="6.58764">
        <ele>184.593</ele>
        <time>2012-11-24T13:12:07Z</time>
      </trkpt>
      <trkpt lat="43.54719" lon="6.5879">
        <ele>185.348</ele>
        <time>2012-11-24T13:12:15Z</time>
      </trkpt>
      <trkpt lat="43.5472" lon="6.58812">
        <ele>185.401</ele>
        <time>2012-11-24T13:12:20Z</time>
      </trkpt>
      <trkpt lat="43.54725" lon="6.58835">
        <ele>185.216</ele>
        <time>2012-11-24T13:12:25Z</time>
      </trkpt>
      <trkpt lat="43.54732" lon="6.58857">
        <ele>184.96</ele>
        <time>2012-11-24T13:12:30Z</time>
      </trkpt>
      <trkpt lat="43.54744" lon="6.58884">
        <ele>184.565</ele>
        <time>2012-11-24T13:12:36Z</time>
      </trkpt>
      <trkpt lat="43.54759" lon="6.58906">
        <ele>184.248</ele>
        <time>2012-11-24T13:12:42Z</time>
      </trkpt>
      <trkpt lat="43.54762" lon="6.5891">
        <ele>184.217</ele>
        <time>2012-11-24T13:12:43Z</time>
      </trkpt>
      <trkpt lat="43.54763" lon="6.58929">
        <ele>183.938</ele>
        <time>2012-11-24T13:12:48Z</time>
      </trkpt>
      <trkpt lat="43.54757" lon="6.58953">
        <ele>184.336</ele>
        <time>2012-11-24T13:12:53Z</time>
      </trkpt>
      <trkpt lat="43.54757" lon="6.58999">
        <ele>183.813</ele>
        <time>2012-11-24T13:13:01Z</time>
      </trkpt>
      <trkpt lat="43.54757" lon="6.59028">
        <ele>183.362</ele>
        <time>2012-11-24T13:13:06Z</time>
      </trkpt>
      <trkpt lat="43.54757" lon="6.59034">
        <ele>183.265</ele>
        <time>2012-11-24T13:13:07Z</time>
      </trkpt>
      <trkpt lat="43.54756" lon="6.59054">
        <ele>183.134</ele>
        <time>2012-11-24T13:13:10Z</time>
      </trkpt>
      <trkpt lat="43.54748" lon="6.59101">
        <ele>182.634</ele>
        <time>2012-11-24T13:13:18Z</time>
      </trkpt>
      <trkpt lat="43.54743" lon="6.59111">
        <ele>182.52</ele>
        <time>2012-11-24T13:13:21Z</time>
      </trkpt>
      <trkpt lat="43.54743" lon="6.59112">
        <ele>182.497</ele>
        <time>2012-11-24T13:13:22Z</time>
      </trkpt>
      <trkpt lat="43.5474" lon="6.59117">
        <ele>182.406</ele>
        <time>2012-11-24T13:13:26Z</time>
      </trkpt>
      <trkpt lat="43.54732" lon="6.59132">
        <ele>183.003</ele>
        <time>2012-11-24T13:13:30Z</time>
      </trkpt>
      <trkpt lat="43.54729" lon="6.59136">
        <ele>183.877</ele>
        <time>2012-11-24T13:13:32Z</time>
      </trkpt>
      <trkpt lat="43.54726" lon="6.59142">
        <ele>184.105</ele>
        <time>2012-11-24T13:13:35Z</time>
      </trkpt>
      <trkpt lat="43.54723" lon="6.59152">
        <ele>182.526</ele>
        <time>2012-11-24T13:13:39Z</time>
      </trkpt>
      <trkpt lat="43.54723" lon="6.59158">
        <ele>182.224</ele>
        <time>2012-11-24T13:13:47Z</time>
      </trkpt>
      <trkpt lat="43.54732" lon="6.59178">
        <ele>181.891</ele>
        <time>2012-11-24T13:13:53Z</time>
      </trkpt>
      <trkpt lat="43.54743" lon="6.59184">
        <ele>181.807</ele>
        <time>2012-11-24T13:13:58Z</time>
      </trkpt>
      <trkpt lat="43.54759" lon="6.59183">
        <ele>181.743</ele>
        <time>2012-11-24T13:14:03Z</time>
      </trkpt>
      <trkpt lat="43.54789" lon="6.59176">
        <ele>181.221</ele>
        <time>2012-11-24T13:14:11Z</time>
      </trkpt>
      <trkpt lat="43.54814" lon="6.59181">
        <ele>181.017</ele>
        <time>2012-11-24T13:14:17Z</time>
      </trkpt>
      <trkpt lat="43.54818" lon="6.59182">
        <ele>180.965</ele>
        <time>2012-11-24T13:14:18Z</time>
      </trkpt>
      <trkpt lat="43.54846" lon="6.5919">
        <ele>180.556</ele>
        <time>2012-11-24T13:14:25Z</time>
      </trkpt>
      <trkpt lat="43.54861" lon="6.59187">
        <ele>180.221</ele>
        <time>2012-11-24T13:14:29Z</time>
      </trkpt>
      <trkpt lat="43.5489" lon="6.59185">
        <ele>179.886</ele>
        <time>2012-11-24T13:14:36Z</time>
      </trkpt>
      <trkpt lat="43.54911" lon="6.59188">
        <ele>180.008</ele>
        <time>2012-11-24T13:14:41Z</time>
      </trkpt>
      <trkpt lat="43.54937" lon="6.59192">
        <ele>179.662</ele>
        <time>2012-11-24T13:14:47Z</time>
      </trkpt>
      <trkpt lat="43.54962" lon="6.59202">
        <ele>178.823</ele>
        <time>2012-11-24T13:14:52Z</time>
      </trkpt>
      <trkpt lat="43.54975" lon="6.59209">
        <ele>178.416</ele>
        <time>2012-11-24T13:14:55Z</time>
      </trkpt>
      <trkpt lat="43.54984" lon="6.59227">
        <ele>177.995</ele>
        <time>2012-11-24T13:14:59Z</time>
      </trkpt>
      <trkpt lat="43.54985" lon="6.59231">
        <ele>177.902</ele>
        <time>2012-11-24T13:15:00Z</time>
      </trkpt>
      <trkpt lat="43.54982" lon="6.59265">
        <ele>177.493</ele>
        <time>2012-11-24T13:15:06Z</time>
      </trkpt>
      <trkpt lat="43.54989" lon="6.59287">
        <ele>177.013</ele>
        <time>2012-11-24T13:15:10Z</time>
      </trkpt>
      <trkpt lat="43.54993" lon="6.59312">
        <ele>176.41</ele>
        <time>2012-11-24T13:15:14Z</time>
      </trkpt>
      <trkpt lat="43.54993" lon="6.59364">
        <ele>175.433</ele>
        <time>2012-11-24T13:15:22Z</time>
      </trkpt>
      <trkpt lat="43.54992" lon="6.5939">
        <ele>174.791</ele>
        <time>2012-11-24T13:15:26Z</time>
      </trkpt>
      <trkpt lat="43.54991" lon="6.59409">
        <ele>174.174</ele>
        <time>2012-11-24T13:15:29Z</time>
      </trkpt>
      <trkpt lat="43.54991" lon="6.59434">
        <ele>173.465</ele>
        <time>2012-11-24T13:15:33Z</time>
      </trkpt>
      <trkpt lat="43.55004" lon="6.59454">
        <ele>173.277</ele>
        <time>2012-11-24T13:15:38Z</time>
      </trkpt>
      <trkpt lat="43.55009" lon="6.59457">
        <ele>173.165</ele>
        <time>2012-11-24T13:15:39Z</time>
      </trkpt>
      <trkpt lat="43.55029" lon="6.59473">
        <ele>172.654</ele>
        <time>2012-11-24T13:15:44Z</time>
      </trkpt>
      <trkpt lat="43.55034" lon="6.59492">
        <ele>171.816</ele>
        <time>2012-11-24T13:15:48Z</time>
      </trkpt>
      <trkpt lat="43.5503" lon="6.59504">
        <ele>171.307</ele>
        <time>2012-11-24T13:15:51Z</time>
      </trkpt>
      <trkpt lat="43.55008" lon="6.5952">
        <ele>170.831</ele>
        <time>2012-11-24T13:15:57Z</time>
      </trkpt>
      <trkpt lat="43.54995" lon="6.59533">
        <ele>170.5</ele>
        <time>2012-11-24T13:16:00Z</time>
      </trkpt>
      <trkpt lat="43.54985" lon="6.59548">
        <ele>170.107</ele>
        <time>2012-11-24T13:16:03Z</time>
      </trkpt>
      <trkpt lat="43.54979" lon="6.59572">
        <ele>169.328</ele>
        <time>2012-11-24T13:16:07Z</time>
      </trkpt>
      <trkpt lat="43.5498" lon="6.59596">
        <ele>168.766</ele>
        <time>2012-11-24T13:16:11Z</time>
      </trkpt>
      <trkpt lat="43.54976" lon="6.59618">
        <ele>168.103</ele>
        <time>2012-11-24T13:16:15Z</time>
      </trkpt>
      <trkpt lat="43.54972" lon="6.59621">
        <ele>167.908</ele>
        <time>2012-11-24T13:16:16Z</time>
      </trkpt>
      <trkpt lat="43.54948" lon="6.59636">
        <ele>167.397</ele>
        <time>2012-11-24T13:16:22Z</time>
      </trkpt>
      <trkpt lat="43.54935" lon="6.59651">
        <ele>167.035</ele>
        <time>2012-11-24T13:16:26Z</time>
      </trkpt>
      <trkpt lat="43.54934" lon="6.5966">
        <ele>166.797</ele>
        <time>2012-11-24T13:16:28Z</time>
      </trkpt>
      <trkpt lat="43.54937" lon="6.59691">
        <ele>166.146</ele>
        <time>2012-11-24T13:16:33Z</time>
      </trkpt>
      <trkpt lat="43.54939" lon="6.59703">
        <ele>165.978</ele>
        <time>2012-11-24T13:16:35Z</time>
      </trkpt>
      <trkpt lat="43.54943" lon="6.59735">
        <ele>165.033</ele>
        <time>2012-11-24T13:16:40Z</time>
      </trkpt>
      <trkpt lat="43.54952" lon="6.59743">
        <ele>164.618</ele>
        <time>2012-11-24T13:16:43Z</time>
      </trkpt>
      <trkpt lat="43.54963" lon="6.59743">
        <ele>164.312</ele>
        <time>2012-11-24T13:16:46Z</time>
      </trkpt>
      <trkpt lat="43.54992" lon="6.59736">
        <ele>163.517</ele>
        <time>2012-11-24T13:16:53Z</time>
      </trkpt>
      <trkpt lat="43.55011" lon="6.59739">
        <ele>163.102</ele>
        <time>2012-11-24T13:16:56Z</time>
      </trkpt>
      <trkpt lat="43.55014" lon="6.59751">
        <ele>162.801</ele>
        <time>2012-11-24T13:16:58Z</time>
      </trkpt>
      <trkpt lat="43.55022" lon="6.59778">
        <ele>162.21</ele>
        <time>2012-11-24T13:17:03Z</time>
      </trkpt>
      <trkpt lat="43.55032" lon="6.59796">
        <ele>161.569</ele>
        <time>2012-11-24T13:17:07Z</time>
      </trkpt>
      <trkpt lat="43.55048" lon="6.59821">
        <ele>160.857</ele>
        <time>2012-11-24T13:17:12Z</time>
      </trkpt>
      <trkpt lat="43.55065" lon="6.59842">
        <ele>160.529</ele>
        <time>2012-11-24T13:17:17Z</time>
      </trkpt>
      <trkpt lat="43.55093" lon="6.5986">
        <ele>159.838</ele>
        <time>2012-11-24T13:17:24Z</time>
      </trkpt>
      <trkpt lat="43.55097" lon="6.59863">
        <ele>159.733</ele>
        <time>2012-11-24T13:17:25Z</time>
      </trkpt>
      <trkpt lat="43.5511" lon="6.5987">
        <ele>159.396</ele>
        <time>2012-11-24T13:17:28Z</time>
      </trkpt>
      <trkpt lat="43.55118" lon="6.59872">
        <ele>158.941</ele>
        <time>2012-11-24T13:17:30Z</time>
      </trkpt>
      <trkpt lat="43.55153" lon="6.59877">
        <ele>157.794</ele>
        <time>2012-11-24T13:17:39Z</time>
      </trkpt>
      <trkpt lat="43.55166" lon="6.59886">
        <ele>157.318</ele>
        <time>2012-11-24T13:17:43Z</time>
      </trkpt>
      <trkpt lat="43.55173" lon="6.59909">
        <ele>157.031</ele>
        <time>2012-11-24T13:17:48Z</time>
      </trkpt>
      <trkpt lat="43.5518" lon="6.59932">
        <ele>156.61</ele>
        <time>2012-11-24T13:17:53Z</time>
      </trkpt>
      <trkpt lat="43.55199" lon="6.59964">
        <ele>155.39</ele>
        <time>2012-11-24T13:18:01Z</time>
      </trkpt>
      <trkpt lat="43.55208" lon="6.59985">
        <ele>155.349</ele>
        <time>2012-11-24T13:18:07Z</time>
      </trkpt>
      <trkpt lat="43.5522" lon="6.60008">
        <ele>155.38</ele>
        <time>2012-11-24T13:18:14Z</time>
      </trkpt>
      <trkpt lat="43.5523" lon="6.60039">
        <ele>154.67</ele>
        <time>2012-11-24T13:18:22Z</time>
      </trkpt>
      <trkpt lat="43.55243" lon="6.6006">
        <ele>154.334</ele>
        <time>2012-11-24T13:18:28Z</time>
      </trkpt>
      <trkpt lat="43.55255" lon="6.60071">
        <ele>153.838</ele>
        <time>2012-11-24T13:18:33Z</time>
      </trkpt>
      <trkpt lat="43.55272" lon="6.60087">
        <ele>153.583</ele>
        <time>2012-11-24T13:18:39Z</time>
      </trkpt>
      <trkpt lat="43.55285" lon="6.60108">
        <ele>153.512</ele>
        <time>2012-11-24T13:18:45Z</time>
      </trkpt>
      <trkpt lat="43.55283" lon="6.60122">
        <ele>153.317</ele>
        <time>2012-11-24T13:18:49Z</time>
      </trkpt>
      <trkpt lat="43.55269" lon="6.60138">
        <ele>152.771</ele>
        <time>2012-11-24T13:18:55Z</time>
      </trkpt>
      <trkpt lat="43.55249" lon="6.6015">
        <ele>152.002</ele>
        <time>2012-11-24T13:19:01Z</time>
      </trkpt>
      <trkpt lat="43.55233" lon="6.60156">
        <ele>151.238</ele>
        <time>2012-11-24T13:19:05Z</time>
      </trkpt>
      <trkpt lat="43.5521" lon="6.60167">
        <ele>150.585</ele>
        <time>2012-11-24T13:19:11Z</time>
      </trkpt>
      <trkpt lat="43.55197" lon="6.60186">
        <ele>149.635</ele>
        <time>2012-11-24T13:19:16Z</time>
      </trkpt>
      <trkpt lat="43.55182" lon="6.60199">
        <ele>149.211</ele>
        <time>2012-11-24T13:19:21Z</time>
      </trkpt>
      <trkpt lat="43.55162" lon="6.60211">
        <ele>148.964</ele>
        <time>2012-11-24T13:19:27Z</time>
      </trkpt>
      <trkpt lat="43.55152" lon="6.60227">
        <ele>148.572</ele>
        <time>2012-11-24T13:19:32Z</time>
      </trkpt>
      <trkpt lat="43.55154" lon="6.60243">
        <ele>147.862</ele>
        <time>2012-11-24T13:19:35Z</time>
      </trkpt>
      <trkpt lat="43.5516" lon="6.60282">
        <ele>146.528</ele>
        <time>2012-11-24T13:19:41Z</time>
      </trkpt>
      <trkpt lat="43.55164" lon="6.60311">
        <ele>146.073</ele>
        <time>2012-11-24T13:19:46Z</time>
      </trkpt>
      <trkpt lat="43.55159" lon="6.60336">
        <ele>145.494</ele>
        <time>2012-11-24T13:19:51Z</time>
      </trkpt>
      <trkpt lat="43.55148" lon="6.60362">
        <ele>144.435</ele>
        <time>2012-11-24T13:19:56Z</time>
      </trkpt>
      <trkpt lat="43.55153" lon="6.6038">
        <ele>143.659</ele>
        <time>2012-11-24T13:19:59Z</time>
      </trkpt>
      <trkpt lat="43.55155" lon="6.604">
        <ele>143.211</ele>
        <time>2012-11-24T13:20:02Z</time>
      </trkpt>
      <trkpt lat="43.55153" lon="6.60406">
        <ele>143.165</ele>
        <time>2012-11-24T13:20:03Z</time>
      </trkpt>
      <trkpt lat="43.55146" lon="6.60431">
        <ele>143.779</ele>
        <time>2012-11-24T13:20:09Z</time>
      </trkpt>
      <trkpt lat="43.5513" lon="6.60454">
        <ele>144.813</ele>
        <time>2012-11-24T13:20:15Z</time>
      </trkpt>
      <trkpt lat="43.55117" lon="6.60463">
        <ele>146.454</ele>
        <time>2012-11-24T13:20:22Z</time>
      </trkpt>
      <trkpt lat="43.55104" lon="6.60465">
        <ele>147.86</ele>
        <time>2012-11-24T13:20:28Z</time>
      </trkpt>
      <trkpt lat="43.551" lon="6.60465">
        <ele>148.254</ele>
        <time>2012-11-24T13:20:31Z</time>
      </trkpt>
      <trkpt lat="43.5509" lon="6.60465">
        <ele>149.139</ele>
        <time>2012-11-24T13:20:39Z</time>
      </trkpt>
      <trkpt lat="43.55076" lon="6.60462">
        <ele>149.62</ele>
        <time>2012-11-24T13:20:48Z</time>
      </trkpt>
      <trkpt lat="43.55065" lon="6.60459">
        <ele>149.072</ele>
        <time>2012-11-24T13:20:53Z</time>
      </trkpt>
      <trkpt lat="43.55048" lon="6.60455">
        <ele>147.754</ele>
        <time>2012-11-24T13:20:58Z</time>
      </trkpt>
      <trkpt lat="43.55035" lon="6.60452">
        <ele>146.362</ele>
        <time>2012-11-24T13:21:03Z</time>
      </trkpt>
      <trkpt lat="43.55034" lon="6.60452">
        <ele>146.267</ele>
        <time>2012-11-24T13:21:04Z</time>
      </trkpt>
      <trkpt lat="43.5503" lon="6.60449">
        <ele>145.847</ele>
        <time>2012-11-24T13:21:08Z</time>
      </trkpt>
      <trkpt lat="43.55019" lon="6.60469">
        <ele>144.02</ele>
        <time>2012-11-24T13:21:13Z</time>
      </trkpt>
      <trkpt lat="43.55014" lon="6.60478">
        <ele>142.502</ele>
        <time>2012-11-24T13:21:16Z</time>
      </trkpt>
      <trkpt lat="43.55011" lon="6.60491">
        <ele>140.796</ele>
        <time>2012-11-24T13:21:20Z</time>
      </trkpt>
      <trkpt lat="43.55011" lon="6.60491">
        <ele>140.589</ele>
        <time>2012-11-24T13:21:21Z</time>
      </trkpt>
      <trkpt lat="43.55027" lon="6.60521">
        <ele>139.416</ele>
        <time>2012-11-24T13:21:26Z</time>
      </trkpt>
      <trkpt lat="43.55036" lon="6.60535">
        <ele>139.2</ele>
        <time>2012-11-24T13:21:29Z</time>
      </trkpt>
      <trkpt lat="43.55049" lon="6.60559">
        <ele>138.464</ele>
        <time>2012-11-24T13:21:33Z</time>
      </trkpt>
      <trkpt lat="43.55061" lon="6.60587">
        <ele>137.164</ele>
        <time>2012-11-24T13:21:37Z</time>
      </trkpt>
      <trkpt lat="43.55074" lon="6.60609">
        <ele>136.365</ele>
        <time>2012-11-24T13:21:40Z</time>
      </trkpt>
      <trkpt lat="43.55107" lon="6.60649">
        <ele>133.635</ele>
        <time>2012-11-24T13:21:46Z</time>
      </trkpt>
      <trkpt lat="43.55113" lon="6.60656">
        <ele>133.338</ele>
        <time>2012-11-24T13:21:47Z</time>
      </trkpt>
      <trkpt lat="43.55125" lon="6.60672">
        <ele>132.5</ele>
        <time>2012-11-24T13:21:49Z</time>
      </trkpt>
      <trkpt lat="43.55149" lon="6.60699">
        <ele>131.287</ele>
        <time>2012-11-24T13:21:54Z</time>
      </trkpt>
      <trkpt lat="43.55172" lon="6.60703">
        <ele>129.885</ele>
        <time>2012-11-24T13:21:58Z</time>
      </trkpt>
      <trkpt lat="43.55196" lon="6.60715">
        <ele>128.76</ele>
        <time>2012-11-24T13:22:03Z</time>
      </trkpt>
      <trkpt lat="43.55209" lon="6.60733">
        <ele>127.514</ele>
        <time>2012-11-24T13:22:06Z</time>
      </trkpt>
      <trkpt lat="43.55212" lon="6.6074">
        <ele>127.095</ele>
        <time>2012-11-24T13:22:07Z</time>
      </trkpt>
      <trkpt lat="43.55218" lon="6.60755">
        <ele>126.633</ele>
        <time>2012-11-24T13:22:09Z</time>
      </trkpt>
      <trkpt lat="43.55218" lon="6.60788">
        <ele>125.032</ele>
        <time>2012-11-24T13:22:13Z</time>
      </trkpt>
      <trkpt lat="43.55202" lon="6.6081">
        <ele>124.29</ele>
        <time>2012-11-24T13:22:17Z</time>
      </trkpt>
      <trkpt lat="43.55194" lon="6.60814">
        <ele>124.19</ele>
        <time>2012-11-24T13:22:19Z</time>
      </trkpt>
      <trkpt lat="43.55177" lon="6.60819">
        <ele>124.521</ele>
        <time>2012-11-24T13:22:23Z</time>
      </trkpt>
      <trkpt lat="43.55174" lon="6.60818">
        <ele>124.648</ele>
        <time>2012-11-24T13:22:24Z</time>
      </trkpt>
      <trkpt lat="43.5516" lon="6.60803">
        <ele>126.045</ele>
        <time>2012-11-24T13:22:30Z</time>
      </trkpt>
      <trkpt lat="43.55156" lon="6.60791">
        <ele>126.847</ele>
        <time>2012-11-24T13:22:35Z</time>
      </trkpt>
      <trkpt lat="43.55139" lon="6.60778">
        <ele>128.57</ele>
        <time>2012-11-24T13:22:43Z</time>
      </trkpt>
      <trkpt lat="43.55131" lon="6.60788">
        <ele>129.175</ele>
        <time>2012-11-24T13:22:48Z</time>
      </trkpt>
      <trkpt lat="43.55127" lon="6.60805">
        <ele>130.71</ele>
        <time>2012-11-24T13:22:54Z</time>
      </trkpt>
      <trkpt lat="43.55125" lon="6.60816">
        <ele>131.643</ele>
        <time>2012-11-24T13:22:58Z</time>
      </trkpt>
      <trkpt lat="43.55124" lon="6.60825">
        <ele>132.692</ele>
        <time>2012-11-24T13:23:02Z</time>
      </trkpt>
      <trkpt lat="43.55121" lon="6.60837">
        <ele>134.242</ele>
        <time>2012-11-24T13:23:08Z</time>
      </trkpt>
      <trkpt lat="43.55118" lon="6.60843">
        <ele>134.891</ele>
        <time>2012-11-24T13:23:12Z</time>
      </trkpt>
      <trkpt lat="43.55112" lon="6.60855">
        <ele>136.013</ele>
        <time>2012-11-24T13:23:19Z</time>
      </trkpt>
      <trkpt lat="43.55105" lon="6.60872">
        <ele>138.134</ele>
        <time>2012-11-24T13:23:26Z</time>
      </trkpt>
      <trkpt lat="43.55098" lon="6.60892">
        <ele>140.044</ele>
        <time>2012-11-24T13:23:34Z</time>
      </trkpt>
      <trkpt lat="43.55092" lon="6.60912">
        <ele>142.364</ele>
        <time>2012-11-24T13:23:42Z</time>
      </trkpt>
      <trkpt lat="43.55092" lon="6.6093">
        <ele>143.398</ele>
        <time>2012-11-24T13:23:49Z</time>
      </trkpt>
      <trkpt lat="43.55092" lon="6.60951">
        <ele>144.833</ele>
        <time>2012-11-24T13:23:57Z</time>
      </trkpt>
      <trkpt lat="43.55095" lon="6.60973">
        <ele>146.487</ele>
        <time>2012-11-24T13:24:06Z</time>
      </trkpt>
      <trkpt lat="43.551" lon="6.60991">
        <ele>148.637</ele>
        <time>2012-11-24T13:24:14Z</time>
      </trkpt>
      <trkpt lat="43.55106" lon="6.61003">
        <ele>150.073</ele>
        <time>2012-11-24T13:24:21Z</time>
      </trkpt>
      <trkpt lat="43.55117" lon="6.61016">
        <ele>151.649</ele>
        <time>2012-11-24T13:24:29Z</time>
      </trkpt>
      <trkpt lat="43.55129" lon="6.6103">
        <ele>153.459</ele>
        <time>2012-11-24T13:24:39Z</time>
      </trkpt>
      <trkpt lat="43.55135" lon="6.61042">
        <ele>154.392</ele>
        <time>2012-11-24T13:24:45Z</time>
      </trkpt>
      <trkpt lat="43.55139" lon="6.61055">
        <ele>155.553</ele>
        <time>2012-11-24T13:24:51Z</time>
      </trkpt>
      <trkpt lat="43.55144" lon="6.6108">
        <ele>157.243</ele>
        <time>2012-11-24T13:25:01Z</time>
      </trkpt>
      <trkpt lat="43.55148" lon="6.61098">
        <ele>157.968</ele>
        <time>2012-11-24T13:25:08Z</time>
      </trkpt>
      <trkpt lat="43.55152" lon="6.61118">
        <ele>159.696</ele>
        <time>2012-11-24T13:25:16Z</time>
      </trkpt>
      <trkpt lat="43.55155" lon="6.61131">
        <ele>161.089</ele>
        <time>2012-11-24T13:25:22Z</time>
      </trkpt>
      <trkpt lat="43.55157" lon="6.61149">
        <ele>162.582</ele>
        <time>2012-11-24T13:25:30Z</time>
      </trkpt>
      <trkpt lat="43.5516" lon="6.61174">
        <ele>164.542</ele>
        <time>2012-11-24T13:25:41Z</time>
      </trkpt>
      <trkpt lat="43.55165" lon="6.61196">
        <ele>166.356</ele>
        <time>2012-11-24T13:25:51Z</time>
      </trkpt>
      <trkpt lat="43.55169" lon="6.61211">
        <ele>167.426</ele>
        <time>2012-11-24T13:25:58Z</time>
      </trkpt>
      <trkpt lat="43.55175" lon="6.61228">
        <ele>168.81</ele>
        <time>2012-11-24T13:26:06Z</time>
      </trkpt>
      <trkpt lat="43.55179" lon="6.61244">
        <ele>169.761</ele>
        <time>2012-11-24T13:26:13Z</time>
      </trkpt>
      <trkpt lat="43.55183" lon="6.61259">
        <ele>171.165</ele>
        <time>2012-11-24T13:26:20Z</time>
      </trkpt>
      <trkpt lat="43.55187" lon="6.61276">
        <ele>172.214</ele>
        <time>2012-11-24T13:26:28Z</time>
      </trkpt>
      <trkpt lat="43.55189" lon="6.61293">
        <ele>172.944</ele>
        <time>2012-11-24T13:26:35Z</time>
      </trkpt>
      <trkpt lat="43.55189" lon="6.61315">
        <ele>174.612</ele>
        <time>2012-11-24T13:26:44Z</time>
      </trkpt>
      <trkpt lat="43.55188" lon="6.61335">
        <ele>176.306</ele>
        <time>2012-11-24T13:26:51Z</time>
      </trkpt>
      <trkpt lat="43.55186" lon="6.61356">
        <ele>177.853</ele>
        <time>2012-11-24T13:26:59Z</time>
      </trkpt>
      <trkpt lat="43.55184" lon="6.6138">
        <ele>179.044</ele>
        <time>2012-11-24T13:27:08Z</time>
      </trkpt>
      <trkpt lat="43.55182" lon="6.61405">
        <ele>179.911</ele>
        <time>2012-11-24T13:27:17Z</time>
      </trkpt>
      <trkpt lat="43.55184" lon="6.61432">
        <ele>180.88</ele>
        <time>2012-11-24T13:27:27Z</time>
      </trkpt>
      <trkpt lat="43.55185" lon="6.61452">
        <ele>181.387</ele>
        <time>2012-11-24T13:27:36Z</time>
      </trkpt>
      <trkpt lat="43.55185" lon="6.61452">
        <ele>181.461</ele>
        <time>2012-11-24T13:27:38Z</time>
      </trkpt>
      <trkpt lat="43.55186" lon="6.61461">
        <ele>181.084</ele>
        <time>2012-11-24T13:31:15Z</time>
      </trkpt>
      <trkpt lat="43.55188" lon="6.61472">
        <ele>181.328</ele>
        <time>2012-11-24T13:31:21Z</time>
      </trkpt>
      <trkpt lat="43.55191" lon="6.61494">
        <ele>181.012</ele>
        <time>2012-11-24T13:31:29Z</time>
      </trkpt>
      <trkpt lat="43.55198" lon="6.61512">
        <ele>181.242</ele>
        <time>2012-11-24T13:31:36Z</time>
      </trkpt>
      <trkpt lat="43.55206" lon="6.61532">
        <ele>181.87</ele>
        <time>2012-11-24T13:31:43Z</time>
      </trkpt>
      <trkpt lat="43.55222" lon="6.61565">
        <ele>184.262</ele>
        <time>2012-11-24T13:31:53Z</time>
      </trkpt>
      <trkpt lat="43.55229" lon="6.61579">
        <ele>186.269</ele>
        <time>2012-11-24T13:31:57Z</time>
      </trkpt>
      <trkpt lat="43.55238" lon="6.61605">
        <ele>188.636</ele>
        <time>2012-11-24T13:32:05Z</time>
      </trkpt>
      <trkpt lat="43.55246" lon="6.61625">
        <ele>189.998</ele>
        <time>2012-11-24T13:32:12Z</time>
      </trkpt>
      <trkpt lat="43.55251" lon="6.61648">
        <ele>190.345</ele>
        <time>2012-11-24T13:32:19Z</time>
      </trkpt>
      <trkpt lat="43.55253" lon="6.61674">
        <ele>190.425</ele>
        <time>2012-11-24T13:32:26Z</time>
      </trkpt>
      <trkpt lat="43.55256" lon="6.61707">
        <ele>190.602</ele>
        <time>2012-11-24T13:32:34Z</time>
      </trkpt>
      <trkpt lat="43.55264" lon="6.61732">
        <ele>191.566</ele>
        <time>2012-11-24T13:32:41Z</time>
      </trkpt>
      <trkpt lat="43.55274" lon="6.61755">
        <ele>192.179</ele>
        <time>2012-11-24T13:32:48Z</time>
      </trkpt>
      <trkpt lat="43.55281" lon="6.61775">
        <ele>191.106</ele>
        <time>2012-11-24T13:32:52Z</time>
      </trkpt>
      <trkpt lat="43.55283" lon="6.61781">
        <ele>190.557</ele>
        <time>2012-11-24T13:32:53Z</time>
      </trkpt>
      <trkpt lat="43.55291" lon="6.61826">
        <ele>189.574</ele>
        <time>2012-11-24T13:32:59Z</time>
      </trkpt>
      <trkpt lat="43.55296" lon="6.61856">
        <ele>190.936</ele>
        <time>2012-11-24T13:33:05Z</time>
      </trkpt>
      <trkpt lat="43.55305" lon="6.61879">
        <ele>193.322</ele>
        <time>2012-11-24T13:33:11Z</time>
      </trkpt>
      <trkpt lat="43.55311" lon="6.61895">
        <ele>195.027</ele>
        <time>2012-11-24T13:33:17Z</time>
      </trkpt>
      <trkpt lat="43.55312" lon="6.61897">
        <ele>195.255</ele>
        <time>2012-11-24T13:33:18Z</time>
      </trkpt>
      <trkpt lat="43.55317" lon="6.6191">
        <ele>195.261</ele>
        <time>2012-11-24T13:33:25Z</time>
      </trkpt>
      <trkpt lat="43.55324" lon="6.61926">
        <ele>195.971</ele>
        <time>2012-11-24T13:33:33Z</time>
      </trkpt>
      <trkpt lat="43.5531" lon="6.61955">
        <ele>196.163</ele>
        <time>2012-11-24T13:33:39Z</time>
      </trkpt>
      <trkpt lat="43.55306" lon="6.61977">
        <ele>196.057</ele>
        <time>2012-11-24T13:33:45Z</time>
      </trkpt>
      <trkpt lat="43.55299" lon="6.62">
        <ele>195.381</ele>
        <time>2012-11-24T13:33:50Z</time>
      </trkpt>
      <trkpt lat="43.55283" lon="6.62034">
        <ele>194.103</ele>
        <time>2012-11-24T13:33:57Z</time>
      </trkpt>
      <trkpt lat="43.55281" lon="6.62038">
        <ele>193.99</ele>
        <time>2012-11-24T13:33:58Z</time>
      </trkpt>
      <trkpt lat="43.55262" lon="6.62065">
        <ele>192.787</ele>
        <time>2012-11-24T13:34:04Z</time>
      </trkpt>
      <trkpt lat="43.55252" lon="6.62074">
        <ele>192.34</ele>
        <time>2012-11-24T13:34:07Z</time>
      </trkpt>
      <trkpt lat="43.55242" lon="6.62096">
        <ele>191.88</ele>
        <time>2012-11-24T13:34:11Z</time>
      </trkpt>
      <trkpt lat="43.55237" lon="6.62116">
        <ele>191.671</ele>
        <time>2012-11-24T13:34:15Z</time>
      </trkpt>
      <trkpt lat="43.55223" lon="6.62129">
        <ele>190.892</ele>
        <time>2012-11-24T13:34:19Z</time>
      </trkpt>
      <trkpt lat="43.55219" lon="6.6213">
        <ele>190.661</ele>
        <time>2012-11-24T13:34:20Z</time>
      </trkpt>
      <trkpt lat="43.55205" lon="6.62132">
        <ele>189.874</ele>
        <time>2012-11-24T13:34:23Z</time>
      </trkpt>
      <trkpt lat="43.55184" lon="6.62134">
        <ele>188.483</ele>
        <time>2012-11-24T13:34:27Z</time>
      </trkpt>
      <trkpt lat="43.55163" lon="6.62146">
        <ele>186.593</ele>
        <time>2012-11-24T13:34:32Z</time>
      </trkpt>
      <trkpt lat="43.55161" lon="6.62157">
        <ele>186.074</ele>
        <time>2012-11-24T13:34:35Z</time>
      </trkpt>
      <trkpt lat="43.55163" lon="6.62168">
        <ele>185.495</ele>
        <time>2012-11-24T13:34:37Z</time>
      </trkpt>
      <trkpt lat="43.55154" lon="6.62187">
        <ele>185.157</ele>
        <time>2012-11-24T13:34:42Z</time>
      </trkpt>
      <trkpt lat="43.55146" lon="6.62209">
        <ele>184.964</ele>
        <time>2012-11-24T13:34:47Z</time>
      </trkpt>
      <trkpt lat="43.55139" lon="6.62237">
        <ele>184.578</ele>
        <time>2012-11-24T13:34:53Z</time>
      </trkpt>
      <trkpt lat="43.55139" lon="6.62247">
        <ele>184.466</ele>
        <time>2012-11-24T13:34:55Z</time>
      </trkpt>
      <trkpt lat="43.55129" lon="6.62259">
        <ele>183.597</ele>
        <time>2012-11-24T13:34:59Z</time>
      </trkpt>
      <trkpt lat="43.5511" lon="6.62259">
        <ele>182.407</ele>
        <time>2012-11-24T13:35:04Z</time>
      </trkpt>
      <trkpt lat="43.55102" lon="6.6226">
        <ele>182.055</ele>
        <time>2012-11-24T13:35:08Z</time>
      </trkpt>
      <trkpt lat="43.55095" lon="6.62277">
        <ele>181.581</ele>
        <time>2012-11-24T13:35:10Z</time>
      </trkpt>
      <trkpt lat="43.55099" lon="6.62309">
        <ele>180.105</ele>
        <time>2012-11-24T13:35:15Z</time>
      </trkpt>
      <trkpt lat="43.55095" lon="6.62352">
        <ele>178</ele>
        <time>2012-11-24T13:35:22Z</time>
      </trkpt>
      <trkpt lat="43.55095" lon="6.62363">
        <ele>177.292</ele>
        <time>2012-11-24T13:35:24Z</time>
      </trkpt>
      <trkpt lat="43.5509" lon="6.62366">
        <ele>176.627</ele>
        <time>2012-11-24T13:35:29Z</time>
      </trkpt>
      <trkpt lat="43.5509" lon="6.62366">
        <ele>176.811</ele>
        <time>2012-11-24T13:35:33Z</time>
      </trkpt>
      <trkpt lat="43.55085" lon="6.62354">
        <ele>177.719</ele>
        <time>2012-11-24T13:35:40Z</time>
      </trkpt>
      <trkpt lat="43.5508" lon="6.62342">
        <ele>178.534</ele>
        <time>2012-11-24T13:35:44Z</time>
      </trkpt>
      <trkpt lat="43.55071" lon="6.62326">
        <ele>179.299</ele>
        <time>2012-11-24T13:35:49Z</time>
      </trkpt>
      <trkpt lat="43.55059" lon="6.62308">
        <ele>180.553</ele>
        <time>2012-11-24T13:35:55Z</time>
      </trkpt>
      <trkpt lat="43.55052" lon="6.6229">
        <ele>182.118</ele>
        <time>2012-11-24T13:36:01Z</time>
      </trkpt>
      <trkpt lat="43.55046" lon="6.62272">
        <ele>183.185</ele>
        <time>2012-11-24T13:36:07Z</time>
      </trkpt>
      <trkpt lat="43.55041" lon="6.62241">
        <ele>183.992</ele>
        <time>2012-11-24T13:36:16Z</time>
      </trkpt>
      <trkpt lat="43.55038" lon="6.62218">
        <ele>184.843</ele>
        <time>2012-11-24T13:36:23Z</time>
      </trkpt>
      <trkpt lat="43.55037" lon="6.62212">
        <ele>185.199</ele>
        <time>2012-11-24T13:36:25Z</time>
      </trkpt>
      <trkpt lat="43.55028" lon="6.62206">
        <ele>185.822</ele>
        <time>2012-11-24T13:36:30Z</time>
      </trkpt>
      <trkpt lat="43.55013" lon="6.6223">
        <ele>186.184</ele>
        <time>2012-11-24T13:36:39Z</time>
      </trkpt>
      <trkpt lat="43.55011" lon="6.62233">
        <ele>186.158</ele>
        <time>2012-11-24T13:36:40Z</time>
      </trkpt>
      <trkpt lat="43.55004" lon="6.62232">
        <ele>186.407</ele>
        <time>2012-11-24T13:36:45Z</time>
      </trkpt>
      <trkpt lat="43.55001" lon="6.62216">
        <ele>186.608</ele>
        <time>2012-11-24T13:36:50Z</time>
      </trkpt>
      <trkpt lat="43.54998" lon="6.62189">
        <ele>187.428</ele>
        <time>2012-11-24T13:36:57Z</time>
      </trkpt>
      <trkpt lat="43.54993" lon="6.62167">
        <ele>188.154</ele>
        <time>2012-11-24T13:37:03Z</time>
      </trkpt>
      <trkpt lat="43.54985" lon="6.62152">
        <ele>189.17</ele>
        <time>2012-11-24T13:37:08Z</time>
      </trkpt>
      <trkpt lat="43.5497" lon="6.62149">
        <ele>189.967</ele>
        <time>2012-11-24T13:37:13Z</time>
      </trkpt>
      <trkpt lat="43.54955" lon="6.62155">
        <ele>191.001</ele>
        <time>2012-11-24T13:37:19Z</time>
      </trkpt>
      <trkpt lat="43.54937" lon="6.62157">
        <ele>191.884</ele>
        <time>2012-11-24T13:37:26Z</time>
      </trkpt>
      <trkpt lat="43.54921" lon="6.62164">
        <ele>192.936</ele>
        <time>2012-11-24T13:37:33Z</time>
      </trkpt>
      <trkpt lat="43.54912" lon="6.62173">
        <ele>193.865</ele>
        <time>2012-11-24T13:37:38Z</time>
      </trkpt>
      <trkpt lat="43.54905" lon="6.62193">
        <ele>194.931</ele>
        <time>2012-11-24T13:37:46Z</time>
      </trkpt>
      <trkpt lat="43.54897" lon="6.62212">
        <ele>195.761</ele>
        <time>2012-11-24T13:37:53Z</time>
      </trkpt>
      <trkpt lat="43.54885" lon="6.62228">
        <ele>196.604</ele>
        <time>2012-11-24T13:38:01Z</time>
      </trkpt>
      <trkpt lat="43.54877" lon="6.62237">
        <ele>197.109</ele>
        <time>2012-11-24T13:38:06Z</time>
      </trkpt>
      <trkpt lat="43.54876" lon="6.62239">
        <ele>197.278</ele>
        <time>2012-11-24T13:38:07Z</time>
      </trkpt>
      <trkpt lat="43.54867" lon="6.62241">
        <ele>197.599</ele>
        <time>2012-11-24T13:38:12Z</time>
      </trkpt>
      <trkpt lat="43.54865" lon="6.62233">
        <ele>197.683</ele>
        <time>2012-11-24T13:38:16Z</time>
      </trkpt>
      <trkpt lat="43.5487" lon="6.62215">
        <ele>197.607</ele>
        <time>2012-11-24T13:38:21Z</time>
      </trkpt>
      <trkpt lat="43.54875" lon="6.62195">
        <ele>197.936</ele>
        <time>2012-11-24T13:38:27Z</time>
      </trkpt>
      <trkpt lat="43.54877" lon="6.62172">
        <ele>198.274</ele>
        <time>2012-11-24T13:38:33Z</time>
      </trkpt>
      <trkpt lat="43.54879" lon="6.62141">
        <ele>198.846</ele>
        <time>2012-11-24T13:38:41Z</time>
      </trkpt>
      <trkpt lat="43.54878" lon="6.62117">
        <ele>199.751</ele>
        <time>2012-11-24T13:38:48Z</time>
      </trkpt>
      <trkpt lat="43.54876" lon="6.62114">
        <ele>199.935</ele>
        <time>2012-11-24T13:38:49Z</time>
      </trkpt>
      <trkpt lat="43.54865" lon="6.62113">
        <ele>200.935</ele>
        <time>2012-11-24T13:38:54Z</time>
      </trkpt>
      <trkpt lat="43.54866" lon="6.6212">
        <ele>201.509</ele>
        <time>2012-11-24T13:38:57Z</time>
      </trkpt>
      <trkpt lat="43.54869" lon="6.62137">
        <ele>202.275</ele>
        <time>2012-11-24T13:39:03Z</time>
      </trkpt>
      <trkpt lat="43.54867" lon="6.6216">
        <ele>203.072</ele>
        <time>2012-11-24T13:39:10Z</time>
      </trkpt>
      <trkpt lat="43.54862" lon="6.62186">
        <ele>204.139</ele>
        <time>2012-11-24T13:39:18Z</time>
      </trkpt>
      <trkpt lat="43.54858" lon="6.62202">
        <ele>204.895</ele>
        <time>2012-11-24T13:39:24Z</time>
      </trkpt>
      <trkpt lat="43.54849" lon="6.62222">
        <ele>205.645</ele>
        <time>2012-11-24T13:39:32Z</time>
      </trkpt>
      <trkpt lat="43.5484" lon="6.62241">
        <ele>206.473</ele>
        <time>2012-11-24T13:39:40Z</time>
      </trkpt>
      <trkpt lat="43.5483" lon="6.6226">
        <ele>207.432</ele>
        <time>2012-11-24T13:39:47Z</time>
      </trkpt>
      <trkpt lat="43.5482" lon="6.62278">
        <ele>208.481</ele>
        <time>2012-11-24T13:39:54Z</time>
      </trkpt>
      <trkpt lat="43.54807" lon="6.62296">
        <ele>209.487</ele>
        <time>2012-11-24T13:40:02Z</time>
      </trkpt>
      <trkpt lat="43.54805" lon="6.62313">
        <ele>210.59</ele>
        <time>2012-11-24T13:40:08Z</time>
      </trkpt>
      <trkpt lat="43.54796" lon="6.6233">
        <ele>211.715</ele>
        <time>2012-11-24T13:40:16Z</time>
      </trkpt>
      <trkpt lat="43.54785" lon="6.62344">
        <ele>213.18</ele>
        <time>2012-11-24T13:40:25Z</time>
      </trkpt>
      <trkpt lat="43.54785" lon="6.62346">
        <ele>213.277</ele>
        <time>2012-11-24T13:40:26Z</time>
      </trkpt>
      <trkpt lat="43.54787" lon="6.62355">
        <ele>213.472</ele>
        <time>2012-11-24T13:40:31Z</time>
      </trkpt>
      <trkpt lat="43.54795" lon="6.62356">
        <ele>213.773</ele>
        <time>2012-11-24T13:40:35Z</time>
      </trkpt>
      <trkpt lat="43.54815" lon="6.62346">
        <ele>214.217</ele>
        <time>2012-11-24T13:40:44Z</time>
      </trkpt>
      <trkpt lat="43.54834" lon="6.62337">
        <ele>215.252</ele>
        <time>2012-11-24T13:40:52Z</time>
      </trkpt>
      <trkpt lat="43.5485" lon="6.62329">
        <ele>216.035</ele>
        <time>2012-11-24T13:40:59Z</time>
      </trkpt>
      <trkpt lat="43.54869" lon="6.62318">
        <ele>216.698</ele>
        <time>2012-11-24T13:41:07Z</time>
      </trkpt>
      <trkpt lat="43.5488" lon="6.62313">
        <ele>217.527</ele>
        <time>2012-11-24T13:41:12Z</time>
      </trkpt>
      <trkpt lat="43.54882" lon="6.62314">
        <ele>217.738</ele>
        <time>2012-11-24T13:41:13Z</time>
      </trkpt>
      <trkpt lat="43.54888" lon="6.62322">
        <ele>218.153</ele>
        <time>2012-11-24T13:41:17Z</time>
      </trkpt>
      <trkpt lat="43.54891" lon="6.62338">
        <ele>219.543</ele>
        <time>2012-11-24T13:41:24Z</time>
      </trkpt>
      <trkpt lat="43.54894" lon="6.62356">
        <ele>220.84</ele>
        <time>2012-11-24T13:41:32Z</time>
      </trkpt>
      <trkpt lat="43.54898" lon="6.62371">
        <ele>221.583</ele>
        <time>2012-11-24T13:41:40Z</time>
      </trkpt>
      <trkpt lat="43.54903" lon="6.62369">
        <ele>221.887</ele>
        <time>2012-11-24T13:41:44Z</time>
      </trkpt>
      <trkpt lat="43.5491" lon="6.62363">
        <ele>222.344</ele>
        <time>2012-11-24T13:41:49Z</time>
      </trkpt>
      <trkpt lat="43.54921" lon="6.62358">
        <ele>222.842</ele>
        <time>2012-11-24T13:41:55Z</time>
      </trkpt>
      <trkpt lat="43.54923" lon="6.6236">
        <ele>222.868</ele>
        <time>2012-11-24T13:41:56Z</time>
      </trkpt>
      <trkpt lat="43.54927" lon="6.6237">
        <ele>223.412</ele>
        <time>2012-11-24T13:42:03Z</time>
      </trkpt>
      <trkpt lat="43.54927" lon="6.6239">
        <ele>223.709</ele>
        <time>2012-11-24T13:43:14Z</time>
      </trkpt>
      <trkpt lat="43.54927" lon="6.62402">
        <ele>224.211</ele>
        <time>2012-11-24T13:43:20Z</time>
      </trkpt>
      <trkpt lat="43.54927" lon="6.62419">
        <ele>224.91</ele>
        <time>2012-11-24T13:43:26Z</time>
      </trkpt>
      <trkpt lat="43.54926" lon="6.62437">
        <ele>225.957</ele>
        <time>2012-11-24T13:43:32Z</time>
      </trkpt>
      <trkpt lat="43.54926" lon="6.62461">
        <ele>227.123</ele>
        <time>2012-11-24T13:43:40Z</time>
      </trkpt>
      <trkpt lat="43.54925" lon="6.62477">
        <ele>228.058</ele>
        <time>2012-11-24T13:43:46Z</time>
      </trkpt>
      <trkpt lat="43.54925" lon="6.62497">
        <ele>228.93</ele>
        <time>2012-11-24T13:43:53Z</time>
      </trkpt>
      <trkpt lat="43.54924" lon="6.62514">
        <ele>229.933</ele>
        <time>2012-11-24T13:44:00Z</time>
      </trkpt>
      <trkpt lat="43.54922" lon="6.62533">
        <ele>230.642</ele>
        <time>2012-11-24T13:44:08Z</time>
      </trkpt>
      <trkpt lat="43.54916" lon="6.6255">
        <ele>231.296</ele>
        <time>2012-11-24T13:44:14Z</time>
      </trkpt>
      <trkpt lat="43.5491" lon="6.62568">
        <ele>232.122</ele>
        <time>2012-11-24T13:44:21Z</time>
      </trkpt>
      <trkpt lat="43.54904" lon="6.62584">
        <ele>233.248</ele>
        <time>2012-11-24T13:44:28Z</time>
      </trkpt>
      <trkpt lat="43.54895" lon="6.62605">
        <ele>234.13</ele>
        <time>2012-11-24T13:44:37Z</time>
      </trkpt>
      <trkpt lat="43.54887" lon="6.62623">
        <ele>235.144</ele>
        <time>2012-11-24T13:44:45Z</time>
      </trkpt>
      <trkpt lat="43.54881" lon="6.62637">
        <ele>236.113</ele>
        <time>2012-11-24T13:44:52Z</time>
      </trkpt>
      <trkpt lat="43.54875" lon="6.6265">
        <ele>236.475</ele>
        <time>2012-11-24T13:44:58Z</time>
      </trkpt>
      <trkpt lat="43.54877" lon="6.62669">
        <ele>237.317</ele>
        <time>2012-11-24T13:45:05Z</time>
      </trkpt>
      <trkpt lat="43.54885" lon="6.6268">
        <ele>237.939</ele>
        <time>2012-11-24T13:45:12Z</time>
      </trkpt>
      <trkpt lat="43.549" lon="6.62687">
        <ele>238.745</ele>
        <time>2012-11-24T13:45:20Z</time>
      </trkpt>
      <trkpt lat="43.54914" lon="6.62695">
        <ele>239.255</ele>
        <time>2012-11-24T13:45:27Z</time>
      </trkpt>
      <trkpt lat="43.54921" lon="6.62709">
        <ele>239.75</ele>
        <time>2012-11-24T13:45:33Z</time>
      </trkpt>
      <trkpt lat="43.54923" lon="6.6273">
        <ele>241.052</ele>
        <time>2012-11-24T13:45:40Z</time>
      </trkpt>
      <trkpt lat="43.54917" lon="6.62748">
        <ele>241.958</ele>
        <time>2012-11-24T13:45:47Z</time>
      </trkpt>
      <trkpt lat="43.5491" lon="6.62764">
        <ele>242.907</ele>
        <time>2012-11-24T13:45:54Z</time>
      </trkpt>
      <trkpt lat="43.54905" lon="6.62776">
        <ele>243.682</ele>
        <time>2012-11-24T13:46:00Z</time>
      </trkpt>
      <trkpt lat="43.54899" lon="6.62792">
        <ele>244.562</ele>
        <time>2012-11-24T13:46:07Z</time>
      </trkpt>
      <trkpt lat="43.549" lon="6.62804">
        <ele>244.999</ele>
        <time>2012-11-24T13:46:12Z</time>
      </trkpt>
      <trkpt lat="43.54908" lon="6.62817">
        <ele>245.673</ele>
        <time>2012-11-24T13:46:19Z</time>
      </trkpt>
      <trkpt lat="43.54917" lon="6.62821">
        <ele>246.232</ele>
        <time>2012-11-24T13:46:24Z</time>
      </trkpt>
      <trkpt lat="43.54933" lon="6.62818">
        <ele>246.929</ele>
        <time>2012-11-24T13:46:32Z</time>
      </trkpt>
      <trkpt lat="43.54949" lon="6.62818">
        <ele>247.822</ele>
        <time>2012-11-24T13:46:40Z</time>
      </trkpt>
      <trkpt lat="43.54958" lon="6.62824">
        <ele>248.051</ele>
        <time>2012-11-24T13:46:45Z</time>
      </trkpt>
      <trkpt lat="43.54961" lon="6.62839">
        <ele>248.604</ele>
        <time>2012-11-24T13:46:50Z</time>
      </trkpt>
      <trkpt lat="43.54955" lon="6.6286">
        <ele>249.174</ele>
        <time>2012-11-24T13:46:57Z</time>
      </trkpt>
      <trkpt lat="43.54944" lon="6.62877">
        <ele>250.106</ele>
        <time>2012-11-24T13:47:04Z</time>
      </trkpt>
      <trkpt lat="43.54931" lon="6.6289">
        <ele>250.849</ele>
        <time>2012-11-24T13:47:11Z</time>
      </trkpt>
      <trkpt lat="43.5492" lon="6.62902">
        <ele>251.66</ele>
        <time>2012-11-24T13:47:18Z</time>
      </trkpt>
      <trkpt lat="43.54911" lon="6.62916">
        <ele>252.633</ele>
        <time>2012-11-24T13:47:24Z</time>
      </trkpt>
      <trkpt lat="43.54906" lon="6.62932">
        <ele>253.423</ele>
        <time>2012-11-24T13:47:30Z</time>
      </trkpt>
      <trkpt lat="43.54901" lon="6.62951">
        <ele>254.156</ele>
        <time>2012-11-24T13:47:37Z</time>
      </trkpt>
      <trkpt lat="43.54897" lon="6.62968">
        <ele>255.156</ele>
        <time>2012-11-24T13:47:43Z</time>
      </trkpt>
      <trkpt lat="43.54888" lon="6.62976">
        <ele>255.836</ele>
        <time>2012-11-24T13:47:49Z</time>
      </trkpt>
      <trkpt lat="43.54878" lon="6.62973">
        <ele>256.055</ele>
        <time>2012-11-24T13:47:54Z</time>
      </trkpt>
      <trkpt lat="43.5487" lon="6.62961">
        <ele>257.292</ele>
        <time>2012-11-24T13:48:01Z</time>
      </trkpt>
      <trkpt lat="43.54867" lon="6.62953">
        <ele>257.593</ele>
        <time>2012-11-24T13:48:05Z</time>
      </trkpt>
      <trkpt lat="43.54858" lon="6.6294">
        <ele>259.127</ele>
        <time>2012-11-24T13:48:13Z</time>
      </trkpt>
      <trkpt lat="43.54843" lon="6.62928">
        <ele>260.634</ele>
        <time>2012-11-24T13:48:23Z</time>
      </trkpt>
      <trkpt lat="43.54828" lon="6.62924">
        <ele>262.086</ele>
        <time>2012-11-24T13:48:32Z</time>
      </trkpt>
      <trkpt lat="43.54815" lon="6.62929">
        <ele>263.265</ele>
        <time>2012-11-24T13:48:40Z</time>
      </trkpt>
      <trkpt lat="43.54802" lon="6.62941">
        <ele>264.618</ele>
        <time>2012-11-24T13:48:49Z</time>
      </trkpt>
      <trkpt lat="43.5479" lon="6.62943">
        <ele>265.347</ele>
        <time>2012-11-24T13:48:56Z</time>
      </trkpt>
      <trkpt lat="43.54778" lon="6.62943">
        <ele>266.311</ele>
        <time>2012-11-24T13:49:03Z</time>
      </trkpt>
      <trkpt lat="43.54766" lon="6.62945">
        <ele>267.457</ele>
        <time>2012-11-24T13:49:10Z</time>
      </trkpt>
      <trkpt lat="43.54756" lon="6.6295">
        <ele>268.346</ele>
        <time>2012-11-24T13:49:17Z</time>
      </trkpt>
      <trkpt lat="43.54741" lon="6.62955">
        <ele>269.868</ele>
        <time>2012-11-24T13:49:27Z</time>
      </trkpt>
      <trkpt lat="43.54735" lon="6.62963">
        <ele>270.665</ele>
        <time>2012-11-24T13:49:33Z</time>
      </trkpt>
      <trkpt lat="43.54734" lon="6.62982">
        <ele>271.502</ele>
        <time>2012-11-24T13:49:42Z</time>
      </trkpt>
      <trkpt lat="43.54729" lon="6.62993">
        <ele>272.048</ele>
        <time>2012-11-24T13:49:48Z</time>
      </trkpt>
      <trkpt lat="43.54716" lon="6.63002">
        <ele>272.74</ele>
        <time>2012-11-24T13:49:57Z</time>
      </trkpt>
      <trkpt lat="43.54712" lon="6.63011">
        <ele>273.505</ele>
        <time>2012-11-24T13:50:02Z</time>
      </trkpt>
      <trkpt lat="43.5471" lon="6.63022">
        <ele>274.098</ele>
        <time>2012-11-24T13:50:07Z</time>
      </trkpt>
      <trkpt lat="43.54714" lon="6.63038">
        <ele>274.791</ele>
        <time>2012-11-24T13:50:14Z</time>
      </trkpt>
      <trkpt lat="43.54724" lon="6.63055">
        <ele>275.934</ele>
        <time>2012-11-24T13:50:21Z</time>
      </trkpt>
      <trkpt lat="43.54726" lon="6.6307">
        <ele>276.837</ele>
        <time>2012-11-24T13:50:28Z</time>
      </trkpt>
      <trkpt lat="43.54729" lon="6.63095">
        <ele>278.041</ele>
        <time>2012-11-24T13:50:37Z</time>
      </trkpt>
      <trkpt lat="43.54727" lon="6.63113">
        <ele>278.822</ele>
        <time>2012-11-24T13:50:45Z</time>
      </trkpt>
      <trkpt lat="43.54724" lon="6.63135">
        <ele>279.303</ele>
        <time>2012-11-24T13:50:53Z</time>
      </trkpt>
      <trkpt lat="43.54722" lon="6.63153">
        <ele>279.823</ele>
        <time>2012-11-24T13:50:59Z</time>
      </trkpt>
      <trkpt lat="43.54716" lon="6.63174">
        <ele>280.235</ele>
        <time>2012-11-24T13:51:06Z</time>
      </trkpt>
      <trkpt lat="43.54709" lon="6.63193">
        <ele>280.645</ele>
        <time>2012-11-24T13:51:13Z</time>
      </trkpt>
      <trkpt lat="43.547" lon="6.63219">
        <ele>281.437</ele>
        <time>2012-11-24T13:51:22Z</time>
      </trkpt>
      <trkpt lat="43.54691" lon="6.63233">
        <ele>282.132</ele>
        <time>2012-11-24T13:51:29Z</time>
      </trkpt>
      <trkpt lat="43.54677" lon="6.63247">
        <ele>283.128</ele>
        <time>2012-11-24T13:51:37Z</time>
      </trkpt>
      <trkpt lat="43.54675" lon="6.63249">
        <ele>283.299</ele>
        <time>2012-11-24T13:51:38Z</time>
      </trkpt>
      <trkpt lat="43.54672" lon="6.63249">
        <ele>284.28</ele>
        <time>2012-11-24T13:51:43Z</time>
      </trkpt>
      <trkpt lat="43.54672" lon="6.63249">
        <ele>284.414</ele>
        <time>2012-11-24T13:51:45Z</time>
      </trkpt>
      <trkpt lat="43.5468" lon="6.63229">
        <ele>284.744</ele>
        <time>2012-11-24T13:55:43Z</time>
      </trkpt>
      <trkpt lat="43.54687" lon="6.63206">
        <ele>285.807</ele>
        <time>2012-11-24T13:55:51Z</time>
      </trkpt>
      <trkpt lat="43.54692" lon="6.63185">
        <ele>287.243</ele>
        <time>2012-11-24T13:55:58Z</time>
      </trkpt>
      <trkpt lat="43.54694" lon="6.63164">
        <ele>289.589</ele>
        <time>2012-11-24T13:56:05Z</time>
      </trkpt>
      <trkpt lat="43.54694" lon="6.63141">
        <ele>290.519</ele>
        <time>2012-11-24T13:56:12Z</time>
      </trkpt>
      <trkpt lat="43.54691" lon="6.6312">
        <ele>292.322</ele>
        <time>2012-11-24T13:56:20Z</time>
      </trkpt>
      <trkpt lat="43.54688" lon="6.63104">
        <ele>293.267</ele>
        <time>2012-11-24T13:56:27Z</time>
      </trkpt>
      <trkpt lat="43.54683" lon="6.63085">
        <ele>294.34</ele>
        <time>2012-11-24T13:56:35Z</time>
      </trkpt>
      <trkpt lat="43.54674" lon="6.63057">
        <ele>295.03</ele>
        <time>2012-11-24T13:56:46Z</time>
      </trkpt>
      <trkpt lat="43.54669" lon="6.63038">
        <ele>295.49</ele>
        <time>2012-11-24T13:56:53Z</time>
      </trkpt>
      <trkpt lat="43.54665" lon="6.63019">
        <ele>296.322</ele>
        <time>2012-11-24T13:57:01Z</time>
      </trkpt>
      <trkpt lat="43.54663" lon="6.63003">
        <ele>296.214</ele>
        <time>2012-11-24T13:57:06Z</time>
      </trkpt>
      <trkpt lat="43.54671" lon="6.62987">
        <ele>296.882</ele>
        <time>2012-11-24T13:57:13Z</time>
      </trkpt>
      <trkpt lat="43.54679" lon="6.62969">
        <ele>297.613</ele>
        <time>2012-11-24T13:57:20Z</time>
      </trkpt>
      <trkpt lat="43.54681" lon="6.62946">
        <ele>298.49</ele>
        <time>2012-11-24T13:57:27Z</time>
      </trkpt>
      <trkpt lat="43.54684" lon="6.62927">
        <ele>299.478</ele>
        <time>2012-11-24T13:57:34Z</time>
      </trkpt>
      <trkpt lat="43.54693" lon="6.62909">
        <ele>300.305</ele>
        <time>2012-11-24T13:57:41Z</time>
      </trkpt>
      <trkpt lat="43.547" lon="6.629">
        <ele>300.381</ele>
        <time>2012-11-24T13:57:45Z</time>
      </trkpt>
      <trkpt lat="43.54712" lon="6.62886">
        <ele>301.004</ele>
        <time>2012-11-24T13:57:52Z</time>
      </trkpt>
      <trkpt lat="43.54726" lon="6.62869">
        <ele>302.124</ele>
        <time>2012-11-24T13:58:00Z</time>
      </trkpt>
      <trkpt lat="43.54733" lon="6.62851">
        <ele>302.821</ele>
        <time>2012-11-24T13:58:07Z</time>
      </trkpt>
      <trkpt lat="43.54736" lon="6.62823">
        <ele>303.961</ele>
        <time>2012-11-24T13:58:16Z</time>
      </trkpt>
      <trkpt lat="43.54736" lon="6.62805">
        <ele>304.477</ele>
        <time>2012-11-24T13:58:22Z</time>
      </trkpt>
      <trkpt lat="43.54737" lon="6.62783">
        <ele>305.236</ele>
        <time>2012-11-24T13:58:29Z</time>
      </trkpt>
      <trkpt lat="43.54737" lon="6.6278">
        <ele>305.432</ele>
        <time>2012-11-24T13:58:30Z</time>
      </trkpt>
      <trkpt lat="43.54733" lon="6.62754">
        <ele>306.707</ele>
        <time>2012-11-24T13:58:39Z</time>
      </trkpt>
      <trkpt lat="43.54726" lon="6.62734">
        <ele>307.906</ele>
        <time>2012-11-24T13:58:47Z</time>
      </trkpt>
      <trkpt lat="43.5472" lon="6.62716">
        <ele>308.679</ele>
        <time>2012-11-24T13:58:54Z</time>
      </trkpt>
      <trkpt lat="43.54714" lon="6.62699">
        <ele>309.623</ele>
        <time>2012-11-24T13:59:01Z</time>
      </trkpt>
      <trkpt lat="43.54711" lon="6.62693">
        <ele>309.547</ele>
        <time>2012-11-24T13:59:03Z</time>
      </trkpt>
      <trkpt lat="43.54707" lon="6.62681">
        <ele>310.189</ele>
        <time>2012-11-24T13:59:07Z</time>
      </trkpt>
      <trkpt lat="43.54692" lon="6.6266">
        <ele>311.402</ele>
        <time>2012-11-24T13:59:16Z</time>
      </trkpt>
      <trkpt lat="43.54686" lon="6.62656">
        <ele>311.858</ele>
        <time>2012-11-24T13:59:19Z</time>
      </trkpt>
      <trkpt lat="43.54671" lon="6.62669">
        <ele>312.598</ele>
        <time>2012-11-24T13:59:25Z</time>
      </trkpt>
      <trkpt lat="43.54654" lon="6.62686">
        <ele>313.19</ele>
        <time>2012-11-24T13:59:33Z</time>
      </trkpt>
      <trkpt lat="43.5464" lon="6.62692">
        <ele>313.562</ele>
        <time>2012-11-24T13:59:39Z</time>
      </trkpt>
      <trkpt lat="43.5463" lon="6.62682">
        <ele>314.112</ele>
        <time>2012-11-24T13:59:45Z</time>
      </trkpt>
      <trkpt lat="43.54617" lon="6.62673">
        <ele>314.856</ele>
        <time>2012-11-24T13:59:51Z</time>
      </trkpt>
      <trkpt lat="43.54601" lon="6.62672">
        <ele>315.382</ele>
        <time>2012-11-24T13:59:58Z</time>
      </trkpt>
      <trkpt lat="43.54588" lon="6.62668">
        <ele>316.051</ele>
        <time>2012-11-24T14:00:04Z</time>
      </trkpt>
      <trkpt lat="43.54572" lon="6.62651">
        <ele>316.798</ele>
        <time>2012-11-24T14:00:12Z</time>
      </trkpt>
      <trkpt lat="43.54555" lon="6.62641">
        <ele>318.771</ele>
        <time>2012-11-24T14:00:19Z</time>
      </trkpt>
      <trkpt lat="43.5454" lon="6.6263">
        <ele>319.669</ele>
        <time>2012-11-24T14:00:27Z</time>
      </trkpt>
      <trkpt lat="43.54528" lon="6.6262">
        <ele>320.3</ele>
        <time>2012-11-24T14:00:34Z</time>
      </trkpt>
      <trkpt lat="43.54529" lon="6.62604">
        <ele>320.844</ele>
        <time>2012-11-24T14:00:40Z</time>
      </trkpt>
      <trkpt lat="43.54533" lon="6.6258">
        <ele>321.247</ele>
        <time>2012-11-24T14:00:48Z</time>
      </trkpt>
      <trkpt lat="43.54537" lon="6.62562">
        <ele>322.135</ele>
        <time>2012-11-24T14:00:54Z</time>
      </trkpt>
      <trkpt lat="43.54538" lon="6.62544">
        <ele>322.742</ele>
        <time>2012-11-24T14:01:00Z</time>
      </trkpt>
      <trkpt lat="43.54529" lon="6.62517">
        <ele>324.562</ele>
        <time>2012-11-24T14:01:10Z</time>
      </trkpt>
      <trkpt lat="43.54523" lon="6.62497">
        <ele>325.571</ele>
        <time>2012-11-24T14:01:17Z</time>
      </trkpt>
      <trkpt lat="43.54519" lon="6.62475">
        <ele>326.753</ele>
        <time>2012-11-24T14:01:25Z</time>
      </trkpt>
      <trkpt lat="43.54512" lon="6.6246">
        <ele>327.476</ele>
        <time>2012-11-24T14:01:31Z</time>
      </trkpt>
      <trkpt lat="43.54496" lon="6.62454">
        <ele>328.168</ele>
        <time>2012-11-24T14:01:39Z</time>
      </trkpt>
      <trkpt lat="43.5448" lon="6.62462">
        <ele>329.182</ele>
        <time>2012-11-24T14:01:47Z</time>
      </trkpt>
      <trkpt lat="43.54473" lon="6.62473">
        <ele>330.167</ele>
        <time>2012-11-24T14:01:52Z</time>
      </trkpt>
      <trkpt lat="43.54466" lon="6.62487">
        <ele>331.552</ele>
        <time>2012-11-24T14:01:59Z</time>
      </trkpt>
      <trkpt lat="43.54459" lon="6.62508">
        <ele>332.911</ele>
        <time>2012-11-24T14:02:08Z</time>
      </trkpt>
      <trkpt lat="43.54453" lon="6.62524">
        <ele>334.27</ele>
        <time>2012-11-24T14:02:16Z</time>
      </trkpt>
      <trkpt lat="43.54446" lon="6.62545">
        <ele>335.357</ele>
        <time>2012-11-24T14:02:25Z</time>
      </trkpt>
      <trkpt lat="43.54439" lon="6.62565">
        <ele>336.515</ele>
        <time>2012-11-24T14:02:34Z</time>
      </trkpt>
      <trkpt lat="43.54433" lon="6.62578">
        <ele>337.247</ele>
        <time>2012-11-24T14:02:40Z</time>
      </trkpt>
      <trkpt lat="43.54418" lon="6.62596">
        <ele>338.573</ele>
        <time>2012-11-24T14:02:51Z</time>
      </trkpt>
      <trkpt lat="43.54409" lon="6.62607">
        <ele>339.62</ele>
        <time>2012-11-24T14:02:58Z</time>
      </trkpt>
      <trkpt lat="43.544" lon="6.62618">
        <ele>340.19</ele>
        <time>2012-11-24T14:03:04Z</time>
      </trkpt>
      <trkpt lat="43.54386" lon="6.62636">
        <ele>341.26</ele>
        <time>2012-11-24T14:03:14Z</time>
      </trkpt>
      <trkpt lat="43.54377" lon="6.62659">
        <ele>342.584</ele>
        <time>2012-11-24T14:03:23Z</time>
      </trkpt>
      <trkpt lat="43.54371" lon="6.6268">
        <ele>343.587</ele>
        <time>2012-11-24T14:03:31Z</time>
      </trkpt>
      <trkpt lat="43.5437" lon="6.62701">
        <ele>344.938</ele>
        <time>2012-11-24T14:03:39Z</time>
      </trkpt>
      <trkpt lat="43.54368" lon="6.62725">
        <ele>345.975</ele>
        <time>2012-11-24T14:03:48Z</time>
      </trkpt>
      <trkpt lat="43.54366" lon="6.62749">
        <ele>346.944</ele>
        <time>2012-11-24T14:03:57Z</time>
      </trkpt>
      <trkpt lat="43.54363" lon="6.62772">
        <ele>347.478</ele>
        <time>2012-11-24T14:04:05Z</time>
      </trkpt>
      <trkpt lat="43.54361" lon="6.6279">
        <ele>348.161</ele>
        <time>2012-11-24T14:04:11Z</time>
      </trkpt>
      <trkpt lat="43.54359" lon="6.62809">
        <ele>349.176</ele>
        <time>2012-11-24T14:04:18Z</time>
      </trkpt>
      <trkpt lat="43.54357" lon="6.6283">
        <ele>350.037</ele>
        <time>2012-11-24T14:04:26Z</time>
      </trkpt>
      <trkpt lat="43.54355" lon="6.62848">
        <ele>350.838</ele>
        <time>2012-11-24T14:04:32Z</time>
      </trkpt>
      <trkpt lat="43.54347" lon="6.62871">
        <ele>351.993</ele>
        <time>2012-11-24T14:04:41Z</time>
      </trkpt>
      <trkpt lat="43.5434" lon="6.6289">
        <ele>353.101</ele>
        <time>2012-11-24T14:04:50Z</time>
      </trkpt>
      <trkpt lat="43.54332" lon="6.6291">
        <ele>354.272</ele>
        <time>2012-11-24T14:05:00Z</time>
      </trkpt>
      <trkpt lat="43.54322" lon="6.62924">
        <ele>355.707</ele>
        <time>2012-11-24T14:05:08Z</time>
      </trkpt>
      <trkpt lat="43.54311" lon="6.62939">
        <ele>356.859</ele>
        <time>2012-11-24T14:05:16Z</time>
      </trkpt>
      <trkpt lat="43.54299" lon="6.62952">
        <ele>357.882</ele>
        <time>2012-11-24T14:05:25Z</time>
      </trkpt>
      <trkpt lat="43.54285" lon="6.62956">
        <ele>359.504</ele>
        <time>2012-11-24T14:05:33Z</time>
      </trkpt>
      <trkpt lat="43.54271" lon="6.62961">
        <ele>360.558</ele>
        <time>2012-11-24T14:05:41Z</time>
      </trkpt>
      <trkpt lat="43.54259" lon="6.62968">
        <ele>361.42</ele>
        <time>2012-11-24T14:05:48Z</time>
      </trkpt>
      <trkpt lat="43.54245" lon="6.62974">
        <ele>362.526</ele>
        <time>2012-11-24T14:05:57Z</time>
      </trkpt>
      <trkpt lat="43.54232" lon="6.62973">
        <ele>363.471</ele>
        <time>2012-11-24T14:06:05Z</time>
      </trkpt>
      <trkpt lat="43.5423" lon="6.62972">
        <ele>363.505</ele>
        <time>2012-11-24T14:06:06Z</time>
      </trkpt>
      <trkpt lat="43.54223" lon="6.62959">
        <ele>364.408</ele>
        <time>2012-11-24T14:06:13Z</time>
      </trkpt>
      <trkpt lat="43.54218" lon="6.62947">
        <ele>365.179</ele>
        <time>2012-11-24T14:06:20Z</time>
      </trkpt>
      <trkpt lat="43.54209" lon="6.62927">
        <ele>366.586</ele>
        <time>2012-11-24T14:06:30Z</time>
      </trkpt>
      <trkpt lat="43.54203" lon="6.62909">
        <ele>367.836</ele>
        <time>2012-11-24T14:06:38Z</time>
      </trkpt>
      <trkpt lat="43.54199" lon="6.62894">
        <ele>368.533</ele>
        <time>2012-11-24T14:06:45Z</time>
      </trkpt>
      <trkpt lat="43.54194" lon="6.62876">
        <ele>369.669</ele>
        <time>2012-11-24T14:06:53Z</time>
      </trkpt>
      <trkpt lat="43.54189" lon="6.62857">
        <ele>370.598</ele>
        <time>2012-11-24T14:07:01Z</time>
      </trkpt>
      <trkpt lat="43.54184" lon="6.62837">
        <ele>371.418</ele>
        <time>2012-11-24T14:07:09Z</time>
      </trkpt>
      <trkpt lat="43.54177" lon="6.62819">
        <ele>372.224</ele>
        <time>2012-11-24T14:07:17Z</time>
      </trkpt>
      <trkpt lat="43.54174" lon="6.62801">
        <ele>373.127</ele>
        <time>2012-11-24T14:07:25Z</time>
      </trkpt>
      <trkpt lat="43.54172" lon="6.62787">
        <ele>373.601</ele>
        <time>2012-11-24T14:07:31Z</time>
      </trkpt>
      <trkpt lat="43.54169" lon="6.62767">
        <ele>374.465</ele>
        <time>2012-11-24T14:07:39Z</time>
      </trkpt>
      <trkpt lat="43.54166" lon="6.62746">
        <ele>375.149</ele>
        <time>2012-11-24T14:07:48Z</time>
      </trkpt>
      <trkpt lat="43.54164" lon="6.62728">
        <ele>376.18</ele>
        <time>2012-11-24T14:07:56Z</time>
      </trkpt>
      <trkpt lat="43.54162" lon="6.62716">
        <ele>376.963</ele>
        <time>2012-11-24T14:08:02Z</time>
      </trkpt>
      <trkpt lat="43.5416" lon="6.62709">
        <ele>377.238</ele>
        <time>2012-11-24T14:08:05Z</time>
      </trkpt>
      <trkpt lat="43.54157" lon="6.62691">
        <ele>377.983</ele>
        <time>2012-11-24T14:08:13Z</time>
      </trkpt>
      <trkpt lat="43.54153" lon="6.62671">
        <ele>379.102</ele>
        <time>2012-11-24T14:08:20Z</time>
      </trkpt>
      <trkpt lat="43.54149" lon="6.62658">
        <ele>379.931</ele>
        <time>2012-11-24T14:08:26Z</time>
      </trkpt>
      <trkpt lat="43.54143" lon="6.6264">
        <ele>380.817</ele>
        <time>2012-11-24T14:08:33Z</time>
      </trkpt>
      <trkpt lat="43.5414" lon="6.62628">
        <ele>381.201</ele>
        <time>2012-11-24T14:08:39Z</time>
      </trkpt>
      <trkpt lat="43.54135" lon="6.62611">
        <ele>381.875</ele>
        <time>2012-11-24T14:08:45Z</time>
      </trkpt>
      <trkpt lat="43.54132" lon="6.62596">
        <ele>382.596</ele>
        <time>2012-11-24T14:08:51Z</time>
      </trkpt>
      <trkpt lat="43.54128" lon="6.62579">
        <ele>383.101</ele>
        <time>2012-11-24T14:08:57Z</time>
      </trkpt>
      <trkpt lat="43.54123" lon="6.62555">
        <ele>384.4</ele>
        <time>2012-11-24T14:09:06Z</time>
      </trkpt>
      <trkpt lat="43.54118" lon="6.62541">
        <ele>385.198</ele>
        <time>2012-11-24T14:09:13Z</time>
      </trkpt>
      <trkpt lat="43.54117" lon="6.62539">
        <ele>385.348</ele>
        <time>2012-11-24T14:09:16Z</time>
      </trkpt>
      <trkpt lat="43.54116" lon="6.62536">
        <ele>386.495</ele>
        <time>2012-11-24T14:12:15Z</time>
      </trkpt>
      <trkpt lat="43.54116" lon="6.62536">
        <ele>387.34</ele>
        <time>2012-11-24T14:12:23Z</time>
      </trkpt>
      <trkpt lat="43.54116" lon="6.62489">
        <ele>388.361</ele>
        <time>2012-11-24T14:12:31Z</time>
      </trkpt>
      <trkpt lat="43.54118" lon="6.62465">
        <ele>389.402</ele>
        <time>2012-11-24T14:12:40Z</time>
      </trkpt>
      <trkpt lat="43.54119" lon="6.62444">
        <ele>390.07</ele>
        <time>2012-11-24T14:12:48Z</time>
      </trkpt>
      <trkpt lat="43.5412" lon="6.62425">
        <ele>390.869</ele>
        <time>2012-11-24T14:12:55Z</time>
      </trkpt>
      <trkpt lat="43.54122" lon="6.62403">
        <ele>391.869</ele>
        <time>2012-11-24T14:13:03Z</time>
      </trkpt>
      <trkpt lat="43.54122" lon="6.6238">
        <ele>393.104</ele>
        <time>2012-11-24T14:13:11Z</time>
      </trkpt>
      <trkpt lat="43.54119" lon="6.62357">
        <ele>393.848</ele>
        <time>2012-11-24T14:13:18Z</time>
      </trkpt>
      <trkpt lat="43.54118" lon="6.62345">
        <ele>393.746</ele>
        <time>2012-11-24T14:13:23Z</time>
      </trkpt>
      <trkpt lat="43.54118" lon="6.62321">
        <ele>394.759</ele>
        <time>2012-11-24T14:13:31Z</time>
      </trkpt>
      <trkpt lat="43.54118" lon="6.62296">
        <ele>396.253</ele>
        <time>2012-11-24T14:13:41Z</time>
      </trkpt>
      <trkpt lat="43.54118" lon="6.62284">
        <ele>396.686</ele>
        <time>2012-11-24T14:13:46Z</time>
      </trkpt>
      <trkpt lat="43.54118" lon="6.62271">
        <ele>397.295</ele>
        <time>2012-11-24T14:13:53Z</time>
      </trkpt>
      <trkpt lat="43.54114" lon="6.62248">
        <ele>398.022</ele>
        <time>2012-11-24T14:14:01Z</time>
      </trkpt>
      <trkpt lat="43.54108" lon="6.62222">
        <ele>399.096</ele>
        <time>2012-11-24T14:14:10Z</time>
      </trkpt>
      <trkpt lat="43.54104" lon="6.62202">
        <ele>399.868</ele>
        <time>2012-11-24T14:14:17Z</time>
      </trkpt>
      <trkpt lat="43.54101" lon="6.62178">
        <ele>400.98</ele>
        <time>2012-11-24T14:14:25Z</time>
      </trkpt>
      <trkpt lat="43.54097" lon="6.62162">
        <ele>401.085</ele>
        <time>2012-11-24T14:14:30Z</time>
      </trkpt>
      <trkpt lat="43.54092" lon="6.62145">
        <ele>402.546</ele>
        <time>2012-11-24T14:14:36Z</time>
      </trkpt>
      <trkpt lat="43.54087" lon="6.62128">
        <ele>403.539</ele>
        <time>2012-11-24T14:14:43Z</time>
      </trkpt>
      <trkpt lat="43.54084" lon="6.62116">
        <ele>404.088</ele>
        <time>2012-11-24T14:14:48Z</time>
      </trkpt>
      <trkpt lat="43.54081" lon="6.62094">
        <ele>405.084</ele>
        <time>2012-11-24T14:14:56Z</time>
      </trkpt>
      <trkpt lat="43.54079" lon="6.62076">
        <ele>405.453</ele>
        <time>2012-11-24T14:15:02Z</time>
      </trkpt>
      <trkpt lat="43.54077" lon="6.62057">
        <ele>406.66</ele>
        <time>2012-11-24T14:15:09Z</time>
      </trkpt>
      <trkpt lat="43.54075" lon="6.62037">
        <ele>407.84</ele>
        <time>2012-11-24T14:15:18Z</time>
      </trkpt>
      <trkpt lat="43.54073" lon="6.62018">
        <ele>408.794</ele>
        <time>2012-11-24T14:15:26Z</time>
      </trkpt>
      <trkpt lat="43.54073" lon="6.62003">
        <ele>409.902</ele>
        <time>2012-11-24T14:15:33Z</time>
      </trkpt>
      <trkpt lat="43.54075" lon="6.61987">
        <ele>410.689</ele>
        <time>2012-11-24T14:15:39Z</time>
      </trkpt>
      <trkpt lat="43.54082" lon="6.61969">
        <ele>411.761</ele>
        <time>2012-11-24T14:15:45Z</time>
      </trkpt>
      <trkpt lat="43.5409" lon="6.61953">
        <ele>412.453</ele>
        <time>2012-11-24T14:15:52Z</time>
      </trkpt>
      <trkpt lat="43.54098" lon="6.61932">
        <ele>413.217</ele>
        <time>2012-11-24T14:16:00Z</time>
      </trkpt>
      <trkpt lat="43.54104" lon="6.61914">
        <ele>413.989</ele>
        <time>2012-11-24T14:16:08Z</time>
      </trkpt>
      <trkpt lat="43.5411" lon="6.61895">
        <ele>414.911</ele>
        <time>2012-11-24T14:16:15Z</time>
      </trkpt>
      <trkpt lat="43.54115" lon="6.61878">
        <ele>416.259</ele>
        <time>2012-11-24T14:16:21Z</time>
      </trkpt>
      <trkpt lat="43.54117" lon="6.61858">
        <ele>416.715</ele>
        <time>2012-11-24T14:16:27Z</time>
      </trkpt>
      <trkpt lat="43.54119" lon="6.61834">
        <ele>418.025</ele>
        <time>2012-11-24T14:16:35Z</time>
      </trkpt>
      <trkpt lat="43.5412" lon="6.61813">
        <ele>418.947</ele>
        <time>2012-11-24T14:16:43Z</time>
      </trkpt>
      <trkpt lat="43.54122" lon="6.6179">
        <ele>419.855</ele>
        <time>2012-11-24T14:16:52Z</time>
      </trkpt>
      <trkpt lat="43.54125" lon="6.61772">
        <ele>420.195</ele>
        <time>2012-11-24T14:16:58Z</time>
      </trkpt>
      <trkpt lat="43.54128" lon="6.61759">
        <ele>420.889</ele>
        <time>2012-11-24T14:17:04Z</time>
      </trkpt>
      <trkpt lat="43.54129" lon="6.61751">
        <ele>421.29</ele>
        <time>2012-11-24T14:17:07Z</time>
      </trkpt>
      <trkpt lat="43.54132" lon="6.61739">
        <ele>422.115</ele>
        <time>2012-11-24T14:17:12Z</time>
      </trkpt>
      <trkpt lat="43.54135" lon="6.61724">
        <ele>423.144</ele>
        <time>2012-11-24T14:17:17Z</time>
      </trkpt>
      <trkpt lat="43.54139" lon="6.61707">
        <ele>424.027</ele>
        <time>2012-11-24T14:17:22Z</time>
      </trkpt>
      <trkpt lat="43.54143" lon="6.61689">
        <ele>424.928</ele>
        <time>2012-11-24T14:17:29Z</time>
      </trkpt>
      <trkpt lat="43.54148" lon="6.61671">
        <ele>425.209</ele>
        <time>2012-11-24T14:17:36Z</time>
      </trkpt>
      <trkpt lat="43.54152" lon="6.61659">
        <ele>425.644</ele>
        <time>2012-11-24T14:17:42Z</time>
      </trkpt>
      <trkpt lat="43.54157" lon="6.61645">
        <ele>425.384</ele>
        <time>2012-11-24T14:17:49Z</time>
      </trkpt>
      <trkpt lat="43.54157" lon="6.61645">
        <ele>425.297</ele>
        <time>2012-11-24T14:17:50Z</time>
      </trkpt>
      <trkpt lat="43.54167" lon="6.61615">
        <ele>424.315</ele>
        <time>2012-11-24T14:18:38Z</time>
      </trkpt>
      <trkpt lat="43.54169" lon="6.6161">
        <ele>424.173</ele>
        <time>2012-11-24T14:18:39Z</time>
      </trkpt>
      <trkpt lat="43.54185" lon="6.6157">
        <ele>421.807</ele>
        <time>2012-11-24T14:18:46Z</time>
      </trkpt>
      <trkpt lat="43.54201" lon="6.61536">
        <ele>419.344</ele>
        <time>2012-11-24T14:18:51Z</time>
      </trkpt>
      <trkpt lat="43.54205" lon="6.61529">
        <ele>419.032</ele>
        <time>2012-11-24T14:18:52Z</time>
      </trkpt>
      <trkpt lat="43.54222" lon="6.61483">
        <ele>416.275</ele>
        <time>2012-11-24T14:18:57Z</time>
      </trkpt>
      <trkpt lat="43.54224" lon="6.61429">
        <ele>413.269</ele>
        <time>2012-11-24T14:19:02Z</time>
      </trkpt>
      <trkpt lat="43.54208" lon="6.61371">
        <ele>410.079</ele>
        <time>2012-11-24T14:19:07Z</time>
      </trkpt>
      <trkpt lat="43.54201" lon="6.61351">
        <ele>409.262</ele>
        <time>2012-11-24T14:19:09Z</time>
      </trkpt>
      <trkpt lat="43.54203" lon="6.61324">
        <ele>407.981</ele>
        <time>2012-11-24T14:19:12Z</time>
      </trkpt>
      <trkpt lat="43.54209" lon="6.613">
        <ele>406.799</ele>
        <time>2012-11-24T14:19:15Z</time>
      </trkpt>
      <trkpt lat="43.54226" lon="6.61237">
        <ele>403.954</ele>
        <time>2012-11-24T14:19:22Z</time>
      </trkpt>
      <trkpt lat="43.54232" lon="6.61199">
        <ele>401.327</ele>
        <time>2012-11-24T14:19:26Z</time>
      </trkpt>
      <trkpt lat="43.54242" lon="6.61136">
        <ele>397.789</ele>
        <time>2012-11-24T14:19:32Z</time>
      </trkpt>
      <trkpt lat="43.54243" lon="6.6109">
        <ele>394.505</ele>
        <time>2012-11-24T14:19:37Z</time>
      </trkpt>
      <trkpt lat="43.54241" lon="6.61081">
        <ele>393.579</ele>
        <time>2012-11-24T14:19:38Z</time>
      </trkpt>
      <trkpt lat="43.54222" lon="6.61038">
        <ele>390.235</ele>
        <time>2012-11-24T14:19:43Z</time>
      </trkpt>
      <trkpt lat="43.54197" lon="6.60998">
        <ele>387.54</ele>
        <time>2012-11-24T14:19:48Z</time>
      </trkpt>
      <trkpt lat="43.54178" lon="6.6095">
        <ele>387.818</ele>
        <time>2012-11-24T14:19:54Z</time>
      </trkpt>
      <trkpt lat="43.54172" lon="6.60938">
        <ele>387.883</ele>
        <time>2012-11-24T14:19:56Z</time>
      </trkpt>
      <trkpt lat="43.54142" lon="6.60887">
        <ele>388.392</ele>
        <time>2012-11-24T14:20:05Z</time>
      </trkpt>
      <trkpt lat="43.54125" lon="6.60863">
        <ele>388.632</ele>
        <time>2012-11-24T14:20:10Z</time>
      </trkpt>
      <trkpt lat="43.54099" lon="6.60846">
        <ele>389.577</ele>
        <time>2012-11-24T14:20:16Z</time>
      </trkpt>
      <trkpt lat="43.54068" lon="6.60841">
        <ele>390.263</ele>
        <time>2012-11-24T14:20:23Z</time>
      </trkpt>
      <trkpt lat="43.54046" lon="6.60826">
        <ele>391.244</ele>
        <time>2012-11-24T14:20:29Z</time>
      </trkpt>
      <trkpt lat="43.54032" lon="6.60812">
        <ele>392.341</ele>
        <time>2012-11-24T14:20:36Z</time>
      </trkpt>
      <trkpt lat="43.54022" lon="6.60807">
        <ele>392.571</ele>
        <time>2012-11-24T14:20:42Z</time>
      </trkpt>
      <trkpt lat="43.54019" lon="6.60805">
        <ele>392.613</ele>
        <time>2012-11-24T14:20:44Z</time>
      </trkpt>
      <trkpt lat="43.54013" lon="6.60818">
        <ele>392.581</ele>
        <time>2012-11-24T14:20:50Z</time>
      </trkpt>
      <trkpt lat="43.54017" lon="6.60804">
        <ele>392.598</ele>
        <time>2012-11-24T14:20:58Z</time>
      </trkpt>
      <trkpt lat="43.54017" lon="6.60804">
        <ele>391.99</ele>
        <time>2012-11-24T14:26:43Z</time>
      </trkpt>
      <trkpt lat="43.54017" lon="6.60804">
        <ele>392.106</ele>
        <time>2012-11-24T14:26:48Z</time>
      </trkpt>
      <trkpt lat="43.54017" lon="6.60804">
        <ele>392.044</ele>
        <time>2012-11-24T14:26:49Z</time>
      </trkpt>
      <trkpt lat="43.54022" lon="6.60814">
        <ele>392.026</ele>
        <time>2012-11-24T14:27:01Z</time>
      </trkpt>
      <trkpt lat="43.54021" lon="6.60812">
        <ele>391.827</ele>
        <time>2012-11-24T14:28:13Z</time>
      </trkpt>
      <trkpt lat="43.54007" lon="6.6083">
        <ele>391.718</ele>
        <time>2012-11-24T14:28:20Z</time>
      </trkpt>
      <trkpt lat="43.54003" lon="6.60837">
        <ele>391.644</ele>
        <time>2012-11-24T14:28:24Z</time>
      </trkpt>
      <trkpt lat="43.53991" lon="6.60863">
        <ele>391.803</ele>
        <time>2012-11-24T14:28:35Z</time>
      </trkpt>
      <trkpt lat="43.53978" lon="6.60889">
        <ele>391.908</ele>
        <time>2012-11-24T14:28:43Z</time>
      </trkpt>
      <trkpt lat="43.53966" lon="6.60922">
        <ele>391.785</ele>
        <time>2012-11-24T14:28:51Z</time>
      </trkpt>
      <trkpt lat="43.53957" lon="6.60954">
        <ele>391.252</ele>
        <time>2012-11-24T14:28:57Z</time>
      </trkpt>
      <trkpt lat="43.53947" lon="6.60992">
        <ele>389.819</ele>
        <time>2012-11-24T14:29:02Z</time>
      </trkpt>
      <trkpt lat="43.53922" lon="6.61043">
        <ele>388.449</ele>
        <time>2012-11-24T14:29:11Z</time>
      </trkpt>
      <trkpt lat="43.53902" lon="6.6107">
        <ele>386.938</ele>
        <time>2012-11-24T14:29:16Z</time>
      </trkpt>
      <trkpt lat="43.5389" lon="6.61075">
        <ele>386.394</ele>
        <time>2012-11-24T14:29:18Z</time>
      </trkpt>
      <trkpt lat="43.53877" lon="6.61077">
        <ele>385.612</ele>
        <time>2012-11-24T14:29:20Z</time>
      </trkpt>
      <trkpt lat="43.53848" lon="6.61096">
        <ele>384.422</ele>
        <time>2012-11-24T14:29:25Z</time>
      </trkpt>
      <trkpt lat="43.53843" lon="6.61102">
        <ele>384.196</ele>
        <time>2012-11-24T14:29:26Z</time>
      </trkpt>
      <trkpt lat="43.53808" lon="6.61165">
        <ele>382.016</ele>
        <time>2012-11-24T14:29:34Z</time>
      </trkpt>
      <trkpt lat="43.53795" lon="6.61199">
        <ele>381.457</ele>
        <time>2012-11-24T14:29:38Z</time>
      </trkpt>
      <trkpt lat="43.53778" lon="6.61224">
        <ele>380.589</ele>
        <time>2012-11-24T14:29:42Z</time>
      </trkpt>
      <trkpt lat="43.53767" lon="6.61226">
        <ele>380.514</ele>
        <time>2012-11-24T14:29:44Z</time>
      </trkpt>
      <trkpt lat="43.53736" lon="6.61238">
        <ele>380.132</ele>
        <time>2012-11-24T14:29:50Z</time>
      </trkpt>
      <trkpt lat="43.53722" lon="6.61267">
        <ele>378.706</ele>
        <time>2012-11-24T14:29:54Z</time>
      </trkpt>
      <trkpt lat="43.53709" lon="6.61277">
        <ele>377.676</ele>
        <time>2012-11-24T14:29:57Z</time>
      </trkpt>
      <trkpt lat="43.53704" lon="6.61275">
        <ele>377.534</ele>
        <time>2012-11-24T14:29:58Z</time>
      </trkpt>
      <trkpt lat="43.53688" lon="6.6127">
        <ele>377.325</ele>
        <time>2012-11-24T14:30:03Z</time>
      </trkpt>
      <trkpt lat="43.53685" lon="6.6127">
        <ele>377.077</ele>
        <time>2012-11-24T14:30:07Z</time>
      </trkpt>
      <trkpt lat="43.53676" lon="6.61272">
        <ele>376.572</ele>
        <time>2012-11-24T14:30:28Z</time>
      </trkpt>
      <trkpt lat="43.5366" lon="6.6128">
        <ele>375.837</ele>
        <time>2012-11-24T14:30:33Z</time>
      </trkpt>
      <trkpt lat="43.53651" lon="6.61283">
        <ele>375.349</ele>
        <time>2012-11-24T14:30:35Z</time>
      </trkpt>
      <trkpt lat="43.53621" lon="6.61285">
        <ele>374.27</ele>
        <time>2012-11-24T14:30:41Z</time>
      </trkpt>
      <trkpt lat="43.53584" lon="6.61273">
        <ele>372.334</ele>
        <time>2012-11-24T14:30:47Z</time>
      </trkpt>
      <trkpt lat="43.53538" lon="6.61256">
        <ele>370.087</ele>
        <time>2012-11-24T14:30:54Z</time>
      </trkpt>
      <trkpt lat="43.53504" lon="6.61259">
        <ele>368.698</ele>
        <time>2012-11-24T14:30:59Z</time>
      </trkpt>
      <trkpt lat="43.53465" lon="6.61276">
        <ele>367.022</ele>
        <time>2012-11-24T14:31:05Z</time>
      </trkpt>
      <trkpt lat="43.53445" lon="6.61287">
        <ele>365.759</ele>
        <time>2012-11-24T14:31:08Z</time>
      </trkpt>
      <trkpt lat="43.53424" lon="6.61302">
        <ele>364.581</ele>
        <time>2012-11-24T14:31:11Z</time>
      </trkpt>
      <trkpt lat="43.53386" lon="6.61342">
        <ele>362.226</ele>
        <time>2012-11-24T14:31:17Z</time>
      </trkpt>
      <trkpt lat="43.53355" lon="6.61393">
        <ele>360.019</ele>
        <time>2012-11-24T14:31:23Z</time>
      </trkpt>
      <trkpt lat="43.53346" lon="6.61409">
        <ele>359.691</ele>
        <time>2012-11-24T14:31:25Z</time>
      </trkpt>
      <trkpt lat="43.53333" lon="6.61454">
        <ele>358.991</ele>
        <time>2012-11-24T14:31:30Z</time>
      </trkpt>
      <trkpt lat="43.53336" lon="6.6151">
        <ele>359.475</ele>
        <time>2012-11-24T14:31:37Z</time>
      </trkpt>
      <trkpt lat="43.53342" lon="6.61568">
        <ele>360.45</ele>
        <time>2012-11-24T14:31:45Z</time>
      </trkpt>
      <trkpt lat="43.53345" lon="6.61624">
        <ele>361.069</ele>
        <time>2012-11-24T14:31:53Z</time>
      </trkpt>
      <trkpt lat="43.53343" lon="6.61645">
        <ele>361.066</ele>
        <time>2012-11-24T14:31:56Z</time>
      </trkpt>
      <trkpt lat="43.5333" lon="6.61685">
        <ele>362.078</ele>
        <time>2012-11-24T14:32:03Z</time>
      </trkpt>
      <trkpt lat="43.5332" lon="6.61715">
        <ele>362.812</ele>
        <time>2012-11-24T14:32:09Z</time>
      </trkpt>
      <trkpt lat="43.53324" lon="6.6173">
        <ele>362.742</ele>
        <time>2012-11-24T14:32:12Z</time>
      </trkpt>
      <trkpt lat="43.53337" lon="6.61755">
        <ele>362.019</ele>
        <time>2012-11-24T14:32:17Z</time>
      </trkpt>
      <trkpt lat="43.53327" lon="6.61778">
        <ele>361.202</ele>
        <time>2012-11-24T14:32:21Z</time>
      </trkpt>
      <trkpt lat="43.53317" lon="6.61795">
        <ele>360.497</ele>
        <time>2012-11-24T14:32:24Z</time>
      </trkpt>
      <trkpt lat="43.53317" lon="6.61818">
        <ele>359.648</ele>
        <time>2012-11-24T14:32:27Z</time>
      </trkpt>
      <trkpt lat="43.53334" lon="6.61864">
        <ele>358.272</ele>
        <time>2012-11-24T14:32:33Z</time>
      </trkpt>
      <trkpt lat="43.53352" lon="6.61897">
        <ele>357.885</ele>
        <time>2012-11-24T14:32:38Z</time>
      </trkpt>
      <trkpt lat="43.53368" lon="6.61929">
        <ele>357.919</ele>
        <time>2012-11-24T14:32:43Z</time>
      </trkpt>
      <trkpt lat="43.5338" lon="6.61962">
        <ele>357.937</ele>
        <time>2012-11-24T14:32:48Z</time>
      </trkpt>
      <trkpt lat="43.5337" lon="6.61976">
        <ele>357.821</ele>
        <time>2012-11-24T14:32:51Z</time>
      </trkpt>
      <trkpt lat="43.53326" lon="6.62019">
        <ele>355.937</ele>
        <time>2012-11-24T14:33:00Z</time>
      </trkpt>
      <trkpt lat="43.53301" lon="6.62053">
        <ele>354.879</ele>
        <time>2012-11-24T14:33:05Z</time>
      </trkpt>
      <trkpt lat="43.53286" lon="6.62083">
        <ele>354.063</ele>
        <time>2012-11-24T14:33:09Z</time>
      </trkpt>
      <trkpt lat="43.53278" lon="6.62107">
        <ele>353.512</ele>
        <time>2012-11-24T14:33:12Z</time>
      </trkpt>
      <trkpt lat="43.53259" lon="6.62144">
        <ele>352.25</ele>
        <time>2012-11-24T14:33:17Z</time>
      </trkpt>
      <trkpt lat="43.53248" lon="6.62176">
        <ele>351.554</ele>
        <time>2012-11-24T14:33:21Z</time>
      </trkpt>
      <trkpt lat="43.53245" lon="6.62191">
        <ele>351.303</ele>
        <time>2012-11-24T14:33:23Z</time>
      </trkpt>
      <trkpt lat="43.53247" lon="6.62208">
        <ele>350.853</ele>
        <time>2012-11-24T14:33:25Z</time>
      </trkpt>
      <trkpt lat="43.53241" lon="6.62229">
        <ele>349.917</ele>
        <time>2012-11-24T14:33:29Z</time>
      </trkpt>
      <trkpt lat="43.53229" lon="6.62223">
        <ele>349.178</ele>
        <time>2012-11-24T14:33:32Z</time>
      </trkpt>
      <trkpt lat="43.53196" lon="6.62199">
        <ele>346.457</ele>
        <time>2012-11-24T14:33:38Z</time>
      </trkpt>
      <trkpt lat="43.53168" lon="6.62189">
        <ele>345.073</ele>
        <time>2012-11-24T14:33:42Z</time>
      </trkpt>
      <trkpt lat="43.53161" lon="6.62189">
        <ele>344.686</ele>
        <time>2012-11-24T14:33:43Z</time>
      </trkpt>
      <trkpt lat="43.53116" lon="6.62174">
        <ele>342.008</ele>
        <time>2012-11-24T14:33:49Z</time>
      </trkpt>
      <trkpt lat="43.53095" lon="6.62161">
        <ele>341.123</ele>
        <time>2012-11-24T14:33:52Z</time>
      </trkpt>
      <trkpt lat="43.53073" lon="6.62151">
        <ele>340.54</ele>
        <time>2012-11-24T14:33:56Z</time>
      </trkpt>
      <trkpt lat="43.53061" lon="6.62164">
        <ele>340.026</ele>
        <time>2012-11-24T14:33:59Z</time>
      </trkpt>
      <trkpt lat="43.53054" lon="6.62178">
        <ele>339.651</ele>
        <time>2012-11-24T14:34:01Z</time>
      </trkpt>
      <trkpt lat="43.5304" lon="6.62211">
        <ele>338.915</ele>
        <time>2012-11-24T14:34:05Z</time>
      </trkpt>
      <trkpt lat="43.53034" lon="6.62229">
        <ele>338.673</ele>
        <time>2012-11-24T14:34:07Z</time>
      </trkpt>
      <trkpt lat="43.53018" lon="6.62258">
        <ele>338.455</ele>
        <time>2012-11-24T14:34:11Z</time>
      </trkpt>
      <trkpt lat="43.5297" lon="6.62284">
        <ele>338.676</ele>
        <time>2012-11-24T14:34:19Z</time>
      </trkpt>
      <trkpt lat="43.52948" lon="6.62301">
        <ele>339.203</ele>
        <time>2012-11-24T14:34:23Z</time>
      </trkpt>
      <trkpt lat="43.52929" lon="6.62325">
        <ele>339.674</ele>
        <time>2012-11-24T14:34:28Z</time>
      </trkpt>
      <trkpt lat="43.52921" lon="6.62336">
        <ele>339.522</ele>
        <time>2012-11-24T14:34:30Z</time>
      </trkpt>
      <trkpt lat="43.52897" lon="6.62373">
        <ele>337.087</ele>
        <time>2012-11-24T14:34:36Z</time>
      </trkpt>
      <trkpt lat="43.52875" lon="6.624">
        <ele>334.206</ele>
        <time>2012-11-24T14:34:40Z</time>
      </trkpt>
      <trkpt lat="43.52858" lon="6.62423">
        <ele>331.723</ele>
        <time>2012-11-24T14:34:43Z</time>
      </trkpt>
      <trkpt lat="43.52835" lon="6.6245">
        <ele>328.008</ele>
        <time>2012-11-24T14:34:47Z</time>
      </trkpt>
      <trkpt lat="43.52817" lon="6.62475">
        <ele>325.152</ele>
        <time>2012-11-24T14:34:51Z</time>
      </trkpt>
      <trkpt lat="43.52815" lon="6.62497">
        <ele>323.84</ele>
        <time>2012-11-24T14:34:54Z</time>
      </trkpt>
      <trkpt lat="43.52818" lon="6.62505">
        <ele>323.7</ele>
        <time>2012-11-24T14:34:55Z</time>
      </trkpt>
      <trkpt lat="43.52826" lon="6.6253">
        <ele>322.748</ele>
        <time>2012-11-24T14:34:58Z</time>
      </trkpt>
      <trkpt lat="43.52834" lon="6.62564">
        <ele>320.996</ele>
        <time>2012-11-24T14:35:02Z</time>
      </trkpt>
      <trkpt lat="43.52826" lon="6.62589">
        <ele>319.363</ele>
        <time>2012-11-24T14:35:05Z</time>
      </trkpt>
      <trkpt lat="43.52803" lon="6.62612">
        <ele>317.272</ele>
        <time>2012-11-24T14:35:09Z</time>
      </trkpt>
      <trkpt lat="43.52789" lon="6.62619">
        <ele>316.001</ele>
        <time>2012-11-24T14:35:11Z</time>
      </trkpt>
      <trkpt lat="43.52774" lon="6.62624">
        <ele>314.851</ele>
        <time>2012-11-24T14:35:13Z</time>
      </trkpt>
      <trkpt lat="43.52749" lon="6.62637">
        <ele>312.53</ele>
        <time>2012-11-24T14:35:17Z</time>
      </trkpt>
      <trkpt lat="43.52733" lon="6.62654">
        <ele>310.669</ele>
        <time>2012-11-24T14:35:20Z</time>
      </trkpt>
      <trkpt lat="43.5272" lon="6.62659">
        <ele>309.157</ele>
        <time>2012-11-24T14:35:23Z</time>
      </trkpt>
      <trkpt lat="43.52714" lon="6.62648">
        <ele>308.27</ele>
        <time>2012-11-24T14:35:25Z</time>
      </trkpt>
      <trkpt lat="43.52702" lon="6.62608">
        <ele>305.689</ele>
        <time>2012-11-24T14:35:30Z</time>
      </trkpt>
      <trkpt lat="43.52696" lon="6.6258">
        <ele>303.493</ele>
        <time>2012-11-24T14:35:34Z</time>
      </trkpt>
      <trkpt lat="43.52691" lon="6.62563">
        <ele>302.159</ele>
        <time>2012-11-24T14:35:38Z</time>
      </trkpt>
      <trkpt lat="43.5269" lon="6.62558">
        <ele>301.823</ele>
        <time>2012-11-24T14:35:39Z</time>
      </trkpt>
      <trkpt lat="43.52681" lon="6.62551">
        <ele>301.091</ele>
        <time>2012-11-24T14:35:43Z</time>
      </trkpt>
      <trkpt lat="43.52689" lon="6.62556">
        <ele>300.196</ele>
        <time>2012-11-24T14:35:47Z</time>
      </trkpt>
      <trkpt lat="43.52692" lon="6.62564">
        <ele>299.083</ele>
        <time>2012-11-24T14:35:51Z</time>
      </trkpt>
      <trkpt lat="43.52688" lon="6.62552">
        <ele>297.566</ele>
        <time>2012-11-24T14:35:55Z</time>
      </trkpt>
      <trkpt lat="43.52687" lon="6.62548">
        <ele>297.329</ele>
        <time>2012-11-24T14:35:56Z</time>
      </trkpt>
      <trkpt lat="43.52678" lon="6.62525">
        <ele>295.254</ele>
        <time>2012-11-24T14:36:03Z</time>
      </trkpt>
      <trkpt lat="43.52671" lon="6.62514">
        <ele>293.821</ele>
        <time>2012-11-24T14:36:07Z</time>
      </trkpt>
      <trkpt lat="43.52667" lon="6.62511">
        <ele>293.046</ele>
        <time>2012-11-24T14:36:09Z</time>
      </trkpt>
      <trkpt lat="43.52673" lon="6.62749">
        <ele>290.199</ele>
        <time>2012-11-24T14:36:14Z</time>
      </trkpt>
      <trkpt lat="43.52671" lon="6.62769">
        <ele>288.921</ele>
        <time>2012-11-24T14:36:16Z</time>
      </trkpt>
      <trkpt lat="43.52667" lon="6.62787">
        <ele>288.096</ele>
        <time>2012-11-24T14:36:18Z</time>
      </trkpt>
      <trkpt lat="43.52653" lon="6.62809">
        <ele>286.213</ele>
        <time>2012-11-24T14:36:21Z</time>
      </trkpt>
      <trkpt lat="43.52639" lon="6.62812">
        <ele>285.322</ele>
        <time>2012-11-24T14:36:23Z</time>
      </trkpt>
      <trkpt lat="43.52581" lon="6.62817">
        <ele>283.188</ele>
        <time>2012-11-24T14:36:31Z</time>
      </trkpt>
      <trkpt lat="43.52574" lon="6.62818">
        <ele>283.138</ele>
        <time>2012-11-24T14:36:32Z</time>
      </trkpt>
      <trkpt lat="43.52548" lon="6.62833">
        <ele>282.818</ele>
        <time>2012-11-24T14:36:37Z</time>
      </trkpt>
      <trkpt lat="43.5254" lon="6.62846">
        <ele>282.585</ele>
        <time>2012-11-24T14:36:39Z</time>
      </trkpt>
      <trkpt lat="43.52504" lon="6.62903">
        <ele>281.01</ele>
        <time>2012-11-24T14:36:47Z</time>
      </trkpt>
      <trkpt lat="43.52473" lon="6.62936">
        <ele>277.545</ele>
        <time>2012-11-24T14:36:52Z</time>
      </trkpt>
      <trkpt lat="43.52442" lon="6.62974">
        <ele>273.22</ele>
        <time>2012-11-24T14:36:57Z</time>
      </trkpt>
      <trkpt lat="43.52417" lon="6.63017">
        <ele>269.814</ele>
        <time>2012-11-24T14:37:02Z</time>
      </trkpt>
      <trkpt lat="43.52408" lon="6.63046">
        <ele>269.091</ele>
        <time>2012-11-24T14:37:06Z</time>
      </trkpt>
      <trkpt lat="43.52408" lon="6.63078">
        <ele>267.053</ele>
        <time>2012-11-24T14:37:10Z</time>
      </trkpt>
      <trkpt lat="43.5239" lon="6.63138">
        <ele>262.391</ele>
        <time>2012-11-24T14:37:16Z</time>
      </trkpt>
      <trkpt lat="43.52382" lon="6.63165">
        <ele>260.715</ele>
        <time>2012-11-24T14:37:19Z</time>
      </trkpt>
      <trkpt lat="43.52377" lon="6.63183">
        <ele>260.283</ele>
        <time>2012-11-24T14:37:22Z</time>
      </trkpt>
      <trkpt lat="43.52375" lon="6.63192">
        <ele>260.465</ele>
        <time>2012-11-24T14:37:26Z</time>
      </trkpt>
      <trkpt lat="43.52373" lon="6.63202">
        <ele>260.006</ele>
        <time>2012-11-24T14:37:51Z</time>
      </trkpt>
      <trkpt lat="43.52351" lon="6.63188">
        <ele>259.473</ele>
        <time>2012-11-24T14:37:54Z</time>
      </trkpt>
      <trkpt lat="43.52334" lon="6.63181">
        <ele>257.811</ele>
        <time>2012-11-24T14:37:59Z</time>
      </trkpt>
      <trkpt lat="43.52322" lon="6.63173">
        <ele>256.683</ele>
        <time>2012-11-24T14:38:03Z</time>
      </trkpt>
      <trkpt lat="43.52312" lon="6.63162">
        <ele>255.632</ele>
        <time>2012-11-24T14:38:07Z</time>
      </trkpt>
      <trkpt lat="43.52307" lon="6.63155">
        <ele>255.009</ele>
        <time>2012-11-24T14:38:09Z</time>
      </trkpt>
      <trkpt lat="43.52302" lon="6.63147">
        <ele>254.086</ele>
        <time>2012-11-24T14:38:11Z</time>
      </trkpt>
      <trkpt lat="43.52283" lon="6.63119">
        <ele>252.89</ele>
        <time>2012-11-24T14:38:17Z</time>
      </trkpt>
      <trkpt lat="43.52274" lon="6.6311">
        <ele>252.171</ele>
        <time>2012-11-24T14:38:20Z</time>
      </trkpt>
      <trkpt lat="43.5226" lon="6.63103">
        <ele>250.688</ele>
        <time>2012-11-24T14:38:25Z</time>
      </trkpt>
      <trkpt lat="43.52255" lon="6.63099">
        <ele>249.882</ele>
        <time>2012-11-24T14:38:27Z</time>
      </trkpt>
      <trkpt lat="43.52239" lon="6.63094">
        <ele>247.278</ele>
        <time>2012-11-24T14:38:33Z</time>
      </trkpt>
      <trkpt lat="43.52237" lon="6.63093">
        <ele>246.978</ele>
        <time>2012-11-24T14:38:34Z</time>
      </trkpt>
      <trkpt lat="43.52228" lon="6.63089">
        <ele>244.78</ele>
        <time>2012-11-24T14:38:37Z</time>
      </trkpt>
      <trkpt lat="43.52212" lon="6.63078">
        <ele>240.789</ele>
        <time>2012-11-24T14:38:43Z</time>
      </trkpt>
      <trkpt lat="43.522" lon="6.63073">
        <ele>238.476</ele>
        <time>2012-11-24T14:38:47Z</time>
      </trkpt>
      <trkpt lat="43.52188" lon="6.63069">
        <ele>236.576</ele>
        <time>2012-11-24T14:38:51Z</time>
      </trkpt>
      <trkpt lat="43.52175" lon="6.63065">
        <ele>234.316</ele>
        <time>2012-11-24T14:38:55Z</time>
      </trkpt>
      <trkpt lat="43.52169" lon="6.63062">
        <ele>232.874</ele>
        <time>2012-11-24T14:38:58Z</time>
      </trkpt>
      <trkpt lat="43.52158" lon="6.63046">
        <ele>230</ele>
        <time>2012-11-24T14:39:37Z</time>
      </trkpt>
      <trkpt lat="43.52157" lon="6.63043">
        <ele>229.171</ele>
        <time>2012-11-24T14:39:38Z</time>
      </trkpt>
      <trkpt lat="43.52144" lon="6.63019">
        <ele>223.161</ele>
        <time>2012-11-24T14:39:46Z</time>
      </trkpt>
      <trkpt lat="43.52136" lon="6.62999">
        <ele>219.517</ele>
        <time>2012-11-24T14:39:51Z</time>
      </trkpt>
      <trkpt lat="43.52128" lon="6.62984">
        <ele>217.384</ele>
        <time>2012-11-24T14:39:55Z</time>
      </trkpt>
      <trkpt lat="43.52125" lon="6.6298">
        <ele>217.225</ele>
        <time>2012-11-24T14:39:56Z</time>
      </trkpt>
      <trkpt lat="43.52118" lon="6.62968">
        <ele>216.552</ele>
        <time>2012-11-24T14:40:00Z</time>
      </trkpt>
      <trkpt lat="43.52108" lon="6.62951">
        <ele>214.408</ele>
        <time>2012-11-24T14:40:06Z</time>
      </trkpt>
      <trkpt lat="43.521" lon="6.62927">
        <ele>210.467</ele>
        <time>2012-11-24T14:40:12Z</time>
      </trkpt>
      <trkpt lat="43.52095" lon="6.629">
        <ele>206.858</ele>
        <time>2012-11-24T14:40:18Z</time>
      </trkpt>
      <trkpt lat="43.52092" lon="6.62879">
        <ele>204.187</ele>
        <time>2012-11-24T14:40:22Z</time>
      </trkpt>
      <trkpt lat="43.52092" lon="6.62873">
        <ele>204.001</ele>
        <time>2012-11-24T14:40:23Z</time>
      </trkpt>
      <trkpt lat="43.52097" lon="6.62851">
        <ele>204.3</ele>
        <time>2012-11-24T14:40:28Z</time>
      </trkpt>
      <trkpt lat="43.52101" lon="6.62826">
        <ele>205.25</ele>
        <time>2012-11-24T14:40:34Z</time>
      </trkpt>
      <trkpt lat="43.52104" lon="6.62793">
        <ele>205.016</ele>
        <time>2012-11-24T14:40:41Z</time>
      </trkpt>
      <trkpt lat="43.52107" lon="6.62763">
        <ele>202.326</ele>
        <time>2012-11-24T14:40:47Z</time>
      </trkpt>
      <trkpt lat="43.52107" lon="6.62756">
        <ele>201.395</ele>
        <time>2012-11-24T14:40:49Z</time>
      </trkpt>
      <trkpt lat="43.52105" lon="6.62736">
        <ele>197.564</ele>
        <time>2012-11-24T14:40:54Z</time>
      </trkpt>
      <trkpt lat="43.521" lon="6.6271">
        <ele>192.027</ele>
        <time>2012-11-24T14:41:00Z</time>
      </trkpt>
      <trkpt lat="43.52096" lon="6.62689">
        <ele>189.059</ele>
        <time>2012-11-24T14:41:05Z</time>
      </trkpt>
      <trkpt lat="43.52095" lon="6.62685">
        <ele>188.485</ele>
        <time>2012-11-24T14:41:06Z</time>
      </trkpt>
      <trkpt lat="43.5209" lon="6.62658">
        <ele>186.449</ele>
        <time>2012-11-24T14:41:11Z</time>
      </trkpt>
      <trkpt lat="43.52081" lon="6.62636">
        <ele>183.314</ele>
        <time>2012-11-24T14:41:16Z</time>
      </trkpt>
      <trkpt lat="43.52068" lon="6.62627">
        <ele>180.199</ele>
        <time>2012-11-24T14:41:20Z</time>
      </trkpt>
      <trkpt lat="43.52061" lon="6.62622">
        <ele>178.732</ele>
        <time>2012-11-24T14:41:22Z</time>
      </trkpt>
      <trkpt lat="43.52045" lon="6.62615">
        <ele>177.154</ele>
        <time>2012-11-24T14:41:27Z</time>
      </trkpt>
      <trkpt lat="43.52042" lon="6.62621">
        <ele>176.845</ele>
        <time>2012-11-24T14:41:31Z</time>
      </trkpt>
      <trkpt lat="43.5204" lon="6.62627">
        <ele>176.533</ele>
        <time>2012-11-24T14:43:58Z</time>
      </trkpt>
      <trkpt lat="43.52031" lon="6.62648">
        <ele>175.974</ele>
        <time>2012-11-24T14:44:04Z</time>
      </trkpt>
      <trkpt lat="43.52021" lon="6.6267">
        <ele>175.035</ele>
        <time>2012-11-24T14:44:09Z</time>
      </trkpt>
      <trkpt lat="43.52015" lon="6.62684">
        <ele>174.373</ele>
        <time>2012-11-24T14:44:12Z</time>
      </trkpt>
      <trkpt lat="43.51997" lon="6.62725">
        <ele>172.735</ele>
        <time>2012-11-24T14:44:20Z</time>
      </trkpt>
      <trkpt lat="43.51981" lon="6.62745">
        <ele>172.143</ele>
        <time>2012-11-24T14:44:26Z</time>
      </trkpt>
      <trkpt lat="43.5197" lon="6.62761">
        <ele>170.345</ele>
        <time>2012-11-24T14:44:32Z</time>
      </trkpt>
      <trkpt lat="43.51966" lon="6.62783">
        <ele>168.454</ele>
        <time>2012-11-24T14:44:37Z</time>
      </trkpt>
      <trkpt lat="43.51964" lon="6.62788">
        <ele>167.931</ele>
        <time>2012-11-24T14:44:38Z</time>
      </trkpt>
      <trkpt lat="43.51948" lon="6.62816">
        <ele>163.541</ele>
        <time>2012-11-24T14:44:44Z</time>
      </trkpt>
      <trkpt lat="43.51937" lon="6.6282">
        <ele>162.008</ele>
        <time>2012-11-24T14:44:46Z</time>
      </trkpt>
      <trkpt lat="43.51908" lon="6.62823">
        <ele>157.823</ele>
        <time>2012-11-24T14:44:50Z</time>
      </trkpt>
      <trkpt lat="43.51886" lon="6.62812">
        <ele>154.511</ele>
        <time>2012-11-24T14:44:55Z</time>
      </trkpt>
      <trkpt lat="43.51881" lon="6.62802">
        <ele>153.034</ele>
        <time>2012-11-24T14:44:57Z</time>
      </trkpt>
      <trkpt lat="43.51863" lon="6.62763">
        <ele>147.491</ele>
        <time>2012-11-24T14:45:04Z</time>
      </trkpt>
      <trkpt lat="43.5186" lon="6.62757">
        <ele>147.285</ele>
        <time>2012-11-24T14:45:05Z</time>
      </trkpt>
      <trkpt lat="43.51843" lon="6.62714">
        <ele>143.869</ele>
        <time>2012-11-24T14:45:11Z</time>
      </trkpt>
      <trkpt lat="43.5183" lon="6.62683">
        <ele>142.903</ele>
        <time>2012-11-24T14:45:15Z</time>
      </trkpt>
      <trkpt lat="43.5182" lon="6.62622">
        <ele>139.147</ele>
        <time>2012-11-24T14:45:22Z</time>
      </trkpt>
      <trkpt lat="43.51817" lon="6.62574">
        <ele>137.485</ele>
        <time>2012-11-24T14:45:27Z</time>
      </trkpt>
      <trkpt lat="43.51816" lon="6.62555">
        <ele>136.581</ele>
        <time>2012-11-24T14:45:31Z</time>
      </trkpt>
      <trkpt lat="43.51816" lon="6.62542">
        <ele>135.133</ele>
        <time>2012-11-24T14:45:36Z</time>
      </trkpt>
      <trkpt lat="43.51821" lon="6.62535">
        <ele>134.62</ele>
        <time>2012-11-24T14:46:14Z</time>
      </trkpt>
      <trkpt lat="43.51836" lon="6.62524">
        <ele>135.934</ele>
        <time>2012-11-24T14:46:21Z</time>
      </trkpt>
      <trkpt lat="43.51847" lon="6.6251">
        <ele>137.508</ele>
        <time>2012-11-24T14:46:27Z</time>
      </trkpt>
      <trkpt lat="43.51857" lon="6.62496">
        <ele>138.225</ele>
        <time>2012-11-24T14:46:33Z</time>
      </trkpt>
      <trkpt lat="43.51867" lon="6.62482">
        <ele>138.923</ele>
        <time>2012-11-24T14:46:39Z</time>
      </trkpt>
      <trkpt lat="43.51877" lon="6.62471">
        <ele>138.977</ele>
        <time>2012-11-24T14:46:44Z</time>
      </trkpt>
      <trkpt lat="43.51891" lon="6.62453">
        <ele>139.543</ele>
        <time>2012-11-24T14:46:51Z</time>
      </trkpt>
      <trkpt lat="43.51904" lon="6.62435">
        <ele>138.578</ele>
        <time>2012-11-24T14:46:57Z</time>
      </trkpt>
      <trkpt lat="43.51924" lon="6.62411">
        <ele>137.455</ele>
        <time>2012-11-24T14:47:03Z</time>
      </trkpt>
      <trkpt lat="43.51937" lon="6.62379">
        <ele>137.546</ele>
        <time>2012-11-24T14:47:10Z</time>
      </trkpt>
      <trkpt lat="43.51947" lon="6.62353">
        <ele>137.958</ele>
        <time>2012-11-24T14:47:16Z</time>
      </trkpt>
      <trkpt lat="43.51959" lon="6.62324">
        <ele>139.34</ele>
        <time>2012-11-24T14:47:23Z</time>
      </trkpt>
      <trkpt lat="43.5197" lon="6.62305">
        <ele>139.752</ele>
        <time>2012-11-24T14:47:29Z</time>
      </trkpt>
      <trkpt lat="43.5198" lon="6.62279">
        <ele>138.82</ele>
        <time>2012-11-24T14:47:35Z</time>
      </trkpt>
      <trkpt lat="43.51989" lon="6.62252">
        <ele>138.624</ele>
        <time>2012-11-24T14:47:41Z</time>
      </trkpt>
      <trkpt lat="43.52002" lon="6.6223">
        <ele>140.259</ele>
        <time>2012-11-24T14:47:47Z</time>
      </trkpt>
      <trkpt lat="43.52013" lon="6.62209">
        <ele>141.189</ele>
        <time>2012-11-24T14:47:53Z</time>
      </trkpt>
      <trkpt lat="43.52027" lon="6.62192">
        <ele>141.857</ele>
        <time>2012-11-24T14:48:00Z</time>
      </trkpt>
      <trkpt lat="43.5204" lon="6.62185">
        <ele>143.036</ele>
        <time>2012-11-24T14:48:07Z</time>
      </trkpt>
      <trkpt lat="43.52044" lon="6.62183">
        <ele>143.902</ele>
        <time>2012-11-24T14:48:11Z</time>
      </trkpt>
      <trkpt lat="43.52045" lon="6.62183">
        <ele>144.151</ele>
        <time>2012-11-24T14:48:15Z</time>
      </trkpt>
      <trkpt lat="43.52045" lon="6.62183">
        <ele>144.704</ele>
        <time>2012-11-24T14:48:19Z</time>
      </trkpt>
      <trkpt lat="43.5205" lon="6.62182">
        <ele>144.815</ele>
        <time>2012-11-24T14:48:23Z</time>
      </trkpt>
      <trkpt lat="43.52061" lon="6.6218">
        <ele>145.634</ele>
        <time>2012-11-24T14:48:30Z</time>
      </trkpt>
      <trkpt lat="43.52076" lon="6.62171">
        <ele>145.593</ele>
        <time>2012-11-24T14:48:37Z</time>
      </trkpt>
      <trkpt lat="43.52099" lon="6.62143">
        <ele>144.917</ele>
        <time>2012-11-24T14:48:46Z</time>
      </trkpt>
      <trkpt lat="43.52104" lon="6.62124">
        <ele>144.286</ele>
        <time>2012-11-24T14:48:50Z</time>
      </trkpt>
      <trkpt lat="43.52107" lon="6.62107">
        <ele>143.82</ele>
        <time>2012-11-24T14:48:53Z</time>
      </trkpt>
      <trkpt lat="43.52109" lon="6.62088">
        <ele>143.038</ele>
        <time>2012-11-24T14:48:56Z</time>
      </trkpt>
      <trkpt lat="43.52121" lon="6.62042">
        <ele>142.174</ele>
        <time>2012-11-24T14:49:03Z</time>
      </trkpt>
      <trkpt lat="43.52123" lon="6.62037">
        <ele>142.294</ele>
        <time>2012-11-24T14:49:04Z</time>
      </trkpt>
      <trkpt lat="43.52128" lon="6.62028">
        <ele>142.504</ele>
        <time>2012-11-24T14:49:06Z</time>
      </trkpt>
      <trkpt lat="43.5214" lon="6.62012">
        <ele>142.558</ele>
        <time>2012-11-24T14:49:10Z</time>
      </trkpt>
      <trkpt lat="43.52151" lon="6.61999">
        <ele>142.2</ele>
        <time>2012-11-24T14:49:13Z</time>
      </trkpt>
      <trkpt lat="43.5216" lon="6.61977">
        <ele>141.865</ele>
        <time>2012-11-24T14:49:17Z</time>
      </trkpt>
      <trkpt lat="43.52164" lon="6.61961">
        <ele>141.64</ele>
        <time>2012-11-24T14:49:20Z</time>
      </trkpt>
      <trkpt lat="43.52165" lon="6.61952">
        <ele>141.558</ele>
        <time>2012-11-24T14:49:24Z</time>
      </trkpt>
      <trkpt lat="43.52152" lon="6.61949">
        <ele>140.744</ele>
        <time>2012-11-24T14:49:28Z</time>
      </trkpt>
      <trkpt lat="43.52128" lon="6.61952">
        <ele>137.515</ele>
        <time>2012-11-24T14:49:34Z</time>
      </trkpt>
      <trkpt lat="43.52123" lon="6.61952">
        <ele>136.725</ele>
        <time>2012-11-24T14:49:35Z</time>
      </trkpt>
      <trkpt lat="43.521" lon="6.61949">
        <ele>133.501</ele>
        <time>2012-11-24T14:49:41Z</time>
      </trkpt>
      <trkpt lat="43.52093" lon="6.61948">
        <ele>132.273</ele>
        <time>2012-11-24T14:49:43Z</time>
      </trkpt>
      <trkpt lat="43.52071" lon="6.61945">
        <ele>128.917</ele>
        <time>2012-11-24T14:49:49Z</time>
      </trkpt>
      <trkpt lat="43.52058" lon="6.61935">
        <ele>126.431</ele>
        <time>2012-11-24T14:49:54Z</time>
      </trkpt>
      <trkpt lat="43.5205" lon="6.61926">
        <ele>124.567</ele>
        <time>2012-11-24T14:49:57Z</time>
      </trkpt>
      <trkpt lat="43.52032" lon="6.61907">
        <ele>120.84</ele>
        <time>2012-11-24T14:50:02Z</time>
      </trkpt>
      <trkpt lat="43.52013" lon="6.61895">
        <ele>117.009</ele>
        <time>2012-11-24T14:50:06Z</time>
      </trkpt>
      <trkpt lat="43.51996" lon="6.61884">
        <ele>113.13</ele>
        <time>2012-11-24T14:50:10Z</time>
      </trkpt>
      <trkpt lat="43.5197" lon="6.61881">
        <ele>108.568</ele>
        <time>2012-11-24T14:50:16Z</time>
      </trkpt>
      <trkpt lat="43.51967" lon="6.61881">
        <ele>107.726</ele>
        <time>2012-11-24T14:50:17Z</time>
      </trkpt>
      <trkpt lat="43.51957" lon="6.6187">
        <ele>106.099</ele>
        <time>2012-11-24T14:50:20Z</time>
      </trkpt>
      <trkpt lat="43.51958" lon="6.61859">
        <ele>105.193</ele>
        <time>2012-11-24T14:50:22Z</time>
      </trkpt>
      <trkpt lat="43.51962" lon="6.61835">
        <ele>103.911</ele>
        <time>2012-11-24T14:50:25Z</time>
      </trkpt>
      <trkpt lat="43.51971" lon="6.61797">
        <ele>102.015</ele>
        <time>2012-11-24T14:50:29Z</time>
      </trkpt>
      <trkpt lat="43.51976" lon="6.61761">
        <ele>100.622</ele>
        <time>2012-11-24T14:50:36Z</time>
      </trkpt>
      <trkpt lat="43.51991" lon="6.61699">
        <ele>99.245</ele>
        <time>2012-11-24T14:50:40Z</time>
      </trkpt>
      <trkpt lat="43.51994" lon="6.61682">
        <ele>98.94</ele>
        <time>2012-11-24T14:50:42Z</time>
      </trkpt>
      <trkpt lat="43.51996" lon="6.61667">
        <ele>98.698</ele>
        <time>2012-11-24T14:50:44Z</time>
      </trkpt>
      <trkpt lat="43.51989" lon="6.61615">
        <ele>98.261</ele>
        <time>2012-11-24T14:50:52Z</time>
      </trkpt>
      <trkpt lat="43.51987" lon="6.61591">
        <ele>97.765</ele>
        <time>2012-11-24T14:50:56Z</time>
      </trkpt>
      <trkpt lat="43.51985" lon="6.61563">
        <ele>97.267</ele>
        <time>2012-11-24T14:51:01Z</time>
      </trkpt>
      <trkpt lat="43.51987" lon="6.61557">
        <ele>97.078</ele>
        <time>2012-11-24T14:51:02Z</time>
      </trkpt>
      <trkpt lat="43.51999" lon="6.61533">
        <ele>95.351</ele>
        <time>2012-11-24T14:51:07Z</time>
      </trkpt>
      <trkpt lat="43.52003" lon="6.6153">
        <ele>94.923</ele>
        <time>2012-11-24T14:51:11Z</time>
      </trkpt>
      <trkpt lat="43.52011" lon="6.61519">
        <ele>94.221</ele>
        <time>2012-11-24T14:51:17Z</time>
      </trkpt>
      <trkpt lat="43.52012" lon="6.61516">
        <ele>94.2</ele>
        <time>2012-11-24T14:51:18Z</time>
      </trkpt>
      <trkpt lat="43.52016" lon="6.61508">
        <ele>94.872</ele>
        <time>2012-11-24T14:51:23Z</time>
      </trkpt>
      <trkpt lat="43.52018" lon="6.61504">
        <ele>95.251</ele>
        <time>2012-11-24T14:51:29Z</time>
      </trkpt>
      <trkpt lat="43.52018" lon="6.61504">
        <ele>95.48</ele>
        <time>2012-11-24T14:51:31Z</time>
      </trkpt>
      <trkpt lat="43.5202" lon="6.61499">
        <ele>96.131</ele>
        <time>2012-11-24T14:51:39Z</time>
      </trkpt>
      <trkpt lat="43.5202" lon="6.61499">
        <ele>96.709</ele>
        <time>2012-11-24T14:51:47Z</time>
      </trkpt>
      <trkpt lat="43.5202" lon="6.61499">
        <ele>97.176</ele>
        <time>2012-11-24T14:51:54Z</time>
      </trkpt>
      <trkpt lat="43.52028" lon="6.61481">
        <ele>97.262</ele>
        <time>2012-11-24T14:52:05Z</time>
      </trkpt>
      <trkpt lat="43.52036" lon="6.61468">
        <ele>98.117</ele>
        <time>2012-11-24T14:52:12Z</time>
      </trkpt>
      <trkpt lat="43.5204" lon="6.61463">
        <ele>99.061</ele>
        <time>2012-11-24T14:52:17Z</time>
      </trkpt>
      <trkpt lat="43.52044" lon="6.61455">
        <ele>100.045</ele>
        <time>2012-11-24T14:52:25Z</time>
      </trkpt>
      <trkpt lat="43.52049" lon="6.61446">
        <ele>100.636</ele>
        <time>2012-11-24T14:52:31Z</time>
      </trkpt>
      <trkpt lat="43.52053" lon="6.61433">
        <ele>101.133</ele>
        <time>2012-11-24T14:52:38Z</time>
      </trkpt>
      <trkpt lat="43.52053" lon="6.61432">
        <ele>101.156</ele>
        <time>2012-11-24T14:52:41Z</time>
      </trkpt>
      <trkpt lat="43.52056" lon="6.61427">
        <ele>101.076</ele>
        <time>2012-11-24T14:54:28Z</time>
      </trkpt>
      <trkpt lat="43.52062" lon="6.61413">
        <ele>101.392</ele>
        <time>2012-11-24T14:54:35Z</time>
      </trkpt>
      <trkpt lat="43.52073" lon="6.61386">
        <ele>102.027</ele>
        <time>2012-11-24T14:54:44Z</time>
      </trkpt>
      <trkpt lat="43.52082" lon="6.6136">
        <ele>101.949</ele>
        <time>2012-11-24T14:54:52Z</time>
      </trkpt>
      <trkpt lat="43.5209" lon="6.61336">
        <ele>102.49</ele>
        <time>2012-11-24T14:54:59Z</time>
      </trkpt>
      <trkpt lat="43.521" lon="6.61307">
        <ele>103.294</ele>
        <time>2012-11-24T14:55:08Z</time>
      </trkpt>
      <trkpt lat="43.52107" lon="6.61276">
        <ele>103.617</ele>
        <time>2012-11-24T14:55:16Z</time>
      </trkpt>
      <trkpt lat="43.52116" lon="6.61249">
        <ele>104.152</ele>
        <time>2012-11-24T14:55:24Z</time>
      </trkpt>
      <trkpt lat="43.5212" lon="6.61234">
        <ele>104.353</ele>
        <time>2012-11-24T14:55:30Z</time>
      </trkpt>
      <trkpt lat="43.52123" lon="6.61221">
        <ele>104.111</ele>
        <time>2012-11-24T14:55:36Z</time>
      </trkpt>
      <trkpt lat="43.52128" lon="6.61203">
        <ele>104.072</ele>
        <time>2012-11-24T14:55:43Z</time>
      </trkpt>
      <trkpt lat="43.52133" lon="6.61185">
        <ele>104.236</ele>
        <time>2012-11-24T14:55:49Z</time>
      </trkpt>
      <trkpt lat="43.52138" lon="6.61168">
        <ele>104.398</ele>
        <time>2012-11-24T14:55:56Z</time>
      </trkpt>
      <trkpt lat="43.52143" lon="6.61156">
        <ele>104.802</ele>
        <time>2012-11-24T14:56:01Z</time>
      </trkpt>
      <trkpt lat="43.52147" lon="6.61138">
        <ele>105.422</ele>
        <time>2012-11-24T14:56:07Z</time>
      </trkpt>
      <trkpt lat="43.52153" lon="6.61114">
        <ele>106.257</ele>
        <time>2012-11-24T14:56:15Z</time>
      </trkpt>
      <trkpt lat="43.5216" lon="6.61091">
        <ele>106.903</ele>
        <time>2012-11-24T14:56:23Z</time>
      </trkpt>
      <trkpt lat="43.5217" lon="6.61063">
        <ele>107.347</ele>
        <time>2012-11-24T14:56:32Z</time>
      </trkpt>
      <trkpt lat="43.52178" lon="6.61046">
        <ele>107.573</ele>
        <time>2012-11-24T14:56:38Z</time>
      </trkpt>
      <trkpt lat="43.52184" lon="6.61032">
        <ele>107.92</ele>
        <time>2012-11-24T14:56:44Z</time>
      </trkpt>
      <trkpt lat="43.52197" lon="6.6101">
        <ele>106.836</ele>
        <time>2012-11-24T14:56:52Z</time>
      </trkpt>
      <trkpt lat="43.52202" lon="6.61003">
        <ele>105.835</ele>
        <time>2012-11-24T14:56:54Z</time>
      </trkpt>
      <trkpt lat="43.52218" lon="6.60979">
        <ele>102.523</ele>
        <time>2012-11-24T14:56:59Z</time>
      </trkpt>
      <trkpt lat="43.5222" lon="6.60973">
        <ele>102.184</ele>
        <time>2012-11-24T14:57:00Z</time>
      </trkpt>
      <trkpt lat="43.52229" lon="6.60956">
        <ele>100.328</ele>
        <time>2012-11-24T14:57:03Z</time>
      </trkpt>
      <trkpt lat="43.52242" lon="6.60931">
        <ele>97.303</ele>
        <time>2012-11-24T14:57:08Z</time>
      </trkpt>
      <trkpt lat="43.52246" lon="6.60908">
        <ele>94.417</ele>
        <time>2012-11-24T14:57:12Z</time>
      </trkpt>
      <trkpt lat="43.52247" lon="6.609">
        <ele>93.829</ele>
        <time>2012-11-24T14:57:13Z</time>
      </trkpt>
      <trkpt lat="43.52255" lon="6.60867">
        <ele>95.188</ele>
        <time>2012-11-24T14:57:20Z</time>
      </trkpt>
      <trkpt lat="43.52264" lon="6.60842">
        <ele>96.392</ele>
        <time>2012-11-24T14:57:26Z</time>
      </trkpt>
      <trkpt lat="43.52274" lon="6.60816">
        <ele>98.857</ele>
        <time>2012-11-24T14:57:33Z</time>
      </trkpt>
      <trkpt lat="43.5228" lon="6.60791">
        <ele>99.342</ele>
        <time>2012-11-24T14:57:41Z</time>
      </trkpt>
      <trkpt lat="43.52283" lon="6.60777">
        <ele>99.096</ele>
        <time>2012-11-24T14:57:46Z</time>
      </trkpt>
      <trkpt lat="43.5229" lon="6.60754">
        <ele>99.207</ele>
        <time>2012-11-24T14:57:53Z</time>
      </trkpt>
      <trkpt lat="43.52297" lon="6.60727">
        <ele>100.379</ele>
        <time>2012-11-24T14:58:01Z</time>
      </trkpt>
      <trkpt lat="43.52304" lon="6.60703">
        <ele>99.917</ele>
        <time>2012-11-24T14:58:06Z</time>
      </trkpt>
      <trkpt lat="43.5231" lon="6.6068">
        <ele>101.198</ele>
        <time>2012-11-24T14:58:12Z</time>
      </trkpt>
      <trkpt lat="43.52319" lon="6.60653">
        <ele>102.452</ele>
        <time>2012-11-24T14:58:21Z</time>
      </trkpt>
      <trkpt lat="43.52326" lon="6.60632">
        <ele>103.492</ele>
        <time>2012-11-24T14:58:28Z</time>
      </trkpt>
      <trkpt lat="43.52328" lon="6.60624">
        <ele>103.663</ele>
        <time>2012-11-24T14:58:34Z</time>
      </trkpt>
      <trkpt lat="43.52331" lon="6.60579">
        <ele>103.584</ele>
        <time>2012-11-24T14:58:40Z</time>
      </trkpt>
      <trkpt lat="43.52332" lon="6.60544">
        <ele>103.079</ele>
        <time>2012-11-24T14:58:47Z</time>
      </trkpt>
      <trkpt lat="43.5233" lon="6.60501">
        <ele>102.832</ele>
        <time>2012-11-24T14:58:54Z</time>
      </trkpt>
      <trkpt lat="43.52328" lon="6.60484">
        <ele>102.773</ele>
        <time>2012-11-24T14:58:57Z</time>
      </trkpt>
      <trkpt lat="43.52326" lon="6.60473">
        <ele>102.795</ele>
        <time>2012-11-24T14:58:59Z</time>
      </trkpt>
      <trkpt lat="43.52326" lon="6.60443">
        <ele>101.884</ele>
        <time>2012-11-24T14:59:04Z</time>
      </trkpt>
      <trkpt lat="43.52325" lon="6.60417">
        <ele>102.448</ele>
        <time>2012-11-24T14:59:09Z</time>
      </trkpt>
      <trkpt lat="43.52326" lon="6.60413">
        <ele>102.691</ele>
        <time>2012-11-24T14:59:10Z</time>
      </trkpt>
      <trkpt lat="43.52326" lon="6.60383">
        <ele>102.926</ele>
        <time>2012-11-24T14:59:16Z</time>
      </trkpt>
      <trkpt lat="43.52321" lon="6.60359">
        <ele>103.371</ele>
        <time>2012-11-24T14:59:21Z</time>
      </trkpt>
      <trkpt lat="43.5232" lon="6.6033">
        <ele>104.07</ele>
        <time>2012-11-24T14:59:27Z</time>
      </trkpt>
      <trkpt lat="43.52326" lon="6.60298">
        <ele>104.478</ele>
        <time>2012-11-24T14:59:34Z</time>
      </trkpt>
      <trkpt lat="43.5233" lon="6.60271">
        <ele>104.409</ele>
        <time>2012-11-24T14:59:40Z</time>
      </trkpt>
      <trkpt lat="43.52337" lon="6.60238">
        <ele>104.385</ele>
        <time>2012-11-24T14:59:48Z</time>
      </trkpt>
      <trkpt lat="43.52337" lon="6.60238">
        <ele>104.299</ele>
        <time>2012-11-24T14:59:51Z</time>
      </trkpt>
      <trkpt lat="43.52337" lon="6.60238">
        <ele>103.629</ele>
        <time>2012-11-24T14:59:54Z</time>
      </trkpt>
      <trkpt lat="43.52363" lon="6.6018">
        <ele>103.739</ele>
        <time>2012-11-24T15:00:00Z</time>
      </trkpt>
      <trkpt lat="43.52363" lon="6.60172">
        <ele>104.293</ele>
        <time>2012-11-24T15:00:02Z</time>
      </trkpt>
      <trkpt lat="43.52365" lon="6.60168">
        <ele>104.972</ele>
        <time>2012-11-24T15:00:06Z</time>
      </trkpt>
      <trkpt lat="43.52355" lon="6.60172">
        <ele>104.512</ele>
        <time>2012-11-24T15:01:03Z</time>
      </trkpt>
      <trkpt lat="43.52335" lon="6.60188">
        <ele>102.81</ele>
        <time>2012-11-24T15:01:09Z</time>
      </trkpt>
      <trkpt lat="43.52322" lon="6.60198">
        <ele>101.56</ele>
        <time>2012-11-24T15:01:12Z</time>
      </trkpt>
      <trkpt lat="43.52311" lon="6.60202">
        <ele>100.774</ele>
        <time>2012-11-24T15:01:14Z</time>
      </trkpt>
      <trkpt lat="43.52291" lon="6.60209">
        <ele>100.017</ele>
        <time>2012-11-24T15:01:18Z</time>
      </trkpt>
      <trkpt lat="43.52263" lon="6.60204">
        <ele>99.015</ele>
        <time>2012-11-24T15:01:24Z</time>
      </trkpt>
      <trkpt lat="43.52258" lon="6.60202">
        <ele>98.668</ele>
        <time>2012-11-24T15:01:25Z</time>
      </trkpt>
      <trkpt lat="43.52221" lon="6.60187">
        <ele>97.059</ele>
        <time>2012-11-24T15:01:33Z</time>
      </trkpt>
      <trkpt lat="43.52181" lon="6.60181">
        <ele>95.816</ele>
        <time>2012-11-24T15:01:41Z</time>
      </trkpt>
      <trkpt lat="43.52171" lon="6.6018">
        <ele>95.456</ele>
        <time>2012-11-24T15:01:43Z</time>
      </trkpt>
      <trkpt lat="43.5216" lon="6.6018">
        <ele>95.371</ele>
        <time>2012-11-24T15:01:45Z</time>
      </trkpt>
      <trkpt lat="43.52135" lon="6.60181">
        <ele>96.122</ele>
        <time>2012-11-24T15:01:51Z</time>
      </trkpt>
      <trkpt lat="43.52102" lon="6.60185">
        <ele>96.937</ele>
        <time>2012-11-24T15:01:59Z</time>
      </trkpt>
      <trkpt lat="43.52084" lon="6.60188">
        <ele>98.512</ele>
        <time>2012-11-24T15:02:03Z</time>
      </trkpt>
      <trkpt lat="43.52076" lon="6.60187">
        <ele>99.789</ele>
        <time>2012-11-24T15:02:06Z</time>
      </trkpt>
      <trkpt lat="43.52062" lon="6.60185">
        <ele>99.973</ele>
        <time>2012-11-24T15:02:13Z</time>
      </trkpt>
      <trkpt lat="43.52045" lon="6.60182">
        <ele>99.736</ele>
        <time>2012-11-24T15:02:20Z</time>
      </trkpt>
      <trkpt lat="43.52042" lon="6.60182">
        <ele>99.735</ele>
        <time>2012-11-24T15:02:21Z</time>
      </trkpt>
      <trkpt lat="43.52026" lon="6.60184">
        <ele>99.165</ele>
        <time>2012-11-24T15:02:26Z</time>
      </trkpt>
      <trkpt lat="43.52014" lon="6.60174">
        <ele>98.256</ele>
        <time>2012-11-24T15:02:30Z</time>
      </trkpt>
      <trkpt lat="43.52003" lon="6.60156">
        <ele>97.202</ele>
        <time>2012-11-24T15:02:34Z</time>
      </trkpt>
      <trkpt lat="43.51992" lon="6.6013">
        <ele>96.03</ele>
        <time>2012-11-24T15:02:39Z</time>
      </trkpt>
      <trkpt lat="43.51978" lon="6.6011">
        <ele>94.762</ele>
        <time>2012-11-24T15:02:44Z</time>
      </trkpt>
      <trkpt lat="43.51971" lon="6.60104">
        <ele>94.34</ele>
        <time>2012-11-24T15:02:46Z</time>
      </trkpt>
      <trkpt lat="43.51943" lon="6.60074">
        <ele>93.5</ele>
        <time>2012-11-24T15:02:54Z</time>
      </trkpt>
      <trkpt lat="43.51928" lon="6.60065">
        <ele>93.185</ele>
        <time>2012-11-24T15:02:58Z</time>
      </trkpt>
      <trkpt lat="43.51923" lon="6.60064">
        <ele>93.167</ele>
        <time>2012-11-24T15:02:59Z</time>
      </trkpt>
      <trkpt lat="43.51902" lon="6.60069">
        <ele>93.038</ele>
        <time>2012-11-24T15:03:04Z</time>
      </trkpt>
      <trkpt lat="43.51887" lon="6.60075">
        <ele>93.271</ele>
        <time>2012-11-24T15:03:07Z</time>
      </trkpt>
      <trkpt lat="43.51873" lon="6.60078">
        <ele>92.93</ele>
        <time>2012-11-24T15:03:10Z</time>
      </trkpt>
      <trkpt lat="43.51863" lon="6.60079">
        <ele>92.207</ele>
        <time>2012-11-24T15:03:12Z</time>
      </trkpt>
      <trkpt lat="43.51854" lon="6.60083">
        <ele>91.557</ele>
        <time>2012-11-24T15:03:14Z</time>
      </trkpt>
      <trkpt lat="43.51819" lon="6.60083">
        <ele>89.379</ele>
        <time>2012-11-24T15:03:20Z</time>
      </trkpt>
      <trkpt lat="43.51782" lon="6.60079">
        <ele>85.895</ele>
        <time>2012-11-24T15:03:25Z</time>
      </trkpt>
      <trkpt lat="43.51736" lon="6.60079">
        <ele>81.699</ele>
        <time>2012-11-24T15:03:30Z</time>
      </trkpt>
      <trkpt lat="43.517" lon="6.60073">
        <ele>80.065</ele>
        <time>2012-11-24T15:03:34Z</time>
      </trkpt>
      <trkpt lat="43.51674" lon="6.6007">
        <ele>79.563</ele>
        <time>2012-11-24T15:03:37Z</time>
      </trkpt>
      <trkpt lat="43.51644" lon="6.60072">
        <ele>79.338</ele>
        <time>2012-11-24T15:03:41Z</time>
      </trkpt>
      <trkpt lat="43.51607" lon="6.60069">
        <ele>79.765</ele>
        <time>2012-11-24T15:03:47Z</time>
      </trkpt>
      <trkpt lat="43.51568" lon="6.60067">
        <ele>80.447</ele>
        <time>2012-11-24T15:03:54Z</time>
      </trkpt>
      <trkpt lat="43.51558" lon="6.60067">
        <ele>80.689</ele>
        <time>2012-11-24T15:03:56Z</time>
      </trkpt>
      <trkpt lat="43.51528" lon="6.60066">
        <ele>82.169</ele>
        <time>2012-11-24T15:04:02Z</time>
      </trkpt>
      <trkpt lat="43.51523" lon="6.60065">
        <ele>82.484</ele>
        <time>2012-11-24T15:04:03Z</time>
      </trkpt>
      <trkpt lat="43.51502" lon="6.60058">
        <ele>83.742</ele>
        <time>2012-11-24T15:04:08Z</time>
      </trkpt>
      <trkpt lat="43.51484" lon="6.60043">
        <ele>83.276</ele>
        <time>2012-11-24T15:04:13Z</time>
      </trkpt>
      <trkpt lat="43.51481" lon="6.60039">
        <ele>83.066</ele>
        <time>2012-11-24T15:04:14Z</time>
      </trkpt>
      <trkpt lat="43.51457" lon="6.60006">
        <ele>82.115</ele>
        <time>2012-11-24T15:04:21Z</time>
      </trkpt>
      <trkpt lat="43.51453" lon="6.60002">
        <ele>81.874</ele>
        <time>2012-11-24T15:04:22Z</time>
      </trkpt>
      <trkpt lat="43.5144" lon="6.59992">
        <ele>81.488</ele>
        <time>2012-11-24T15:04:25Z</time>
      </trkpt>
      <trkpt lat="43.51414" lon="6.5999">
        <ele>80.805</ele>
        <time>2012-11-24T15:04:31Z</time>
      </trkpt>
      <trkpt lat="43.51403" lon="6.59998">
        <ele>80.652</ele>
        <time>2012-11-24T15:04:34Z</time>
      </trkpt>
      <trkpt lat="43.51384" lon="6.60017">
        <ele>80.367</ele>
        <time>2012-11-24T15:04:39Z</time>
      </trkpt>
      <trkpt lat="43.51373" lon="6.60016">
        <ele>80.572</ele>
        <time>2012-11-24T15:04:43Z</time>
      </trkpt>
      <trkpt lat="43.51364" lon="6.60001">
        <ele>81.451</ele>
        <time>2012-11-24T15:04:49Z</time>
      </trkpt>
      <trkpt lat="43.5136" lon="6.59988">
        <ele>81.701</ele>
        <time>2012-11-24T15:04:54Z</time>
      </trkpt>
      <trkpt lat="43.51351" lon="6.59971">
        <ele>81.459</ele>
        <time>2012-11-24T15:04:59Z</time>
      </trkpt>
      <trkpt lat="43.51349" lon="6.59968">
        <ele>81.343</ele>
        <time>2012-11-24T15:05:00Z</time>
      </trkpt>
      <trkpt lat="43.51344" lon="6.59953">
        <ele>80.918</ele>
        <time>2012-11-24T15:05:03Z</time>
      </trkpt>
      <trkpt lat="43.51338" lon="6.59937">
        <ele>80.016</ele>
        <time>2012-11-24T15:05:06Z</time>
      </trkpt>
      <trkpt lat="43.51333" lon="6.59913">
        <ele>79.116</ele>
        <time>2012-11-24T15:05:10Z</time>
      </trkpt>
      <trkpt lat="43.5133" lon="6.59896">
        <ele>78.45</ele>
        <time>2012-11-24T15:05:13Z</time>
      </trkpt>
      <trkpt lat="43.51325" lon="6.59873">
        <ele>77.85</ele>
        <time>2012-11-24T15:05:17Z</time>
      </trkpt>
      <trkpt lat="43.51323" lon="6.59856">
        <ele>77.124</ele>
        <time>2012-11-24T15:05:20Z</time>
      </trkpt>
      <trkpt lat="43.51319" lon="6.59845">
        <ele>76.719</ele>
        <time>2012-11-24T15:05:22Z</time>
      </trkpt>
      <trkpt lat="43.51316" lon="6.59821">
        <ele>75.789</ele>
        <time>2012-11-24T15:05:26Z</time>
      </trkpt>
      <trkpt lat="43.51318" lon="6.59793">
        <ele>74.262</ele>
        <time>2012-11-24T15:05:30Z</time>
      </trkpt>
      <trkpt lat="43.51312" lon="6.59774">
        <ele>72.747</ele>
        <time>2012-11-24T15:05:34Z</time>
      </trkpt>
      <trkpt lat="43.51305" lon="6.59759">
        <ele>71.039</ele>
        <time>2012-11-24T15:05:37Z</time>
      </trkpt>
      <trkpt lat="43.51304" lon="6.59752">
        <ele>70.718</ele>
        <time>2012-11-24T15:05:38Z</time>
      </trkpt>
      <trkpt lat="43.51302" lon="6.5973">
        <ele>70.445</ele>
        <time>2012-11-24T15:05:42Z</time>
      </trkpt>
      <trkpt lat="43.51301" lon="6.59712">
        <ele>70.471</ele>
        <time>2012-11-24T15:05:45Z</time>
      </trkpt>
      <trkpt lat="43.513" lon="6.59681">
        <ele>70.116</ele>
        <time>2012-11-24T15:05:50Z</time>
      </trkpt>
      <trkpt lat="43.513" lon="6.5966">
        <ele>69.822</ele>
        <time>2012-11-24T15:05:53Z</time>
      </trkpt>
      <trkpt lat="43.51296" lon="6.59633">
        <ele>68.834</ele>
        <time>2012-11-24T15:05:57Z</time>
      </trkpt>
      <trkpt lat="43.51285" lon="6.5962">
        <ele>68.174</ele>
        <time>2012-11-24T15:06:00Z</time>
      </trkpt>
      <trkpt lat="43.51263" lon="6.59584">
        <ele>66.161</ele>
        <time>2012-11-24T15:06:06Z</time>
      </trkpt>
      <trkpt lat="43.51255" lon="6.59574">
        <ele>65.328</ele>
        <time>2012-11-24T15:06:08Z</time>
      </trkpt>
      <trkpt lat="43.51176" lon="6.59497">
        <ele>63.297</ele>
        <time>2012-11-24T15:06:13Z</time>
      </trkpt>
      <trkpt lat="43.51176" lon="6.59497">
        <ele>61.975</ele>
        <time>2012-11-24T15:06:16Z</time>
      </trkpt>
      <trkpt lat="43.51176" lon="6.59497">
        <ele>61.688</ele>
        <time>2012-11-24T15:06:17Z</time>
      </trkpt>
      <trkpt lat="43.51174" lon="6.59498">
        <ele>59.996</ele>
        <time>2012-11-24T15:06:20Z</time>
      </trkpt>
      <trkpt lat="43.51154" lon="6.59502">
        <ele>58.116</ele>
        <time>2012-11-24T15:06:25Z</time>
      </trkpt>
      <trkpt lat="43.51129" lon="6.59553">
        <ele>56.565</ele>
        <time>2012-11-24T15:06:29Z</time>
      </trkpt>
      <trkpt lat="43.51147" lon="6.59503">
        <ele>55.579</ele>
        <time>2012-11-24T15:06:32Z</time>
      </trkpt>
      <trkpt lat="43.51151" lon="6.59503">
        <ele>54.861</ele>
        <time>2012-11-24T15:06:33Z</time>
      </trkpt>
      <trkpt lat="43.51167" lon="6.595">
        <ele>52.009</ele>
        <time>2012-11-24T15:06:37Z</time>
      </trkpt>
      <trkpt lat="43.51177" lon="6.59479">
        <ele>48.628</ele>
        <time>2012-11-24T15:06:42Z</time>
      </trkpt>
      <trkpt lat="43.51176" lon="6.5947">
        <ele>47.029</ele>
        <time>2012-11-24T15:06:46Z</time>
      </trkpt>
      <trkpt lat="43.51176" lon="6.5947">
        <ele>47.016</ele>
        <time>2012-11-24T15:06:47Z</time>
      </trkpt>
      <trkpt lat="43.51172" lon="6.59451">
        <ele>46.755</ele>
        <time>2012-11-24T15:07:26Z</time>
      </trkpt>
      <trkpt lat="43.51171" lon="6.59449">
        <ele>46.794</ele>
        <time>2012-11-24T15:07:28Z</time>
      </trkpt>
      <trkpt lat="43.5117" lon="6.59446">
        <ele>46.796</ele>
        <time>2012-11-24T15:07:33Z</time>
      </trkpt>
      <trkpt lat="43.51165" lon="6.59439">
        <ele>47.522</ele>
        <time>2012-11-24T15:07:37Z</time>
      </trkpt>
      <trkpt lat="43.51164" lon="6.59438">
        <ele>48.536</ele>
        <time>2012-11-24T15:07:39Z</time>
      </trkpt>
      <trkpt lat="43.51179" lon="6.59401">
        <ele>48.97</ele>
        <time>2012-11-24T15:07:45Z</time>
      </trkpt>
      <trkpt lat="43.51151" lon="6.59426">
        <ele>50.005</ele>
        <time>2012-11-24T15:07:51Z</time>
      </trkpt>
      <trkpt lat="43.51152" lon="6.59347">
        <ele>51.585</ele>
        <time>2012-11-24T15:07:57Z</time>
      </trkpt>
      <trkpt lat="43.51154" lon="6.59341">
        <ele>52.532</ele>
        <time>2012-11-24T15:08:03Z</time>
      </trkpt>
      <trkpt lat="43.51156" lon="6.59327">
        <ele>53.031</ele>
        <time>2012-11-24T15:08:11Z</time>
      </trkpt>
      <trkpt lat="43.51152" lon="6.59318">
        <ele>52.449</ele>
        <time>2012-11-24T15:08:16Z</time>
      </trkpt>
      <trkpt lat="43.51148" lon="6.59307">
        <ele>52.103</ele>
        <time>2012-11-24T15:08:20Z</time>
      </trkpt>
      <trkpt lat="43.51144" lon="6.59296">
        <ele>52.641</ele>
        <time>2012-11-24T15:08:25Z</time>
      </trkpt>
      <trkpt lat="43.51143" lon="6.59293">
        <ele>52.992</ele>
        <time>2012-11-24T15:08:27Z</time>
      </trkpt>
      <trkpt lat="43.51153" lon="6.59229">
        <ele>54.74</ele>
        <time>2012-11-24T15:08:35Z</time>
      </trkpt>
      <trkpt lat="43.5117" lon="6.59205">
        <ele>54.761</ele>
        <time>2012-11-24T15:08:42Z</time>
      </trkpt>
      <trkpt lat="43.51172" lon="6.59202">
        <ele>55.224</ele>
        <time>2012-11-24T15:08:46Z</time>
      </trkpt>
      <trkpt lat="43.51172" lon="6.59202">
        <ele>55.28</ele>
        <time>2012-11-24T15:08:47Z</time>
      </trkpt>
      <trkpt lat="43.51186" lon="6.59208">
        <ele>54.941</ele>
        <time>2012-11-24T15:09:07Z</time>
      </trkpt>
      <trkpt lat="43.51178" lon="6.59208">
        <ele>53.806</ele>
        <time>2012-11-24T15:09:13Z</time>
      </trkpt>
      <trkpt lat="43.51174" lon="6.59209">
        <ele>53.416</ele>
        <time>2012-11-24T15:09:16Z</time>
      </trkpt>
      <trkpt lat="43.51179" lon="6.59187">
        <ele>53.336</ele>
        <time>2012-11-24T15:09:21Z</time>
      </trkpt>
      <trkpt lat="43.51185" lon="6.59169">
        <ele>53.163</ele>
        <time>2012-11-24T15:09:29Z</time>
      </trkpt>
      <trkpt lat="43.51189" lon="6.59156">
        <ele>53.013</ele>
        <time>2012-11-24T15:09:34Z</time>
      </trkpt>
      <trkpt lat="43.51192" lon="6.59135">
        <ele>52.646</ele>
        <time>2012-11-24T15:09:40Z</time>
      </trkpt>
      <trkpt lat="43.51192" lon="6.59114">
        <ele>52.465</ele>
        <time>2012-11-24T15:09:46Z</time>
      </trkpt>
      <trkpt lat="43.51186" lon="6.59089">
        <ele>52.287</ele>
        <time>2012-11-24T15:09:54Z</time>
      </trkpt>
      <trkpt lat="43.51187" lon="6.59071">
        <ele>52.039</ele>
        <time>2012-11-24T15:10:00Z</time>
      </trkpt>
      <trkpt lat="43.51195" lon="6.59048">
        <ele>51.726</ele>
        <time>2012-11-24T15:10:07Z</time>
      </trkpt>
      <trkpt lat="43.51203" lon="6.59039">
        <ele>51.546</ele>
        <time>2012-11-24T15:10:12Z</time>
      </trkpt>
      <trkpt lat="43.51209" lon="6.59033">
        <ele>51.538</ele>
        <time>2012-11-24T15:10:17Z</time>
      </trkpt>
      <trkpt lat="43.51217" lon="6.59032">
        <ele>51.58</ele>
        <time>2012-11-24T15:10:23Z</time>
      </trkpt>
      <trkpt lat="43.51249" lon="6.59068">
        <ele>51.543</ele>
        <time>2012-11-24T15:10:26Z</time>
      </trkpt>
      <trkpt lat="43.51249" lon="6.59068">
        <ele>50.187</ele>
        <time>2012-11-24T15:10:31Z</time>
      </trkpt>
      <trkpt lat="43.51216" lon="6.59032">
        <ele>49.164</ele>
        <time>2012-11-24T15:10:35Z</time>
      </trkpt>
      <trkpt lat="43.51212" lon="6.59032">
        <ele>48.888</ele>
        <time>2012-11-24T15:10:36Z</time>
      </trkpt>
      <trkpt lat="43.5121" lon="6.59032">
        <ele>45.77</ele>
        <time>2012-11-24T15:10:41Z</time>
      </trkpt>
      <trkpt lat="43.51204" lon="6.59038">
        <ele>44.626</ele>
        <time>2012-11-24T15:10:46Z</time>
      </trkpt>
      <trkpt lat="43.51203" lon="6.59039">
        <ele>44.589</ele>
        <time>2012-11-24T15:10:47Z</time>
      </trkpt>
      <trkpt lat="43.51165" lon="6.58968">
        <ele>43.211</ele>
        <time>2012-11-24T15:10:52Z</time>
      </trkpt>
      <trkpt lat="43.51201" lon="6.59041">
        <ele>41.899</ele>
        <time>2012-11-24T15:10:56Z</time>
      </trkpt>
      <trkpt lat="43.51153" lon="6.58954">
        <ele>41.341</ele>
        <time>2012-11-24T15:10:59Z</time>
      </trkpt>
      <trkpt lat="43.51099" lon="6.58931">
        <ele>39.736</ele>
        <time>2012-11-24T15:11:05Z</time>
      </trkpt>
      <trkpt lat="43.51131" lon="6.58848">
        <ele>38.36</ele>
        <time>2012-11-24T15:11:08Z</time>
      </trkpt>
      <trkpt lat="43.51125" lon="6.58849">
        <ele>37.483</ele>
        <time>2012-11-24T15:11:10Z</time>
      </trkpt>
      <trkpt lat="43.51117" lon="6.5885">
        <ele>36.697</ele>
        <time>2012-11-24T15:11:12Z</time>
      </trkpt>
      <trkpt lat="43.51103" lon="6.58851">
        <ele>34.526</ele>
        <time>2012-11-24T15:11:17Z</time>
      </trkpt>
      <trkpt lat="43.51103" lon="6.58851">
        <ele>34.717</ele>
        <time>2012-11-24T15:11:21Z</time>
      </trkpt>
      <trkpt lat="43.51104" lon="6.58915">
        <ele>34.882</ele>
        <time>2012-11-24T15:13:33Z</time>
      </trkpt>
      <trkpt lat="43.51104" lon="6.58915">
        <ele>35.004</ele>
        <time>2012-11-24T15:13:34Z</time>
      </trkpt>
      <trkpt lat="43.51056" lon="6.58871">
        <ele>34.513</ele>
        <time>2012-11-24T15:13:55Z</time>
      </trkpt>
      <trkpt lat="43.51054" lon="6.58872">
        <ele>34.019</ele>
        <time>2012-11-24T15:13:56Z</time>
      </trkpt>
      <trkpt lat="43.51051" lon="6.58876">
        <ele>33.213</ele>
        <time>2012-11-24T15:13:58Z</time>
      </trkpt>
      <trkpt lat="43.51041" lon="6.58887">
        <ele>31.338</ele>
        <time>2012-11-24T15:14:03Z</time>
      </trkpt>
      <trkpt lat="43.51037" lon="6.58892">
        <ele>30.572</ele>
        <time>2012-11-24T15:14:06Z</time>
      </trkpt>
      <trkpt lat="43.5108" lon="6.58843">
        <ele>30.121</ele>
        <time>2012-11-24T15:14:11Z</time>
      </trkpt>
      <trkpt lat="43.5108" lon="6.58843">
        <ele>29.907</ele>
        <time>2012-11-24T15:14:12Z</time>
      </trkpt>
      <trkpt lat="43.5108" lon="6.58843">
        <ele>28.621</ele>
        <time>2012-11-24T15:14:16Z</time>
      </trkpt>
      <trkpt lat="43.5108" lon="6.58843">
        <ele>28.391</ele>
        <time>2012-11-24T15:14:20Z</time>
      </trkpt>
      <trkpt lat="43.51026" lon="6.58903">
        <ele>28.073</ele>
        <time>2012-11-24T15:14:23Z</time>
      </trkpt>
      <trkpt lat="43.51002" lon="6.58912">
        <ele>28.052</ele>
        <time>2012-11-24T15:14:30Z</time>
      </trkpt>
      <trkpt lat="43.50975" lon="6.58918">
        <ele>26.815</ele>
        <time>2012-11-24T15:14:36Z</time>
      </trkpt>
      <trkpt lat="43.50937" lon="6.58927">
        <ele>26.137</ele>
        <time>2012-11-24T15:14:44Z</time>
      </trkpt>
      <trkpt lat="43.50901" lon="6.58927">
        <ele>25.875</ele>
        <time>2012-11-24T15:14:52Z</time>
      </trkpt>
      <trkpt lat="43.50871" lon="6.58927">
        <ele>25.732</ele>
        <time>2012-11-24T15:14:59Z</time>
      </trkpt>
      <trkpt lat="43.50825" lon="6.58927">
        <ele>25.43</ele>
        <time>2012-11-24T15:15:09Z</time>
      </trkpt>
      <trkpt lat="43.50803" lon="6.58931">
        <ele>25.116</ele>
        <time>2012-11-24T15:15:14Z</time>
      </trkpt>
      <trkpt lat="43.50791" lon="6.58935">
        <ele>25.042</ele>
        <time>2012-11-24T15:15:17Z</time>
      </trkpt>
      <trkpt lat="43.50759" lon="6.58959">
        <ele>24.287</ele>
        <time>2012-11-24T15:15:25Z</time>
      </trkpt>
      <trkpt lat="43.5074" lon="6.58973">
        <ele>24.153</ele>
        <time>2012-11-24T15:15:30Z</time>
      </trkpt>
      <trkpt lat="43.50717" lon="6.58986">
        <ele>23.123</ele>
        <time>2012-11-24T15:15:35Z</time>
      </trkpt>
      <trkpt lat="43.50675" lon="6.59001">
        <ele>24.223</ele>
        <time>2012-11-24T15:15:43Z</time>
      </trkpt>
      <trkpt lat="43.50637" lon="6.59008">
        <ele>24.768</ele>
        <time>2012-11-24T15:15:52Z</time>
      </trkpt>
      <trkpt lat="43.50598" lon="6.59015">
        <ele>24.49</ele>
        <time>2012-11-24T15:16:01Z</time>
      </trkpt>
      <trkpt lat="43.50562" lon="6.5902">
        <ele>24.415</ele>
        <time>2012-11-24T15:16:09Z</time>
      </trkpt>
      <trkpt lat="43.50536" lon="6.59021">
        <ele>24.642</ele>
        <time>2012-11-24T15:16:16Z</time>
      </trkpt>
      <trkpt lat="43.50516" lon="6.59024">
        <ele>24.628</ele>
        <time>2012-11-24T15:16:21Z</time>
      </trkpt>
      <trkpt lat="43.50478" lon="6.5903">
        <ele>23.787</ele>
        <time>2012-11-24T15:16:30Z</time>
      </trkpt>
      <trkpt lat="43.50474" lon="6.5903">
        <ele>23.521</ele>
        <time>2012-11-24T15:16:31Z</time>
      </trkpt>
      <trkpt lat="43.50454" lon="6.5904">
        <ele>23.239</ele>
        <time>2012-11-24T15:16:36Z</time>
      </trkpt>
      <trkpt lat="43.50436" lon="6.5905">
        <ele>22.713</ele>
        <time>2012-11-24T15:16:41Z</time>
      </trkpt>
      <trkpt lat="43.50412" lon="6.59062">
        <ele>22.596</ele>
        <time>2012-11-24T15:16:48Z</time>
      </trkpt>
      <trkpt lat="43.50383" lon="6.59074">
        <ele>24.442</ele>
        <time>2012-11-24T15:16:57Z</time>
      </trkpt>
      <trkpt lat="43.50366" lon="6.59083">
        <ele>26.78</ele>
        <time>2012-11-24T15:17:03Z</time>
      </trkpt>
      <trkpt lat="43.50361" lon="6.59086">
        <ele>27.701</ele>
        <time>2012-11-24T15:17:07Z</time>
      </trkpt>
      <trkpt lat="43.5035" lon="6.59068">
        <ele>27.949</ele>
        <time>2012-11-24T15:17:14Z</time>
      </trkpt>
      <trkpt lat="43.50348" lon="6.59054">
        <ele>28.078</ele>
        <time>2012-11-24T15:17:21Z</time>
      </trkpt>
      <trkpt lat="43.50347" lon="6.5904">
        <ele>28.315</ele>
        <time>2012-11-24T15:17:27Z</time>
      </trkpt>
      <trkpt lat="43.50345" lon="6.59022">
        <ele>28.324</ele>
        <time>2012-11-24T15:17:34Z</time>
      </trkpt>
      <trkpt lat="43.50341" lon="6.58992">
        <ele>28.245</ele>
        <time>2012-11-24T15:17:43Z</time>
      </trkpt>
      <trkpt lat="43.50338" lon="6.58968">
        <ele>28.334</ele>
        <time>2012-11-24T15:17:49Z</time>
      </trkpt>
      <trkpt lat="43.50332" lon="6.58926">
        <ele>28.241</ele>
        <time>2012-11-24T15:17:59Z</time>
      </trkpt>
      <trkpt lat="43.50324" lon="6.5889">
        <ele>28.381</ele>
        <time>2012-11-24T15:18:07Z</time>
      </trkpt>
      <trkpt lat="43.5032" lon="6.58881">
        <ele>28.587</ele>
        <time>2012-11-24T15:18:09Z</time>
      </trkpt>
      <trkpt lat="43.50309" lon="6.58871">
        <ele>29.417</ele>
        <time>2012-11-24T15:18:13Z</time>
      </trkpt>
      <trkpt lat="43.50303" lon="6.58865">
        <ele>30.701</ele>
        <time>2012-11-24T15:18:16Z</time>
      </trkpt>
      <trkpt lat="43.503" lon="6.58862">
        <ele>30.777</ele>
        <time>2012-11-24T15:18:17Z</time>
      </trkpt>
      <trkpt lat="43.50281" lon="6.58842">
        <ele>32.221</ele>
        <time>2012-11-24T15:18:24Z</time>
      </trkpt>
      <trkpt lat="43.50274" lon="6.58829">
        <ele>33.341</ele>
        <time>2012-11-24T15:18:29Z</time>
      </trkpt>
      <trkpt lat="43.50268" lon="6.58815">
        <ele>34.235</ele>
        <time>2012-11-24T15:18:34Z</time>
      </trkpt>
      <trkpt lat="43.50268" lon="6.58813">
        <ele>34.262</ele>
        <time>2012-11-24T15:18:35Z</time>
      </trkpt>
      <trkpt lat="43.50265" lon="6.588">
        <ele>33.415</ele>
        <time>2012-11-24T15:18:39Z</time>
      </trkpt>
      <trkpt lat="43.50263" lon="6.58788">
        <ele>33.2</ele>
        <time>2012-11-24T15:18:41Z</time>
      </trkpt>
      <trkpt lat="43.5026" lon="6.58766">
        <ele>34.395</ele>
        <time>2012-11-24T15:18:47Z</time>
      </trkpt>
      <trkpt lat="43.50258" lon="6.58749">
        <ele>34.933</ele>
        <time>2012-11-24T15:18:52Z</time>
      </trkpt>
      <trkpt lat="43.50256" lon="6.58731">
        <ele>34.707</ele>
        <time>2012-11-24T15:18:57Z</time>
      </trkpt>
      <trkpt lat="43.50254" lon="6.58706">
        <ele>34.363</ele>
        <time>2012-11-24T15:19:03Z</time>
      </trkpt>
      <trkpt lat="43.50251" lon="6.58684">
        <ele>34.405</ele>
        <time>2012-11-24T15:19:08Z</time>
      </trkpt>
      <trkpt lat="43.50249" lon="6.58657">
        <ele>35.49</ele>
        <time>2012-11-24T15:19:14Z</time>
      </trkpt>
      <trkpt lat="43.50247" lon="6.58638">
        <ele>35.319</ele>
        <time>2012-11-24T15:19:18Z</time>
      </trkpt>
      <trkpt lat="43.50245" lon="6.58618">
        <ele>35.497</ele>
        <time>2012-11-24T15:19:23Z</time>
      </trkpt>
      <trkpt lat="43.50243" lon="6.58593">
        <ele>35.453</ele>
        <time>2012-11-24T15:19:29Z</time>
      </trkpt>
      <trkpt lat="43.50241" lon="6.58573">
        <ele>36.639</ele>
        <time>2012-11-24T15:19:35Z</time>
      </trkpt>
      <trkpt lat="43.5024" lon="6.58555">
        <ele>36.793</ele>
        <time>2012-11-24T15:19:40Z</time>
      </trkpt>
      <trkpt lat="43.5024" lon="6.58552">
        <ele>36.846</ele>
        <time>2012-11-24T15:19:41Z</time>
      </trkpt>
      <trkpt lat="43.50239" lon="6.58546">
        <ele>37.258</ele>
        <time>2012-11-24T15:19:44Z</time>
      </trkpt>
      <trkpt lat="43.50238" lon="6.58533">
        <ele>36.845</ele>
        <time>2012-11-24T15:19:49Z</time>
      </trkpt>
      <trkpt lat="43.50236" lon="6.58511">
        <ele>36.943</ele>
        <time>2012-11-24T15:19:56Z</time>
      </trkpt>
      <trkpt lat="43.50235" lon="6.58491">
        <ele>36.834</ele>
        <time>2012-11-24T15:20:01Z</time>
      </trkpt>
      <trkpt lat="43.50233" lon="6.5847">
        <ele>36.938</ele>
        <time>2012-11-24T15:20:06Z</time>
      </trkpt>
      <trkpt lat="43.50254" lon="6.58455">
        <ele>37.692</ele>
        <time>2012-11-24T15:20:10Z</time>
      </trkpt>
      <trkpt lat="43.50264" lon="6.58438">
        <ele>38.258</ele>
        <time>2012-11-24T15:20:15Z</time>
      </trkpt>
      <trkpt lat="43.5027" lon="6.5842">
        <ele>38.88</ele>
        <time>2012-11-24T15:20:21Z</time>
      </trkpt>
      <trkpt lat="43.50274" lon="6.58402">
        <ele>39.321</ele>
        <time>2012-11-24T15:20:27Z</time>
      </trkpt>
      <trkpt lat="43.50276" lon="6.58385">
        <ele>39.958</ele>
        <time>2012-11-24T15:20:33Z</time>
      </trkpt>
      <trkpt lat="43.5028" lon="6.58363">
        <ele>40.647</ele>
        <time>2012-11-24T15:20:41Z</time>
      </trkpt>
      <trkpt lat="43.50284" lon="6.58341">
        <ele>40.241</ele>
        <time>2012-11-24T15:20:48Z</time>
      </trkpt>
      <trkpt lat="43.50286" lon="6.5832">
        <ele>40.632</ele>
        <time>2012-11-24T15:20:55Z</time>
      </trkpt>
      <trkpt lat="43.50288" lon="6.58306">
        <ele>41.026</ele>
        <time>2012-11-24T15:21:00Z</time>
      </trkpt>
      <trkpt lat="43.50271" lon="6.58291">
        <ele>41.263</ele>
        <time>2012-11-24T15:21:06Z</time>
      </trkpt>
      <trkpt lat="43.5029" lon="6.58299">
        <ele>42.075</ele>
        <time>2012-11-24T15:21:11Z</time>
      </trkpt>
      <trkpt lat="43.50196" lon="6.58321">
        <ele>42.753</ele>
        <time>2012-11-24T15:21:16Z</time>
      </trkpt>
      <trkpt lat="43.50192" lon="6.58312">
        <ele>43.27</ele>
        <time>2012-11-24T15:21:24Z</time>
      </trkpt>
      <trkpt lat="43.50188" lon="6.58304">
        <ele>43.298</ele>
        <time>2012-11-24T15:21:30Z</time>
      </trkpt>
      <trkpt lat="43.50187" lon="6.583">
        <ele>43.321</ele>
        <time>2012-11-24T15:21:36Z</time>
      </trkpt>
      <trkpt lat="43.50288" lon="6.58306">
        <ele>42.393</ele>
        <time>2012-11-24T15:22:50Z</time>
      </trkpt>
      <trkpt lat="43.50288" lon="6.58308">
        <ele>39.571</ele>
        <time>2012-11-24T15:22:57Z</time>
      </trkpt>
      <trkpt lat="43.50287" lon="6.58311">
        <ele>38.579</ele>
        <time>2012-11-24T15:23:00Z</time>
      </trkpt>
      <trkpt lat="43.50193" lon="6.58316">
        <ele>37.636</ele>
        <time>2012-11-24T15:23:04Z</time>
      </trkpt>
      <trkpt lat="43.50185" lon="6.58296">
        <ele>33.55</ele>
        <time>2012-11-24T15:23:09Z</time>
      </trkpt>
      <trkpt lat="43.50185" lon="6.58296">
        <ele>32.783</ele>
        <time>2012-11-24T15:23:11Z</time>
      </trkpt>
      <trkpt lat="43.50177" lon="6.58288">
        <ele>32.372</ele>
        <time>2012-11-24T15:23:16Z</time>
      </trkpt>
      <trkpt lat="43.50159" lon="6.58262">
        <ele>31.909</ele>
        <time>2012-11-24T15:23:21Z</time>
      </trkpt>
      <trkpt lat="43.5012" lon="6.58223">
        <ele>31.975</ele>
        <time>2012-11-24T15:23:25Z</time>
      </trkpt>
      <trkpt lat="43.5012" lon="6.58223">
        <ele>34.187</ele>
        <time>2012-11-24T15:23:30Z</time>
      </trkpt>
      <trkpt lat="43.5012" lon="6.58223">
        <ele>35.305</ele>
        <time>2012-11-24T15:23:31Z</time>
      </trkpt>
      <trkpt lat="43.5016" lon="6.58248">
        <ele>35.555</ele>
        <time>2012-11-24T15:24:35Z</time>
      </trkpt>
      <trkpt lat="43.5015" lon="6.58241">
        <ele>36.055</ele>
        <time>2012-11-24T15:24:57Z</time>
      </trkpt>
      <trkpt lat="43.50149" lon="6.58238">
        <ele>36.136</ele>
        <time>2012-11-24T15:24:58Z</time>
      </trkpt>
      <trkpt lat="43.50145" lon="6.58217">
        <ele>38.645</ele>
        <time>2012-11-24T15:25:04Z</time>
      </trkpt>
      <trkpt lat="43.5014" lon="6.58199">
        <ele>41.276</ele>
        <time>2012-11-24T15:25:09Z</time>
      </trkpt>
      <trkpt lat="43.50139" lon="6.58197">
        <ele>41.352</ele>
        <time>2012-11-24T15:25:10Z</time>
      </trkpt>
      <trkpt lat="43.50134" lon="6.58186">
        <ele>42.407</ele>
        <time>2012-11-24T15:25:17Z</time>
      </trkpt>
      <trkpt lat="43.50129" lon="6.58171">
        <ele>42.825</ele>
        <time>2012-11-24T15:25:24Z</time>
      </trkpt>
      <trkpt lat="43.50121" lon="6.58155">
        <ele>42.913</ele>
        <time>2012-11-24T15:25:29Z</time>
      </trkpt>
      <trkpt lat="43.50115" lon="6.58144">
        <ele>44.239</ele>
        <time>2012-11-24T15:25:34Z</time>
      </trkpt>
      <trkpt lat="43.50107" lon="6.58131">
        <ele>44.049</ele>
        <time>2012-11-24T15:25:40Z</time>
      </trkpt>
      <trkpt lat="43.50093" lon="6.58111">
        <ele>44.451</ele>
        <time>2012-11-24T15:25:48Z</time>
      </trkpt>
      <trkpt lat="43.50083" lon="6.58099">
        <ele>44.059</ele>
        <time>2012-11-24T15:25:53Z</time>
      </trkpt>
      <trkpt lat="43.50072" lon="6.58086">
        <ele>44.386</ele>
        <time>2012-11-24T15:25:58Z</time>
      </trkpt>
      <trkpt lat="43.50062" lon="6.58076">
        <ele>44.674</ele>
        <time>2012-11-24T15:26:04Z</time>
      </trkpt>
      <trkpt lat="43.5005" lon="6.58064">
        <ele>45.082</ele>
        <time>2012-11-24T15:26:10Z</time>
      </trkpt>
      <trkpt lat="43.50045" lon="6.58094">
        <ele>46.512</ele>
        <time>2012-11-24T15:26:15Z</time>
      </trkpt>
      <trkpt lat="43.50045" lon="6.5806">
        <ele>46.101</ele>
        <time>2012-11-24T15:26:20Z</time>
      </trkpt>
      <trkpt lat="43.50045" lon="6.5806">
        <ele>45.987</ele>
        <time>2012-11-24T15:26:21Z</time>
      </trkpt>
      <trkpt lat="43.50045" lon="6.58094">
        <ele>45.266</ele>
        <time>2012-11-24T15:27:20Z</time>
      </trkpt>
      <trkpt lat="43.50041" lon="6.58057">
        <ele>45.12</ele>
        <time>2012-11-24T15:27:22Z</time>
      </trkpt>
      <trkpt lat="43.50028" lon="6.58049">
        <ele>45.467</ele>
        <time>2012-11-24T15:27:28Z</time>
      </trkpt>
      <trkpt lat="43.50026" lon="6.58048">
        <ele>45.507</ele>
        <time>2012-11-24T15:27:29Z</time>
      </trkpt>
      <trkpt lat="43.50017" lon="6.58043">
        <ele>45.863</ele>
        <time>2012-11-24T15:27:35Z</time>
      </trkpt>
      <trkpt lat="43.50013" lon="6.58041">
        <ele>45.545</ele>
        <time>2012-11-24T15:27:41Z</time>
      </trkpt>
      <trkpt lat="43.50012" lon="6.5804">
        <ele>45.214</ele>
        <time>2012-11-24T15:29:55Z</time>
      </trkpt>
      <trkpt lat="43.49997" lon="6.58048">
        <ele>45.015</ele>
        <time>2012-11-24T15:30:01Z</time>
      </trkpt>
      <trkpt lat="43.49985" lon="6.5803">
        <ele>44.901</ele>
        <time>2012-11-24T15:30:07Z</time>
      </trkpt>
      <trkpt lat="43.49965" lon="6.58003">
        <ele>44.555</ele>
        <time>2012-11-24T15:30:14Z</time>
      </trkpt>
      <trkpt lat="43.4994" lon="6.57968">
        <ele>43.662</ele>
        <time>2012-11-24T15:30:21Z</time>
      </trkpt>
      <trkpt lat="43.49904" lon="6.57926">
        <ele>42.56</ele>
        <time>2012-11-24T15:30:29Z</time>
      </trkpt>
      <trkpt lat="43.4989" lon="6.57912">
        <ele>42.08</ele>
        <time>2012-11-24T15:30:32Z</time>
      </trkpt>
      <trkpt lat="43.49847" lon="6.5788">
        <ele>41.055</ele>
        <time>2012-11-24T15:30:40Z</time>
      </trkpt>
      <trkpt lat="43.49802" lon="6.5784">
        <ele>39.807</ele>
        <time>2012-11-24T15:30:49Z</time>
      </trkpt>
      <trkpt lat="43.49781" lon="6.57804">
        <ele>39.117</ele>
        <time>2012-11-24T15:30:55Z</time>
      </trkpt>
      <trkpt lat="43.49757" lon="6.57761">
        <ele>38.447</ele>
        <time>2012-11-24T15:31:02Z</time>
      </trkpt>
      <trkpt lat="43.49751" lon="6.57749">
        <ele>38.36</ele>
        <time>2012-11-24T15:31:04Z</time>
      </trkpt>
      <trkpt lat="43.49745" lon="6.57725">
        <ele>37.814</ele>
        <time>2012-11-24T15:31:08Z</time>
      </trkpt>
      <trkpt lat="43.49741" lon="6.57704">
        <ele>37.368</ele>
        <time>2012-11-24T15:31:12Z</time>
      </trkpt>
      <trkpt lat="43.49729" lon="6.5771">
        <ele>37.654</ele>
        <time>2012-11-24T15:31:16Z</time>
      </trkpt>
      <trkpt lat="43.49726" lon="6.57713">
        <ele>37.919</ele>
        <time>2012-11-24T15:31:20Z</time>
      </trkpt>
      <trkpt lat="43.49736" lon="6.57681">
        <ele>38.32</ele>
        <time>2012-11-24T15:31:46Z</time>
      </trkpt>
      <trkpt lat="43.49735" lon="6.57678">
        <ele>38.31</ele>
        <time>2012-11-24T15:31:47Z</time>
      </trkpt>
      <trkpt lat="43.49728" lon="6.57649">
        <ele>38.019</ele>
        <time>2012-11-24T15:31:56Z</time>
      </trkpt>
      <trkpt lat="43.49719" lon="6.57623">
        <ele>38.129</ele>
        <time>2012-11-24T15:32:03Z</time>
      </trkpt>
      <trkpt lat="43.49708" lon="6.57592">
        <ele>37.453</ele>
        <time>2012-11-24T15:32:10Z</time>
      </trkpt>
      <trkpt lat="43.49702" lon="6.57575">
        <ele>37.042</ele>
        <time>2012-11-24T15:32:14Z</time>
      </trkpt>
      <trkpt lat="43.49693" lon="6.57553">
        <ele>36.57</ele>
        <time>2012-11-24T15:32:18Z</time>
      </trkpt>
      <trkpt lat="43.49614" lon="6.57621">
        <ele>36.051</ele>
        <time>2012-11-24T15:32:23Z</time>
      </trkpt>
      <trkpt lat="43.49603" lon="6.57609">
        <ele>35.598</ele>
        <time>2012-11-24T15:32:27Z</time>
      </trkpt>
      <trkpt lat="43.49587" lon="6.57585">
        <ele>34.824</ele>
        <time>2012-11-24T15:32:33Z</time>
      </trkpt>
      <trkpt lat="43.49579" lon="6.57573">
        <ele>34.544</ele>
        <time>2012-11-24T15:32:37Z</time>
      </trkpt>
      <trkpt lat="43.49564" lon="6.57553">
        <ele>35.122</ele>
        <time>2012-11-24T15:32:43Z</time>
      </trkpt>
      <trkpt lat="43.49558" lon="6.57544">
        <ele>35.449</ele>
        <time>2012-11-24T15:32:46Z</time>
      </trkpt>
      <trkpt lat="43.49545" lon="6.57527">
        <ele>33.845</ele>
        <time>2012-11-24T15:32:50Z</time>
      </trkpt>
      <trkpt lat="43.49538" lon="6.57516">
        <ele>33.004</ele>
        <time>2012-11-24T15:32:52Z</time>
      </trkpt>
      <trkpt lat="43.49532" lon="6.57504">
        <ele>32.049</ele>
        <time>2012-11-24T15:32:55Z</time>
      </trkpt>
      <trkpt lat="43.49515" lon="6.57495">
        <ele>31.543</ele>
        <time>2012-11-24T15:33:00Z</time>
      </trkpt>
      <trkpt lat="43.49504" lon="6.57497">
        <ele>31.373</ele>
        <time>2012-11-24T15:33:03Z</time>
      </trkpt>
      <trkpt lat="43.49486" lon="6.57504">
        <ele>30.521</ele>
        <time>2012-11-24T15:33:07Z</time>
      </trkpt>
      <trkpt lat="43.49468" lon="6.57505">
        <ele>29.408</ele>
        <time>2012-11-24T15:33:11Z</time>
      </trkpt>
      <trkpt lat="43.49448" lon="6.57505">
        <ele>29.674</ele>
        <time>2012-11-24T15:33:16Z</time>
      </trkpt>
      <trkpt lat="43.49434" lon="6.57506">
        <ele>30.048</ele>
        <time>2012-11-24T15:33:23Z</time>
      </trkpt>
      <trkpt lat="43.49434" lon="6.57506">
        <ele>29.872</ele>
        <time>2012-11-24T15:33:27Z</time>
      </trkpt>
      <trkpt lat="43.49389" lon="6.575">
        <ele>29.163</ele>
        <time>2012-11-24T15:33:33Z</time>
      </trkpt>
      <trkpt lat="43.49378" lon="6.57496">
        <ele>28.315</ele>
        <time>2012-11-24T15:33:35Z</time>
      </trkpt>
      <trkpt lat="43.49347" lon="6.57487">
        <ele>25.295</ele>
        <time>2012-11-24T15:33:40Z</time>
      </trkpt>
      <trkpt lat="43.4934" lon="6.5749">
        <ele>25.151</ele>
        <time>2012-11-24T15:33:41Z</time>
      </trkpt>
      <trkpt lat="43.4932" lon="6.575">
        <ele>25.035</ele>
        <time>2012-11-24T15:33:45Z</time>
      </trkpt>
      <trkpt lat="43.49304" lon="6.57512">
        <ele>25.07</ele>
        <time>2012-11-24T15:33:51Z</time>
      </trkpt>
      <trkpt lat="43.49278" lon="6.5752">
        <ele>25.328</ele>
        <time>2012-11-24T15:33:58Z</time>
      </trkpt>
      <trkpt lat="43.49272" lon="6.57526">
        <ele>25.296</ele>
        <time>2012-11-24T15:34:00Z</time>
      </trkpt>
      <trkpt lat="43.49266" lon="6.57542">
        <ele>25.171</ele>
        <time>2012-11-24T15:34:03Z</time>
      </trkpt>
      <trkpt lat="43.49254" lon="6.57558">
        <ele>25.236</ele>
        <time>2012-11-24T15:34:07Z</time>
      </trkpt>
      <trkpt lat="43.49238" lon="6.57575">
        <ele>26.077</ele>
        <time>2012-11-24T15:34:13Z</time>
      </trkpt>
      <trkpt lat="43.49226" lon="6.57585">
        <ele>27.867</ele>
        <time>2012-11-24T15:34:20Z</time>
      </trkpt>
      <trkpt lat="43.49222" lon="6.57588">
        <ele>28.041</ele>
        <time>2012-11-24T15:34:23Z</time>
      </trkpt>
      <trkpt lat="43.49215" lon="6.57593">
        <ele>27.674</ele>
        <time>2012-11-24T15:34:27Z</time>
      </trkpt>
      <trkpt lat="43.49204" lon="6.57601">
        <ele>26.857</ele>
        <time>2012-11-24T15:34:33Z</time>
      </trkpt>
      <trkpt lat="43.49202" lon="6.57602">
        <ele>26.642</ele>
        <time>2012-11-24T15:34:34Z</time>
      </trkpt>
      <trkpt lat="43.49186" lon="6.57605">
        <ele>26.079</ele>
        <time>2012-11-24T15:34:37Z</time>
      </trkpt>
      <trkpt lat="43.49167" lon="6.57601">
        <ele>25.098</ele>
        <time>2012-11-24T15:34:41Z</time>
      </trkpt>
      <trkpt lat="43.49155" lon="6.57597">
        <ele>25.09</ele>
        <time>2012-11-24T15:34:44Z</time>
      </trkpt>
      <trkpt lat="43.49137" lon="6.57596">
        <ele>24.788</ele>
        <time>2012-11-24T15:34:48Z</time>
      </trkpt>
      <trkpt lat="43.4911" lon="6.5759">
        <ele>24.841</ele>
        <time>2012-11-24T15:34:55Z</time>
      </trkpt>
      <trkpt lat="43.49103" lon="6.57589">
        <ele>24.812</ele>
        <time>2012-11-24T15:34:57Z</time>
      </trkpt>
      <trkpt lat="43.49097" lon="6.57588">
        <ele>24.656</ele>
        <time>2012-11-24T15:35:01Z</time>
      </trkpt>
      <trkpt lat="43.49083" lon="6.57549">
        <ele>27.185</ele>
        <time>2012-11-24T15:35:08Z</time>
      </trkpt>
      <trkpt lat="43.49075" lon="6.57531">
        <ele>27.6</ele>
        <time>2012-11-24T15:35:13Z</time>
      </trkpt>
      <trkpt lat="43.49068" lon="6.57513">
        <ele>27.344</ele>
        <time>2012-11-24T15:35:18Z</time>
      </trkpt>
      <trkpt lat="43.49067" lon="6.5751">
        <ele>27.348</ele>
        <time>2012-11-24T15:35:19Z</time>
      </trkpt>
      <trkpt lat="43.49059" lon="6.57493">
        <ele>28.069</ele>
        <time>2012-11-24T15:35:26Z</time>
      </trkpt>
      <trkpt lat="43.49054" lon="6.57479">
        <ele>28.251</ele>
        <time>2012-11-24T15:35:32Z</time>
      </trkpt>
      <trkpt lat="43.49046" lon="6.57457">
        <ele>27.672</ele>
        <time>2012-11-24T15:35:39Z</time>
      </trkpt>
      <trkpt lat="43.49045" lon="6.57454">
        <ele>27.471</ele>
        <time>2012-11-24T15:35:40Z</time>
      </trkpt>
      <trkpt lat="43.49039" lon="6.57439">
        <ele>26.784</ele>
        <time>2012-11-24T15:35:45Z</time>
      </trkpt>
      <trkpt lat="43.49039" lon="6.57439">
        <ele>26.664</ele>
        <time>2012-11-24T15:35:46Z</time>
      </trkpt>
      <trkpt lat="43.49033" lon="6.57429">
        <ele>26.321</ele>
        <time>2012-11-24T15:36:12Z</time>
      </trkpt>
      <trkpt lat="43.49031" lon="6.57428">
        <ele>26.257</ele>
        <time>2012-11-24T15:36:13Z</time>
      </trkpt>
      <trkpt lat="43.49024" lon="6.57425">
        <ele>25.998</ele>
        <time>2012-11-24T15:36:17Z</time>
      </trkpt>
      <trkpt lat="43.49004" lon="6.57416">
        <ele>25.379</ele>
        <time>2012-11-24T15:36:24Z</time>
      </trkpt>
      <trkpt lat="43.48986" lon="6.57417">
        <ele>24.281</ele>
        <time>2012-11-24T15:36:29Z</time>
      </trkpt>
      <trkpt lat="43.48982" lon="6.57419">
        <ele>24.116</ele>
        <time>2012-11-24T15:36:30Z</time>
      </trkpt>
      <trkpt lat="43.4897" lon="6.57425">
        <ele>23.286</ele>
        <time>2012-11-24T15:36:34Z</time>
      </trkpt>
      <trkpt lat="43.4897" lon="6.57425">
        <ele>22.635</ele>
        <time>2012-11-24T15:36:39Z</time>
      </trkpt>
      <trkpt lat="43.48942" lon="6.57435">
        <ele>22.584</ele>
        <time>2012-11-24T15:36:43Z</time>
      </trkpt>
      <trkpt lat="43.48932" lon="6.57402">
        <ele>23.786</ele>
        <time>2012-11-24T15:36:51Z</time>
      </trkpt>
      <trkpt lat="43.48921" lon="6.57378">
        <ele>26.052</ele>
        <time>2012-11-24T15:36:59Z</time>
      </trkpt>
      <trkpt lat="43.4891" lon="6.57358">
        <ele>26.658</ele>
        <time>2012-11-24T15:37:06Z</time>
      </trkpt>
      <trkpt lat="43.48892" lon="6.57337">
        <ele>27.728</ele>
        <time>2012-11-24T15:37:14Z</time>
      </trkpt>
      <trkpt lat="43.48884" lon="6.57328">
        <ele>29.234</ele>
        <time>2012-11-24T15:37:21Z</time>
      </trkpt>
      <trkpt lat="43.48865" lon="6.57308">
        <ele>29.942</ele>
        <time>2012-11-24T15:37:28Z</time>
      </trkpt>
      <trkpt lat="43.48846" lon="6.573">
        <ele>29.267</ele>
        <time>2012-11-24T15:37:34Z</time>
      </trkpt>
      <trkpt lat="43.48827" lon="6.573">
        <ele>29.007</ele>
        <time>2012-11-24T15:37:39Z</time>
      </trkpt>
      <trkpt lat="43.48811" lon="6.57303">
        <ele>28.88</ele>
        <time>2012-11-24T15:37:44Z</time>
      </trkpt>
      <trkpt lat="43.48787" lon="6.5732">
        <ele>28.601</ele>
        <time>2012-11-24T15:37:51Z</time>
      </trkpt>
      <trkpt lat="43.48759" lon="6.57336">
        <ele>28.058</ele>
        <time>2012-11-24T15:37:59Z</time>
      </trkpt>
      <trkpt lat="43.48738" lon="6.57346">
        <ele>28.003</ele>
        <time>2012-11-24T15:38:05Z</time>
      </trkpt>
      <trkpt lat="43.48718" lon="6.57363">
        <ele>27.064</ele>
        <time>2012-11-24T15:38:11Z</time>
      </trkpt>
      <trkpt lat="43.48716" lon="6.57368">
        <ele>26.971</ele>
        <time>2012-11-24T15:38:12Z</time>
      </trkpt>
      <trkpt lat="43.48709" lon="6.57396">
        <ele>25.343</ele>
        <time>2012-11-24T15:38:16Z</time>
      </trkpt>
      <trkpt lat="43.48708" lon="6.57404">
        <ele>24.876</ele>
        <time>2012-11-24T15:38:17Z</time>
      </trkpt>
      <trkpt lat="43.48699" lon="6.57426">
        <ele>24.346</ele>
        <time>2012-11-24T15:38:21Z</time>
      </trkpt>
      <trkpt lat="43.48687" lon="6.5742">
        <ele>24.92</ele>
        <time>2012-11-24T15:38:24Z</time>
      </trkpt>
      <trkpt lat="43.48667" lon="6.57398">
        <ele>26.137</ele>
        <time>2012-11-24T15:38:31Z</time>
      </trkpt>
      <trkpt lat="43.48647" lon="6.57377">
        <ele>26.758</ele>
        <time>2012-11-24T15:38:38Z</time>
      </trkpt>
      <trkpt lat="43.48638" lon="6.57354">
        <ele>26.459</ele>
        <time>2012-11-24T15:38:43Z</time>
      </trkpt>
      <trkpt lat="43.48624" lon="6.57333">
        <ele>24.876</ele>
        <time>2012-11-24T15:38:47Z</time>
      </trkpt>
      <trkpt lat="43.48603" lon="6.57308">
        <ele>22.075</ele>
        <time>2012-11-24T15:38:51Z</time>
      </trkpt>
      <trkpt lat="43.48592" lon="6.57276">
        <ele>21.732</ele>
        <time>2012-11-24T15:38:55Z</time>
      </trkpt>
      <trkpt lat="43.48586" lon="6.57254">
        <ele>22.132</ele>
        <time>2012-11-24T15:38:58Z</time>
      </trkpt>
      <trkpt lat="43.48584" lon="6.57231">
        <ele>22.812</ele>
        <time>2012-11-24T15:39:02Z</time>
      </trkpt>
      <trkpt lat="43.48582" lon="6.57203">
        <ele>21.812</ele>
        <time>2012-11-24T15:39:06Z</time>
      </trkpt>
      <trkpt lat="43.48565" lon="6.57161">
        <ele>20.519</ele>
        <time>2012-11-24T15:39:12Z</time>
      </trkpt>
      <trkpt lat="43.48545" lon="6.57139">
        <ele>20.658</ele>
        <time>2012-11-24T15:39:17Z</time>
      </trkpt>
      <trkpt lat="43.48525" lon="6.5713">
        <ele>20.622</ele>
        <time>2012-11-24T15:39:21Z</time>
      </trkpt>
      <trkpt lat="43.4851" lon="6.57126">
        <ele>20.794</ele>
        <time>2012-11-24T15:39:24Z</time>
      </trkpt>
      <trkpt lat="43.48492" lon="6.57128">
        <ele>20.739</ele>
        <time>2012-11-24T15:39:28Z</time>
      </trkpt>
      <trkpt lat="43.48479" lon="6.57135">
        <ele>20.674</ele>
        <time>2012-11-24T15:39:31Z</time>
      </trkpt>
      <trkpt lat="43.48464" lon="6.57142">
        <ele>20.355</ele>
        <time>2012-11-24T15:39:34Z</time>
      </trkpt>
      <trkpt lat="43.48443" lon="6.57138">
        <ele>20.081</ele>
        <time>2012-11-24T15:39:38Z</time>
      </trkpt>
      <trkpt lat="43.4844" lon="6.57122">
        <ele>20.717</ele>
        <time>2012-11-24T15:39:41Z</time>
      </trkpt>
      <trkpt lat="43.48434" lon="6.57099">
        <ele>22.47</ele>
        <time>2012-11-24T15:39:48Z</time>
      </trkpt>
      <trkpt lat="43.48429" lon="6.5708">
        <ele>22.635</ele>
        <time>2012-11-24T15:39:55Z</time>
      </trkpt>
      <trkpt lat="43.48423" lon="6.57065">
        <ele>22.622</ele>
        <time>2012-11-24T15:39:58Z</time>
      </trkpt>
      <trkpt lat="43.48414" lon="6.57048">
        <ele>21.525</ele>
        <time>2012-11-24T15:40:02Z</time>
      </trkpt>
      <trkpt lat="43.48402" lon="6.57039">
        <ele>21.09</ele>
        <time>2012-11-24T15:40:07Z</time>
      </trkpt>
      <trkpt lat="43.48394" lon="6.5703">
        <ele>20.49</ele>
        <time>2012-11-24T15:40:10Z</time>
      </trkpt>
      <trkpt lat="43.4838" lon="6.57016">
        <ele>18.532</ele>
        <time>2012-11-24T15:40:14Z</time>
      </trkpt>
      <trkpt lat="43.48367" lon="6.56994">
        <ele>15.618</ele>
        <time>2012-11-24T15:40:19Z</time>
      </trkpt>
      <trkpt lat="43.48366" lon="6.56979">
        <ele>14.817</ele>
        <time>2012-11-24T15:40:22Z</time>
      </trkpt>
      <trkpt lat="43.48367" lon="6.56969">
        <ele>14.815</ele>
        <time>2012-11-24T15:40:26Z</time>
      </trkpt>
      <trkpt lat="43.48368" lon="6.56968">
        <ele>14.906</ele>
        <time>2012-11-24T15:40:27Z</time>
      </trkpt>
      <trkpt lat="43.4837" lon="6.56962">
        <ele>15.006</ele>
        <time>2012-11-24T15:40:31Z</time>
      </trkpt>
      <trkpt lat="43.48375" lon="6.56944">
        <ele>15.161</ele>
        <time>2012-11-24T15:40:37Z</time>
      </trkpt>
      <trkpt lat="43.48381" lon="6.56904">
        <ele>15.638</ele>
        <time>2012-11-24T15:40:47Z</time>
      </trkpt>
      <trkpt lat="43.48384" lon="6.56877">
        <ele>16.43</ele>
        <time>2012-11-24T15:40:53Z</time>
      </trkpt>
      <trkpt lat="43.48387" lon="6.56842">
        <ele>17.268</ele>
        <time>2012-11-24T15:41:00Z</time>
      </trkpt>
      <trkpt lat="43.48383" lon="6.56814">
        <ele>18.626</ele>
        <time>2012-11-24T15:41:06Z</time>
      </trkpt>
      <trkpt lat="43.48382" lon="6.56786">
        <ele>21.048</ele>
        <time>2012-11-24T15:41:12Z</time>
      </trkpt>
      <trkpt lat="43.4838" lon="6.56769">
        <ele>22.99</ele>
        <time>2012-11-24T15:41:18Z</time>
      </trkpt>
      <trkpt lat="43.48394" lon="6.5676">
        <ele>23.809</ele>
        <time>2012-11-24T15:41:24Z</time>
      </trkpt>
      <trkpt lat="43.48416" lon="6.56748">
        <ele>24.951</ele>
        <time>2012-11-24T15:41:33Z</time>
      </trkpt>
      <trkpt lat="43.48434" lon="6.56734">
        <ele>26.105</ele>
        <time>2012-11-24T15:41:41Z</time>
      </trkpt>
      <trkpt lat="43.48451" lon="6.56718">
        <ele>26.71</ele>
        <time>2012-11-24T15:41:50Z</time>
      </trkpt>
      <trkpt lat="43.48462" lon="6.56701">
        <ele>26.539</ele>
        <time>2012-11-24T15:41:56Z</time>
      </trkpt>
      <trkpt lat="43.48464" lon="6.56698">
        <ele>26.632</ele>
        <time>2012-11-24T15:41:58Z</time>
      </trkpt>
      <trkpt lat="43.48466" lon="6.56695">
        <ele>26.614</ele>
        <time>2012-11-24T15:42:03Z</time>
      </trkpt>
      <trkpt lat="43.48458" lon="6.56689">
        <ele>26.443</ele>
        <time>2012-11-24T15:42:07Z</time>
      </trkpt>
      <trkpt lat="43.48461" lon="6.56671">
        <ele>26.513</ele>
        <time>2012-11-24T15:42:09Z</time>
      </trkpt>
      <trkpt lat="43.48468" lon="6.56631">
        <ele>27.142</ele>
        <time>2012-11-24T15:42:18Z</time>
      </trkpt>
      <trkpt lat="43.48475" lon="6.56595">
        <ele>27.699</ele>
        <time>2012-11-24T15:42:26Z</time>
      </trkpt>
      <trkpt lat="43.48481" lon="6.56563">
        <ele>28.181</ele>
        <time>2012-11-24T15:42:33Z</time>
      </trkpt>
      <trkpt lat="43.48486" lon="6.56528">
        <ele>28.905</ele>
        <time>2012-11-24T15:42:41Z</time>
      </trkpt>
      <trkpt lat="43.48492" lon="6.56496">
        <ele>29.526</ele>
        <time>2012-11-24T15:42:48Z</time>
      </trkpt>
      <trkpt lat="43.48498" lon="6.56456">
        <ele>30.296</ele>
        <time>2012-11-24T15:42:57Z</time>
      </trkpt>
      <trkpt lat="43.4851" lon="6.56431">
        <ele>30.602</ele>
        <time>2012-11-24T15:43:04Z</time>
      </trkpt>
      <trkpt lat="43.48514" lon="6.56423">
        <ele>30.975</ele>
        <time>2012-11-24T15:43:08Z</time>
      </trkpt>
      <trkpt lat="43.48514" lon="6.56423">
        <ele>31.018</ele>
        <time>2012-11-24T15:43:11Z</time>
      </trkpt>
      <trkpt lat="43.48518" lon="6.56417">
        <ele>31.203</ele>
        <time>2012-11-24T15:43:43Z</time>
      </trkpt>
      <trkpt lat="43.48526" lon="6.56405">
        <ele>31.472</ele>
        <time>2012-11-24T15:43:48Z</time>
      </trkpt>
      <trkpt lat="43.48539" lon="6.56383">
        <ele>31.813</ele>
        <time>2012-11-24T15:43:55Z</time>
      </trkpt>
      <trkpt lat="43.48556" lon="6.56357">
        <ele>31.054</ele>
        <time>2012-11-24T15:44:03Z</time>
      </trkpt>
      <trkpt lat="43.48568" lon="6.56338">
        <ele>32.22</ele>
        <time>2012-11-24T15:44:09Z</time>
      </trkpt>
      <trkpt lat="43.48583" lon="6.56318">
        <ele>32.205</ele>
        <time>2012-11-24T15:44:15Z</time>
      </trkpt>
      <trkpt lat="43.48586" lon="6.56313">
        <ele>32.296</ele>
        <time>2012-11-24T15:44:17Z</time>
      </trkpt>
      <trkpt lat="43.48608" lon="6.56326">
        <ele>32.412</ele>
        <time>2012-11-24T15:44:25Z</time>
      </trkpt>
      <trkpt lat="43.48626" lon="6.56336">
        <ele>32.412</ele>
        <time>2012-11-24T15:44:32Z</time>
      </trkpt>
      <trkpt lat="43.48649" lon="6.5635">
        <ele>32.313</ele>
        <time>2012-11-24T15:44:40Z</time>
      </trkpt>
      <trkpt lat="43.48666" lon="6.5636">
        <ele>32.46</ele>
        <time>2012-11-24T15:44:46Z</time>
      </trkpt>
      <trkpt lat="43.48679" lon="6.56367">
        <ele>32.802</ele>
        <time>2012-11-24T15:44:51Z</time>
      </trkpt>
      <trkpt lat="43.48686" lon="6.56373">
        <ele>33.058</ele>
        <time>2012-11-24T15:44:55Z</time>
      </trkpt>
      <trkpt lat="43.48686" lon="6.56373">
        <ele>33.083</ele>
        <time>2012-11-24T15:44:56Z</time>
      </trkpt>
      <trkpt lat="43.48683" lon="6.56372">
        <ele>33.246</ele>
        <time>2012-11-24T15:45:06Z</time>
      </trkpt>
      <trkpt lat="43.48683" lon="6.56373">
        <ele>33.299</ele>
        <time>2012-11-24T15:45:07Z</time>
      </trkpt>
      <trkpt lat="43.48681" lon="6.56382">
        <ele>33.149</ele>
        <time>2012-11-24T15:45:13Z</time>
      </trkpt>
      <trkpt lat="43.48678" lon="6.56401">
        <ele>33.122</ele>
        <time>2012-11-24T15:45:21Z</time>
      </trkpt>
      <trkpt lat="43.48677" lon="6.56403">
        <ele>33.067</ele>
        <time>2012-11-24T15:45:22Z</time>
      </trkpt>
      <trkpt lat="43.48685" lon="6.56371">
        <ele>33.066</ele>
        <time>2012-11-24T15:45:25Z</time>
      </trkpt>
    </trkseg>
  </trk>
</gpx>